[[{"header":{"parameterUnit":"m.s-1","parameterCategory":1,"la1":31.0,"la2":29.5877,"lo1":-88.7671,"lo2":-86.6584,"dy":0.0162,"dx":0.0185,"nx":115,"ny":88,"refTime":"2023-07-28T18:00:00:Z","depth":0,"parameterNumber":2,"parameterNumberName":"U-component_of_WINDS"},"data":[0.0,0.0,0.0,0.0,0.0,0.0,0.0,0.0,0.0,0.0,0.0,0.0,0.0,0.0,0.0,0.0,0.0,0.0,0.0,0.0,0.0,0.0,0.0,0.0,0.0,0.0,0.0,0.0,0.0,0.0,0.0,0.0,0.0,0.0,0.0,0.0,0.0,0.0,0.0,0.0,0.0,0.0,0.0,0.0,0.0,0.0,0.0,0.0,0.0,0.0,0.0,0.0,0.0,0.0,0.0,0.0,0.0,0.0,0.0,0.0,0.0,0.0,0.0,0.0,0.0,0.0,0.0,0.0,0.0,0.0,0.0,0.0,0.0,0.0,0.0,0.0,0.0,0.0,0.0,0.0,0.0,0.0,0.0,0.0,0.0,0.0,0.0,0.0,0.0,0.0,0.0,0.0,0.0,0.0,0.0,0.0,0.0,0.0,0.0,0.0,0.0,0.0,0.0,0.0,0.0,0.0,0.0,0.0,0.0,0.0,0.0,0.0,0.0,0.0,0.0,0.0,0.0,0.0,0.0,0.0,0.0,0.0,0.0,0.0,0.0,0.0,0.0,0.0,0.0,0.0,0.0,0.0,0.0,0.0,0.0,0.0,0.0,0.0,0.0,0.0,0.0,0.0,0.0,0.0,0.0,0.0,0.0,0.0,0.0,0.0,0.0,0.0,0.0,0.0,0.0,0.0,0.0,0.0,0.0,0.0,0.0,0.0,0.0,0.0,0.0,0.0,0.0,0.0,0.0,0.0,0.0,0.0,0.0,0.0,0.0,0.0,0.0,0.0,0.0,0.0,0.0,0.0,0.0,0.0,0.0,0.0,0.0,0.0,0.0,0.0,0.0,0.0,0.0,0.0,0.0,0.0,0.0,0.0,0.0,0.0,0.0,0.0,0.0,0.0,0.0,0.0,0.0,0.0,0.0,0.0,0.0,0.0,0.0,0.0,0.0,0.0,0.0,0.0,0.0,0.0,0.0,0.0,0.0,0.0,0.0,0.0,0.0,0.0,0.0,0.0,0.0,0.0,0.0,0.0,0.0,0.0,0.0,0.0,0.0,0.0,0.0,0.0,0.0,0.0,0.0,0.0,0.0,0.0,0.0,0.0,0.0,0.0,0.0,0.0,0.0,0.0,0.0,0.0,0.0,0.0,0.0,0.0,0.0,0.0,0.0,0.0,0.0,0.0,0.0,0.0,0.0,0.0,0.0,0.0,0.0,0.0,0.0,0.0,0.0,0.0,0.0,0.0,0.0,0.0,0.0,0.0,0.0,0.0,0.0,0.0,0.0,0.0,0.0,0.0,0.0,0.0,0.0,0.0,0.0,0.0,0.0,0.0,0.0,0.0,0.0,0.0,0.0,0.0,0.0,0.0,0.0,0.0,0.0,0.0,0.0,0.0,0.0,0.0,0.0,0.0,0.0,0.0,0.0,0.0,0.0,0.0,0.0,0.0,0.0,0.0,0.0,0.0,0.0,0.0,0.0,0.0,0.0,0.0,0.0,0.0,0.0,0.0,0.0,0.0,0.0,0.0,0.0,0.0,0.0,0.0,0.0,0.0,0.0,0.0,0.0,0.0,0.0,0.0,0.0,0.0,0.0,0.0,0.0,0.0,0.0,0.0,0.0,0.0,0.0,0.0,0.0,0.0,0.0,0.0,0.0,0.0,0.0,0.0,0.0,0.0,0.0,0.0,0.0,0.0,0.0,0.0,0.0,0.0,0.0,0.0,0.0,0.0,0.0,0.0,0.0,0.0,0.0,0.0,0.0,0.0,0.0,0.0,0.0,0.0,0.0,0.0,0.0,0.0,0.0,0.0,0.0,0.0,0.0,0.0,0.0,0.0,0.0,0.0,0.0,0.0,0.0,0.0,0.0,0.0,0.0,0.0,0.0,0.0,0.0,0.0,0.0,0.0,0.0,0.0,0.0,0.0,0.0,0.0,0.0,0.0,0.0,0.0,0.0,0.0,0.0,0.0,0.0,0.0,0.0,0.0,0.0,0.0,0.0,0.0,0.0,0.0,0.0,0.0,0.0,0.0,0.0,0.0,0.0,0.0,0.0,0.0,0.0,0.0,0.0,0.0,0.0,0.0,0.0,0.0,0.0,0.0,0.0,0.0,0.0,0.0,0.0,0.0,0.0,0.0,0.0,0.0,0.0,0.0,0.0,0.0,0.0,0.0,0.0,0.0,0.0,0.0,0.0,0.0,0.0,0.0,0.0,0.0,0.0,0.0,0.0,0.0,0.0,0.0,0.0,0.0,0.0,0.0,0.0,0.0,0.0,0.0,0.0,0.0,0.0,0.0,0.0,0.0,0.0,0.0,0.0,0.0,0.0,0.0,0.0,0.0,0.0,0.0,0.0,0.0,0.0,0.0,0.0,0.0,0.0,0.0,0.0,0.0,0.0,0.0,0.0,0.0,0.0,0.0,0.0,0.0,0.0,0.0,0.0,0.0,0.0,0.0,0.0,0.0,0.0,0.0,0.0,0.0,0.0,0.0,0.0,0.0,0.0,0.0,0.0,0.0,0.0,0.0,0.0,0.0,0.0,0.0,0.0,0.0,0.0,0.0,0.0,0.0,0.0,0.0,0.0,0.0,0.0,0.0,0.0,0.0,0.0,0.0,0.0,0.0,0.0,0.0,0.0,0.0,0.0,0.0,0.0,0.0,0.0,0.0,0.0,0.0,0.0,0.0,0.0,0.0,0.0,0.0,0.0,0.0,0.0,0.0,0.0,0.0,0.0,0.0,0.0,0.0,0.0,0.0,0.0,0.0,0.0,0.0,0.0,0.0,0.0,0.0,0.0,0.0,0.0,0.0,0.0,0.0,0.0,0.0,0.0,0.0,0.0,0.0,0.0,0.0,0.0,0.0,0.0,0.0,0.0,0.0,0.0,0.0,0.0,0.0,0.0,0.0,0.0,0.0,0.0,0.0,0.0,0.0,0.0,0.0,0.0,0.0,0.0,0.0,0.0,0.0,0.0,0.0,0.0,0.0,0.0,0.0,0.0,0.0,0.0,0.0,0.0,0.0,0.0,0.0,0.0,0.0,0.0,0.0,0.0,0.0,0.0,0.0,0.0,0.0,0.0,0.0,0.0,0.0,0.0,0.0,0.0,0.0,0.0,0.0,0.0,0.0,0.0,0.0,0.0,0.0,0.0,0.0,0.0,0.0,0.0,0.0,0.0,0.0,0.0,0.0,0.0,0.0,0.0,0.0,0.0,0.0,0.0,0.0,0.0,0.0,0.0,0.0,0.0,0.0,0.0,0.0,0.0,0.0,0.0,0.0,0.0,0.0,0.0,0.0,0.0,0.0,0.0,0.0,0.0,0.0,0.0,0.0,0.0,0.0,0.0,0.0,0.0,0.0,0.0,0.0,0.0,0.0,0.0,0.0,0.0,0.0,0.0,0.0,0.0,0.0,0.0,0.0,0.0,0.0,0.0,0.0,0.0,0.0,0.0,0.0,0.0,0.0,0.0,0.0,0.0,0.0,0.0,0.0,0.0,0.0,0.0,0.0,0.0,0.0,0.0,0.0,0.0,0.0,0.0,0.0,0.0,0.0,0.0,0.0,0.0,0.0,0.0,0.0,0.0,0.0,0.0,0.0,0.0,0.0,0.0,0.0,0.0,0.0,0.0,0.0,0.0,0.0,0.0,0.0,0.0,0.0,0.0,0.0,0.0,0.0,0.0,0.0,0.0,0.0,0.0,0.0,0.0,0.0,0.0,0.0,0.0,0.0,0.0,0.0,0.0,0.0,0.0,0.0,0.0,0.0,0.0,0.0,0.0,0.0,0.0,0.0,0.0,0.0,0.0,0.0,0.0,0.0,0.0,0.0,0.0,0.0,0.0,0.0,0.0,0.0,0.0,0.0,0.0,0.0,0.0,0.0,0.0,0.0,0.0,0.0,0.0,0.0,0.0,0.0,0.0,0.0,0.0,0.0,0.0,0.0,0.0,0.0,0.0,0.0,0.0,0.0,0.0,0.0,0.0,0.0,0.0,0.0,0.0,0.0,0.0,0.0,0.0,0.0,0.0,0.0,0.0,0.0,0.0,0.0,0.0,0.0,0.0,0.0,0.0,0.0,0.0,0.0,0.0,0.0,0.0,0.0,0.0,0.0,0.0,0.0,0.0,0.0,0.0,0.0,0.0,0.0,0.0,0.0,0.0,0.0,0.0,0.0,0.0,0.0,0.0,0.0,0.0,0.0,0.0,0.0,0.0,0.0,0.0,0.0,0.0,0.0,0.0,0.0,0.0,0.0,0.0,0.0,0.0,0.0,1.3135,0.0,0.0,0.0,0.0,0.0,0.0,0.0,0.0,0.0,0.0,0.0,0.0,0.0,0.0,0.0,0.0,0.0,0.0,0.0,0.0,0.0,0.0,0.0,0.0,0.0,0.0,0.0,0.0,0.0,0.0,0.0,0.0,0.0,0.0,0.0,0.0,0.0,0.0,0.0,0.0,0.0,0.0,0.0,0.0,0.0,0.0,0.0,0.0,0.0,0.0,0.0,0.0,0.0,0.0,0.0,0.0,0.0,0.0,0.0,0.0,0.0,0.0,0.0,0.0,0.0,0.0,0.0,0.0,0.0,0.0,0.0,0.0,0.0,0.0,0.0,0.0,0.0,0.0,0.0,0.0,0.0,0.0,0.0,0.0,0.0,0.0,0.0,0.0,0.0,0.0,0.0,0.0,0.0,0.0,0.0,0.0,0.0,0.0,0.0,0.0,0.0,0.0,0.0,0.0,0.0,0.0,0.0,0.0,0.0,0.0,1.4117,1.4103,1.3051,1.2601,1.2763,0.0,0.0,0.0,0.0,0.0,0.0,0.0,0.0,0.0,0.0,0.0,0.0,0.0,0.0,0.0,0.0,0.0,0.0,0.0,0.0,0.0,0.0,0.0,0.0,0.0,0.0,0.0,0.0,0.0,0.0,0.0,0.0,0.0,0.0,0.0,0.0,0.0,0.0,0.0,0.0,0.0,0.0,0.0,0.0,0.0,0.0,0.0,0.0,0.0,0.0,0.0,0.0,0.0,0.0,0.0,0.0,0.0,0.0,0.0,0.0,0.0,0.0,0.0,0.0,0.0,0.0,0.0,0.0,0.0,0.0,0.0,0.0,0.0,0.0,0.0,0.0,0.0,0.0,0.0,0.0,0.0,0.0,0.0,0.0,0.0,0.0,0.0,0.0,0.0,0.0,0.0,0.0,0.0,0.0,0.0,0.0,0.0,0.0,0.0,0.0,0.0,0.0,0.0,0.0,0.0,0.0,0.0,0.0,0.0,0.0,0.0,0.0,1.2663,1.1875,1.2484,0.0,0.0,0.0,0.0,0.0,0.0,0.0,0.0,0.0,0.0,0.0,0.0,0.0,0.0,0.0,0.0,0.0,0.0,0.0,0.0,0.0,0.0,0.0,0.0,0.0,0.0,0.0,0.0,0.0,0.0,0.0,0.0,0.0,0.0,0.0,0.0,0.0,0.0,0.0,0.0,0.0,0.0,0.0,0.0,0.0,0.0,0.0,0.0,0.0,0.0,0.0,0.0,0.0,0.0,0.0,0.0,0.0,0.0,0.0,0.0,0.0,0.0,0.0,0.0,0.0,0.0,0.0,0.0,0.0,0.0,0.0,0.0,0.0,0.0,0.0,0.0,0.0,0.0,0.0,0.0,0.0,0.0,0.0,0.0,0.0,0.0,0.0,0.0,0.0,0.0,0.0,0.0,0.0,0.0,0.0,0.0,0.0,0.0,0.0,0.0,0.0,0.0,0.0,0.0,0.0,0.0,0.0,0.0,0.0,0.0,1.4252,1.4679,1.3654,0.0,1.3089,0.0,0.0,0.0,0.0,0.0,0.0,0.0,0.0,0.0,0.0,0.0,0.0,0.0,0.0,0.0,0.0,0.0,0.0,0.0,0.0,0.0,0.0,0.0,0.0,0.0,0.0,0.0,0.0,0.0,0.0,0.0,0.0,0.0,0.0,0.0,0.0,0.0,0.0,0.0,0.0,0.0,0.0,0.0,0.0,0.0,0.0,0.0,0.0,0.0,0.0,0.0,0.0,0.0,0.0,0.0,0.0,0.0,0.0,0.0,0.0,0.0,0.0,0.0,0.0,0.0,0.0,0.0,0.0,0.0,0.0,0.0,0.0,0.0,0.0,0.0,0.0,0.0,0.0,0.0,0.0,0.0,0.0,0.0,0.0,0.0,0.0,0.0,0.0,0.0,0.0,0.0,0.0,0.0,0.0,0.0,0.0,0.0,0.0,0.0,0.0,0.0,0.0,0.0,0.0,0.0,0.0,0.0,0.0,0.0,0.0,1.4627,1.4633,1.3582,1.2363,0.0,0.0,0.0,0.0,0.0,0.0,0.0,0.0,0.0,0.0,0.0,0.0,0.0,0.0,0.0,0.0,0.0,0.0,0.0,0.0,0.0,0.0,0.0,0.0,0.0,0.0,0.0,0.0,0.0,0.0,0.0,0.0,0.0,0.0,0.0,0.0,0.0,0.0,0.0,0.0,0.0,0.0,0.0,0.0,0.0,0.0,0.0,0.0,0.0,0.0,0.0,0.0,0.0,0.0,0.0,0.0,0.0,0.0,0.0,0.0,0.0,0.0,0.0,0.0,0.0,0.0,0.0,0.0,0.0,0.0,0.0,0.0,0.0,0.0,0.0,0.0,0.0,0.0,0.0,0.0,0.0,0.0,0.0,0.0,0.0,0.0,0.0,0.0,0.0,0.0,0.0,0.0,0.0,0.0,0.0,0.0,0.0,0.0,0.0,0.0,0.0,0.0,0.0,0.0,0.0,0.0,0.0,0.0,0.0,0.0,1.4972,1.443,1.389,1.2881,1.1419,0.9529,0.0,0.0,0.0,0.0,0.0,0.0,0.0,0.0,0.0,0.0,0.0,0.0,0.0,0.0,0.0,0.0,0.0,0.0,0.0,0.0,0.0,0.0,0.0,0.0,0.0,0.0,0.0,0.0,0.0,0.0,0.0,0.0,0.0,0.0,0.0,0.0,0.0,0.0,0.0,0.0,0.0,0.0,0.0,0.0,0.0,0.0,0.0,0.0,0.0,0.0,0.0,0.0,0.0,0.0,0.0,0.0,0.0,0.0,0.0,0.0,0.0,0.0,0.0,0.0,0.0,0.0,0.0,0.0,0.0,0.0,0.0,0.0,0.0,0.0,0.0,0.0,0.0,0.0,0.0,0.0,0.0,0.0,0.0,0.0,0.0,0.0,0.0,0.0,0.0,0.0,0.0,0.0,0.0,0.0,0.0,0.0,0.0,0.0,0.0,0.0,0.0,0.0,0.0,0.0,0.0,0.0,0.0,0.0,1.5698,1.4441,1.3244,1.2299,1.1453,1.0591,0.0,0.0,0.0,0.0,0.0,0.0,0.0,0.0,0.0,0.0,0.0,0.0,0.0,0.0,0.0,0.0,0.0,0.0,0.0,0.0,0.0,0.0,0.0,0.0,0.0,0.0,0.0,0.0,0.0,0.0,0.0,0.0,0.0,0.0,0.0,0.0,0.0,0.0,0.0,0.0,0.0,0.0,0.0,0.0,0.0,0.0,0.0,0.0,0.0,0.0,0.0,0.0,0.0,0.0,0.0,0.0,0.0,0.0,0.0,0.0,0.0,0.0,0.0,0.0,0.0,0.0,0.0,0.0,0.0,0.0,0.0,0.0,0.0,0.0,0.0,0.0,0.0,0.0,0.0,0.0,0.0,0.0,0.0,0.0,0.0,0.0,0.0,0.0,0.0,0.0,0.0,0.0,0.0,0.0,0.0,0.0,0.0,0.0,0.0,0.0,0.0,0.0,0.0,0.0,0.0,0.0,0.0,0.0,0.0,1.484,1.2751,1.2013,1.2816,1.0424,0.8944,0.0,0.0,0.0,0.0,0.0,0.0,0.0,0.0,0.0,0.0,0.0,0.0,0.0,0.0,0.0,0.0,0.0,0.0,0.0,0.0,0.0,0.0,0.0,0.0,0.0,0.0,0.0,0.0,0.0,0.0,0.0,0.0,0.0,0.0,0.0,0.0,0.0,0.0,0.0,0.0,0.0,0.0,0.0,0.0,0.0,0.0,0.0,0.0,0.0,0.0,0.0,0.0,0.0,0.0,0.0,0.0,0.0,0.0,0.0,0.0,0.0,0.0,0.0,0.0,0.0,0.0,0.0,0.0,0.0,0.0,0.0,0.0,0.0,0.0,0.0,0.0,0.0,0.0,0.0,0.0,0.0,0.0,0.0,0.0,0.0,0.0,0.0,0.0,0.0,0.0,0.0,0.0,0.0,0.0,0.0,0.0,0.0,0.0,0.0,0.0,0.0,0.0,0.0,0.0,0.0,0.0,0.0,0.0,0.0,1.393,0.0,1.1295,1.2182,0.9128,0.737,0.0,0.0,0.0,0.0,0.0,0.0,0.0,0.0,0.0,0.0,0.0,0.0,0.0,0.0,0.0,0.0,0.0,0.0,0.0,0.0,0.0,0.0,0.0,0.0,0.0,0.0,0.0,0.0,0.0,0.0,0.0,0.0,0.0,0.0,0.0,0.0,0.0,0.0,0.0,0.0,0.0,0.0,0.0,0.0,0.0,0.0,0.0,0.0,0.0,0.0,0.0,0.0,0.0,0.0,0.0,0.0,0.0,0.0,0.0,0.0,0.0,0.0,0.0,0.0,0.0,0.0,0.0,0.0,0.0,0.0,0.0,0.0,0.0,0.0,0.0,0.0,0.0,0.0,0.0,0.0,0.0,0.0,0.0,0.0,0.0,0.0,0.0,0.0,0.0,0.0,0.0,0.0,0.0,0.0,0.0,0.0,0.0,0.0,0.0,0.0,0.0,0.0,0.0,0.0,0.0,0.0,0.0,0.0,1.3811,1.2954,1.191,1.094,1.015,0.7455,0.5944,0.0,0.0,0.0,0.0,0.0,0.0,0.0,0.0,0.0,0.0,0.0,0.0,0.0,0.0,0.0,0.0,0.0,0.0,0.0,0.0,0.0,0.0,0.0,0.0,0.0,0.0,0.0,0.0,0.0,0.0,0.0,0.0,0.0,0.0,0.0,0.0,0.0,0.0,0.0,0.0,0.0,0.0,0.0,0.0,0.0,0.0,0.0,0.0,0.0,0.0,0.0,0.0,0.0,0.0,0.0,0.0,0.0,0.0,0.0,0.0,0.0,0.0,0.0,0.0,0.0,0.0,0.0,0.0,0.0,0.0,0.0,0.0,0.0,0.0,0.0,0.0,0.0,0.0,0.0,0.0,0.0,0.0,0.0,0.0,0.0,0.0,0.0,0.0,0.0,0.0,0.0,0.0,0.0,0.0,0.0,0.0,0.0,0.0,0.0,0.0,0.0,0.0,0.0,0.0,0.0,0.0,0.0,0.0,0.0,1.0972,0.9517,0.8652,0.8214,0.5716,0.4785,0.0,0.0,0.0,0.0,0.0,0.0,0.0,0.0,0.0,0.0,0.0,0.0,0.0,0.0,0.0,0.0,0.0,0.0,0.0,0.0,0.0,0.0,0.0,0.0,0.0,0.0,0.0,0.0,0.0,0.0,0.0,0.0,0.0,0.0,0.0,0.0,0.0,0.0,0.0,0.0,0.0,0.0,0.0,0.0,0.0,0.0,0.0,0.0,0.0,0.0,0.0,0.0,0.0,0.0,0.0,0.0,0.0,0.0,0.0,0.0,0.0,0.0,0.0,0.0,0.0,0.0,0.0,0.0,0.0,0.0,0.0,0.0,0.0,0.0,0.0,0.0,0.0,0.0,0.0,0.0,0.0,0.0,0.0,0.0,0.0,0.0,0.0,0.0,0.0,0.0,0.0,0.0,0.0,0.0,0.0,0.0,0.0,0.0,0.0,0.0,0.0,0.0,0.0,0.0,0.0,0.0,0.0,0.0,0.0,0.9779,0.8782,0.8151,0.7679,0.517,0.4197,0.5029,0.0,0.0,0.0,0.0,0.0,0.0,0.0,0.0,0.0,0.0,0.0,0.0,0.0,0.0,0.0,0.0,0.0,0.0,0.0,0.0,0.0,0.0,0.0,0.0,0.0,0.0,0.0,0.0,0.0,0.0,0.0,0.0,0.0,0.0,0.0,0.0,0.0,0.0,0.0,0.0,0.0,0.0,0.0,0.0,0.0,0.0,0.0,0.0,0.0,0.0,0.0,0.0,0.0,0.0,0.0,0.0,0.0,0.0,0.0,0.0,0.0,0.0,0.0,0.0,0.0,0.0,0.0,0.0,0.0,0.0,0.0,0.0,0.0,0.0,0.0,0.0,0.0,0.0,0.0,0.0,0.0,0.0,0.0,0.0,0.0,0.0,0.0,0.0,0.0,0.0,0.0,0.0,0.0,0.0,0.0,0.0,0.0,0.0,0.0,0.0,0.0,0.0,0.0,0.0,0.0,0.0,0.0,0.0,0.9275,0.9411,0.8948,0.7859,0.5457,0.4056,0.0,0.0,0.0,0.0,0.0,0.0,0.0,0.0,0.0,0.0,0.0,0.0,0.0,0.0,0.0,0.0,0.0,0.0,0.0,0.0,0.0,0.0,0.0,0.0,0.0,0.0,0.0,0.0,0.0,0.0,0.0,0.0,0.0,0.0,0.0,0.0,0.0,0.0,0.0,0.0,0.0,0.0,0.0,0.0,0.0,0.0,0.0,0.0,0.0,0.0,0.0,0.0,0.0,0.0,0.0,0.0,0.0,0.0,0.0,0.0,0.0,0.0,0.0,0.0,0.0,0.0,0.0,0.0,0.0,0.0,0.0,0.0,0.0,0.0,0.0,0.0,0.0,0.0,0.0,0.0,0.0,0.0,0.0,0.0,0.0,0.0,0.0,0.0,0.0,0.0,0.0,0.0,0.0,0.0,0.0,0.0,0.0,0.0,0.0,0.0,0.0,0.0,0.0,0.0,0.0,0.0,0.0,0.0,0.0,1.1202,0.9472,0.7384,0.4912,0.4237,0.3473,0.0,0.0,0.0,0.0,0.0,0.0,0.0,0.0,0.0,0.0,0.0,0.0,0.0,0.0,0.0,0.0,0.0,0.0,0.0,0.0,0.0,0.0,0.0,0.0,0.0,0.0,0.0,0.0,0.0,0.0,0.0,0.0,0.0,0.0,0.0,0.0,0.0,0.0,0.0,0.0,0.0,0.0,0.0,0.0,0.0,0.0,0.0,0.0,0.0,0.0,0.0,0.0,0.0,0.0,0.0,0.0,0.0,0.0,0.0,0.0,0.0,0.0,0.0,0.0,0.0,0.0,0.0,0.0,0.0,0.0,0.0,0.0,0.0,0.0,0.0,0.0,0.0,0.0,0.0,0.0,0.0,0.0,0.0,0.0,0.0,0.0,0.0,0.0,0.0,0.0,0.0,0.0,0.0,0.0,0.0,0.0,0.0,0.0,0.0,0.0,0.0,0.0,0.0,0.0,0.0,0.0,0.0,0.0,1.2109,1.1072,0.9415,0.7005,0.3767,0.3808,0.3245,0.0,0.0,0.0,0.0,0.0,0.0,0.0,0.0,0.0,0.0,0.0,0.0,0.0,0.0,0.0,0.0,0.0,0.0,0.0,0.0,0.0,0.0,0.0,0.0,0.0,0.0,0.0,0.0,0.0,0.0,0.0,0.0,0.0,0.0,0.0,0.0,0.0,0.0,0.0,0.0,0.0,0.0,0.0,0.0,0.0,0.0,0.0,0.0,0.0,0.0,0.0,0.0,0.0,0.0,0.0,0.0,0.0,0.0,0.0,0.0,0.0,0.0,0.0,0.0,0.0,0.0,0.0,0.0,0.0,0.0,0.0,0.0,0.0,0.0,0.0,0.0,0.0,0.0,0.0,0.0,0.0,0.0,0.0,0.0,0.0,0.0,0.0,0.0,0.0,0.0,0.0,0.0,0.0,0.0,0.0,0.0,0.0,0.0,0.0,0.0,0.0,0.0,0.0,0.0,0.0,0.0,0.0,0.0,1.2194,0.9978,0.9521,0.7616,0.4268,0.4154,0.3351,0.0,0.0,0.0,0.0,0.0,0.0,0.0,0.0,0.0,0.0,0.0,0.0,0.0,0.0,0.0,0.0,0.0,0.0,0.0,0.0,0.0,0.0,0.0,0.0,0.0,0.0,0.0,0.0,0.0,0.0,0.0,0.0,0.0,0.0,0.0,0.0,0.0,0.0,0.0,0.0,0.0,0.0,0.0,0.0,0.0,0.0,0.0,0.0,0.0,0.0,0.0,0.0,0.0,0.0,0.0,0.0,0.0,0.0,0.0,0.0,0.0,0.0,0.0,0.0,0.0,0.0,0.0,0.0,0.0,0.0,0.0,0.0,0.0,0.0,0.0,0.0,0.0,0.0,0.0,0.0,0.0,0.0,0.0,0.0,0.0,0.0,0.0,0.0,0.0,0.0,0.0,0.0,0.0,0.0,0.0,0.0,0.0,0.0,0.0,0.0,0.0,0.0,0.0,0.0,0.0,0.0,0.0,0.0,1.2969,1.0586,1.0989,0.9478,0.5892,0.5797,0.4055,0.0,0.0,0.0,0.0,0.0,0.0,0.0,0.0,0.0,0.0,0.0,0.0,0.0,0.0,0.0,0.0,0.0,0.0,0.0,0.0,0.0,0.0,0.0,0.0,0.0,0.0,0.0,0.0,0.0,0.0,0.0,0.0,0.0,0.0,0.0,0.0,0.0,0.0,0.0,0.0,0.0,0.0,0.0,0.0,0.0,0.0,0.0,0.0,-0.5363,0.0,0.0,0.0,0.0,0.0,0.0,0.0,0.0,0.0,0.0,0.0,0.0,0.0,0.0,0.0,0.0,0.0,0.0,0.0,0.0,0.0,0.0,0.0,0.0,0.0,0.0,0.0,0.0,0.0,0.0,0.0,0.0,0.0,0.0,0.0,0.0,0.0,0.0,0.0,0.0,0.0,0.0,0.0,0.0,0.0,0.0,0.0,0.0,0.0,0.0,0.0,0.0,0.0,0.0,0.0,0.0,0.0,0.0,0.0,1.3851,1.1535,1.1931,1.0827,0.8167,0.8622,0.6748,0.0,0.0,0.0,0.0,0.0,0.0,0.0,0.0,0.0,0.0,0.0,0.0,0.0,0.0,0.0,0.0,0.0,0.0,0.0,0.0,0.0,0.0,0.0,0.0,0.0,0.0,0.0,0.0,0.0,0.0,0.0,0.0,0.0,0.0,0.0,0.0,0.0,0.0,0.0,0.0,0.0,0.0,0.0,0.0,0.0,0.0,0.0,0.0,0.0,0.0,0.0,0.0,0.0,0.0,0.0,0.0,0.0,0.0,0.0,0.0,0.0,0.0,0.0,0.0,0.0,0.0,0.0,0.0,0.0,0.0,0.0,0.0,0.0,0.0,0.0,0.0,0.0,0.0,0.0,0.0,0.0,0.0,0.0,0.0,0.0,0.0,0.0,0.0,0.0,0.0,0.0,0.0,0.0,0.0,0.0,0.0,0.0,0.0,0.0,0.0,0.0,0.0,0.0,0.0,0.0,0.0,0.0,1.4838,1.4583,1.2431,1.2771,1.2126,1.0394,1.1728,1.0186,0.5408,0.0,0.0,0.0,0.0,0.0,0.0,0.0,0.0,0.0,0.0,0.0,0.0,0.0,0.0,0.0,0.0,0.0,0.0,0.0,0.0,0.0,0.0,0.0,0.0,0.0,0.0,0.0,0.0,0.0,0.0,0.0,0.0,0.0,0.0,0.0,0.0,0.0,0.0,0.0537,-0.0998,0.0,0.0,0.0,0.0,0.0,0.0,0.0,0.0,-0.3499,0.0,0.0,0.0,0.0,0.0,0.0,0.0,0.0,0.0,0.0,0.0,0.0,0.0,0.0,0.0,0.0,0.0,0.0,0.0,0.0,0.0,0.0,0.0,0.0,0.0,0.0,0.0,0.0,0.0,0.0,0.0,0.0,0.0,0.0,0.0,0.0,0.0,0.0,0.0,0.0,0.0,0.0,0.0,0.0,0.0,0.0,0.0,0.0,0.0,0.0,0.0,0.0,0.0,0.0,0.0,0.0,1.4718,1.5421,1.4807,1.288,1.4223,1.401,1.2225,1.3668,1.2782,0.9227,0.0,0.0,0.0,0.0,0.0,0.0,0.0,0.0,0.0,0.0,0.0,0.0,0.0,0.0,0.0,0.0,0.0,0.0,0.0,0.0,0.0,0.0,0.0,0.0,0.0,0.0,0.0,0.0,0.0,0.0,0.0,0.0,0.0,0.0,0.0,0.0,0.0,0.0,0.0,-0.1993,-0.2557,0.0,0.0,0.0,0.0,0.0,0.0,0.0,0.0,-0.276,0.0,0.0,0.0,0.0,0.0,0.0,0.0,0.0,0.0,0.0,0.0,0.0,0.0,0.0,0.0,0.0,0.0,0.0,0.0,0.0,0.0,0.0,0.0,0.0,0.0,0.0,0.0,0.0,0.0,0.0,0.0,0.0,0.0,0.0,0.0,0.0,0.0,0.0,0.0,0.0,0.0,0.0,0.0,0.0,0.0,0.0,0.0,0.0,0.0,0.0,0.0,0.0,0.0,0.0,0.0,1.4714,1.6121,1.6063,1.4418,1.5167,1.5119,1.4227,1.4704,1.3516,0.0,0.0,0.0,0.0,0.0,0.0,0.0,0.0,0.0,0.0,0.0,0.0,0.0,0.0,0.0,0.0,0.0,0.0,0.0,0.0,0.0,0.0,0.0,0.0,0.0,0.0,0.0,0.0,0.0,0.0,0.0,0.0,0.0,0.0,0.0,0.0,0.0,0.0,0.0,0.0,-0.0949,-0.1114,-0.1195,0.0,0.0,0.0,0.0,0.0,0.0,-0.2349,-0.2399,0.0,0.0,0.0,0.0,0.0,0.0,0.0,0.0,0.0,0.0,0.0,0.0,0.0,0.0,0.0,0.0,0.0,0.0,0.0,0.0,0.0,0.0,0.0,0.0,0.0,0.0,0.0,0.0,0.0,0.0,0.0,0.0,0.0,0.0,0.0,0.0,0.0,0.0,0.0,0.0,0.0,0.0,0.0,0.0,0.0,0.0,0.0,0.0,0.0,0.0,0.0,0.0,0.0,0.0,0.0,1.45,1.6294,1.6977,1.6348,1.6093,1.5989,1.6104,1.5634,1.3895,0.0,0.0,0.0,0.0,0.0,0.0,0.0,0.0,0.0,0.0,0.0,0.0,0.0,0.0,0.0,0.0,0.0,0.0,0.0,0.0,0.0,0.0,0.0,0.0,0.0,0.0,0.0,0.0,0.0,0.0,0.0,0.0,0.0,0.0,0.0,0.0,0.0,0.0,0.0,0.0,0.0,0.0358,-0.0254,-0.0394,0.0,0.0,0.0,0.0,-0.1909,-0.1942,0.0,0.0,0.0,0.0,0.0,0.0,0.0,0.0,0.0,0.0,0.0,0.0,0.0,0.0,0.0,0.0,0.0,0.0,0.0,0.0,0.0,0.0,0.0,0.0,0.0,0.0,0.0,0.0,0.0,0.0,0.0,0.0,0.0,0.0,0.0,0.0,0.0,0.0,0.0,0.0,0.0,0.0,0.0,0.0,0.0,0.0,0.0,0.0,0.0,0.0,0.0,0.0,0.0,0.0,0.0,0.0,1.5344,1.5311,1.6352,1.8265,1.7445,1.7092,1.7379,1.6915,1.4841,0.0,0.0,0.0,0.0,0.0,0.0,0.0,0.0,0.0,0.0,0.0,0.0,0.0,0.0,0.0,0.0,0.0,0.0,0.0,0.0,0.0,0.0,0.0,0.0,0.0,0.0,0.0,0.0,0.0,0.0,0.0,0.0,0.0,0.0,0.0,0.0,0.0,0.0,0.0,0.0,0.0,0.1037,-0.058,-0.0052,-0.0052,0.0,0.0,-0.1417,-0.1249,-0.1175,0.0,0.0,0.0,0.0,0.0,0.0,0.0,0.0,0.0,0.0,0.0,0.0,0.0,0.0,0.0,0.0,0.0,0.0,0.0,0.0,0.0,0.0,0.0,0.0,0.0,0.0,0.0,0.0,0.0,0.0,0.0,0.0,0.0,0.0,0.0,0.0,0.0,0.0,0.0,0.0,0.0,0.0,0.0,0.0,0.0,0.0,0.0,0.0,0.0,0.0,0.0,0.0,0.0,0.0,0.0,1.5211,1.5724,1.6042,1.6398,1.6847,1.6507,1.6348,1.6327,1.5794,1.436,0.0,0.0,0.0,0.0,0.0,0.0,0.0,0.0,0.0,0.0,0.0,0.0,0.0,0.0,0.0,0.0,0.0,0.0,0.0,0.0,0.0,0.0,0.0,0.0,0.0,0.0,0.0,0.0,0.0,0.0,0.0,0.0,0.0,0.0,0.0,0.0,0.0,0.0,0.0,0.0,0.0,0.0,-0.0273,0.0214,0.0,0.0,0.0,-0.114,-0.0775,0.0,0.0,0.0,0.0,0.0,0.0,0.0,0.0,0.0,0.0,0.0,0.0,0.0,0.0,0.0,0.0,0.0,0.0,0.0,0.0,0.0,0.0,0.0,0.0,0.0,0.0,0.0,0.0,0.0,0.0,0.0,0.0,0.0,0.0,0.0,0.0,0.0,0.0,0.0,0.0,0.0,0.0,0.0,0.0,0.0,0.0,0.0,0.0,0.0,0.0,0.0,0.0,0.0,0.0,0.0,0.0,0.0,1.6137,1.6795,1.6847,1.6327,1.613,1.5968,1.5901,1.5164,0.0,0.0,0.0,0.0,0.0,0.0,0.0,0.0,0.0,0.0,0.0,0.0,0.0,0.0,0.0,0.0,0.0,0.0,0.0,0.0,0.0,0.0,0.0,0.0,0.0,0.0,0.0,1.5378,0.0,0.0,0.0,0.0,0.0,0.0,0.0,0.0,0.0,0.0,0.0,0.0,0.0,0.0,0.0669,-0.0112,0.044,0.065,0.0,0.0,-0.0907,-0.0469,-0.0583,-0.0792,0.0,0.0,0.0,0.0,0.0,0.0,0.0,0.0,0.0,0.0,0.0,0.0,0.0,0.0,0.0,0.0,0.0,0.0,0.0,0.0,0.0,0.0,0.0,0.0,0.0,0.0,0.0,0.0,0.0,0.0,0.0,0.0,0.0,0.0,0.0,0.0,0.0,0.0,0.0,0.0,0.0,0.0,0.0,0.0,0.0,0.0,0.0,0.0,0.0,0.0,0.0,0.0,0.0,0.0,0.0,1.6729,1.7115,1.7739,1.8637,1.7587,1.7092,1.7269,1.6407,1.5268,0.0,0.0,0.0,0.0,0.0,0.0,0.0,0.0,0.0,0.0,0.0,0.0,0.0,0.0,0.0,0.0,0.0,0.0,0.0,0.0,0.0,0.0,0.0,0.0,0.0,0.0,0.0,0.0,0.0,0.0,0.0,0.0,0.0,0.0,0.0,0.0,0.0,0.0,0.0,0.0,0.0,0.1119,-0.0616,0.0573,0.1213,0.0,-0.0335,-0.0447,-0.039,-0.0446,-0.0772,-0.1752,0.0,0.0,0.0,0.0,0.0,0.0,0.0,0.0,0.0,0.0,0.0,0.0,0.0,0.0,0.0,0.0,0.0,0.0,0.0,0.0,0.0,0.0,0.0,0.0,0.0,0.0,0.0,0.0,0.0,0.0,0.0,0.0,0.0,0.0,0.0,0.0,0.0,0.0,0.0,0.0,0.0,0.0,0.0,0.0,0.0,0.0,0.0,0.0,0.0,0.0,0.0,0.0,0.0,1.5614,1.6359,1.6688,1.689,1.6935,1.6461,1.6187,1.6177,1.5294,1.47,0.0,0.0,0.0,0.0,0.0,0.0,0.0,0.0,0.0,0.0,0.0,0.0,0.0,0.0,0.0,0.0,0.0,0.0,0.0,0.0,0.0,0.0,0.0,0.0,0.0,0.0,0.0,0.0,0.9119,0.6556,0.3156,0.0,0.0,0.0,0.0,0.0,0.0,0.0,0.0,0.0,0.0,0.0416,-0.0891,0.006,0.0,0.0,-0.0477,-0.0533,-0.0464,-0.0579,-0.0846,-0.1199,-0.1424,0.0,0.0,0.0,0.0,0.0,0.0,0.0,0.0,0.0,0.0,0.0,0.0,0.0,0.0,0.0,0.0,0.0,0.0,0.0,0.0,0.0,0.0,0.0,0.0,0.0,0.0,0.0,0.0,0.0,0.0,0.0,0.0,0.0,0.0,0.0,0.0,0.0,0.0,0.0,0.0,0.0,0.0,0.0,0.0,0.0,0.0,0.0,0.0,0.0,0.0,0.0,0.0,1.5531,1.6486,1.71,1.7166,1.6539,1.63,1.6104,1.5948,1.5294,1.508,0.0,0.0,0.0,0.0,0.0,0.0,0.0,0.0,0.0,0.0,0.0,0.0,0.0,0.0,0.0,0.0,0.0,0.0,0.0,0.0,0.0,0.0,0.0,0.0,0.0,0.0,0.0,0.0,0.6636,0.3828,0.146,0.0,0.0,0.0,0.0,0.0,0.0,0.0,0.0,0.0,0.0,0.0185,-0.0801,-0.0186,0.0124,-0.0617,-0.0857,-0.0906,-0.0886,-0.089,-0.0928,-0.1057,0.0,0.0,0.0,0.0,0.0,0.0,0.0,0.0,0.0,0.0,0.0,0.0,0.0,0.0,0.0,0.0,0.0,0.0,0.0,0.0,0.0,0.0,0.0,0.0,0.0,0.0,0.0,1.1822,0.0,0.0,1.2138,0.0,0.0,0.0,0.0,0.0,0.0,0.0,0.0,0.0,0.0,0.0,0.0,0.0,0.0,0.0,0.0,0.0,0.0,0.0,0.0,0.0,0.0,1.6855,1.7329,1.8534,1.8929,1.8396,1.7745,1.7279,1.7135,1.6883,1.6883,1.7171,0.0,0.0,0.0,0.0,0.0,0.0,0.0,0.0,0.0,0.0,0.0,0.0,0.0,0.0,0.0,0.0,0.0,0.0,0.0,0.0,0.0,0.0,0.0,0.0,0.0,0.0,0.6535,0.3544,0.1725,0.0,0.0,0.0,0.0,0.0,0.0,0.0,0.0,0.0,0.0,0.0473,0.0801,-0.0186,0.0063,-0.0064,-0.1117,-0.1385,-0.1475,-0.1595,-0.127,-0.1147,0.0,0.0,0.0,0.0,0.0,0.0,0.0,0.0,0.0,0.0,0.0,0.0,0.0,0.0,0.0,0.0,0.0,0.0,0.0,0.0,0.0,0.0,0.0,0.0,0.0,0.0,0.0,1.1729,1.1861,0.0,0.0,0.0,0.0,0.0,0.0,0.0,0.0,0.0,0.0,0.0,1.4014,1.4756,0.0,0.0,0.0,0.0,0.0,0.0,0.0,0.0,0.0,0.0,0.0,0.0,1.6244,1.7265,1.8377,1.8554,1.7865,1.801,1.7879,1.7324,1.6905,1.6327,1.5613,0.0,0.0,0.0,0.0,0.0,0.0,0.0,0.0,0.0,0.0,0.0,0.0,0.0,0.0,0.0,0.0,0.0,0.0,0.0,0.0,0.0,0.0,0.0,0.0,0.0,0.6702,0.0,0.0,0.0,0.0,0.0,0.0,0.0,0.0,0.0,0.0,0.0,-0.0341,0.0,0.0252,0.0197,-0.0402,-0.0136,-0.0068,0.0,0.0,0.0,0.0,0.0,0.0,0.0,0.0,0.0,0.0,0.0,0.0,0.0,0.0,-0.277,-0.247,-0.2492,-0.26,-0.2588,0.0,0.0,0.0,0.0,0.0,0.0,0.0,0.0,0.0,0.0,0.0,0.0,0.0,0.0,1.1988,0.0,1.1933,0.0,0.0,0.0,0.0,0.0,0.0,0.0,0.0,1.4336,1.4778,1.476,1.5562,1.5772,0.0,1.5624,1.5499,0.0,0.0,0.0,0.0,0.0,0.0,0.0,0.0,1.7178,1.8134,1.8987,1.9275,1.8958,1.916,1.8942,1.8269,1.7543,1.6695,1.5742,1.6051,1.6083,0.0,0.0,0.0,0.0,0.0,0.0,0.0,0.0,0.0,0.0,0.0,0.0,0.0,0.0,0.0,0.0,0.0,0.0,0.0,0.0,0.0,0.0,0.0,0.4793,0.0,0.0,0.0,0.0,0.0,0.0,0.0,0.0,0.0,-0.1191,-0.0579,0.0,0.0321,0.0135,-0.007,-0.0213,0.0,0.0,0.0,0.0,0.0,0.0,0.0,-0.1049,-0.1594,-0.1766,-0.1869,-0.2074,-0.2433,-0.2736,-0.2919,0.0,0.0,-0.2711,-0.2762,-0.279,-0.2646,-0.3094,-0.3722,-0.4183,-0.4339,-0.4342,0.0,0.0,0.0,0.0,0.0,0.0,0.0,0.0,1.2227,1.2439,0.0,1.1924,0.0,0.0,0.0,0.0,1.1361,1.324,0.0,0.0,1.5157,1.6086,1.6276,1.6576,1.6918,1.7169,1.7171,1.6951,1.6342,1.4886,0.0,0.0,0.0,0.0,0.0,0.0,1.9458,1.9841,2.0414,2.1049,2.1438,2.1049,2.0459,1.9768,1.877,1.7962,1.7606,1.7575,1.7238,1.6509,1.6557,0.0,0.0,0.0,0.0,0.0,0.0,0.0,0.0,0.0,0.0,0.0,0.0,0.0,0.0,0.0,0.0,0.0,0.0,0.0,0.0,0.6256,0.0,0.0,0.0,0.0,0.0,0.0,0.0,0.0,0.0,0.0,-0.1175,-0.0318,0.0397,0.0418,0.0,0.0,0.0,0.0,-0.0875,-0.124,-0.1712,-0.2229,-0.2991,-0.2556,-0.2188,-0.2277,0.0,0.0,-0.1963,-0.2328,-0.2775,-0.3039,-0.3181,-0.3207,-0.3122,-0.3213,-0.317,-0.285,-0.3338,-0.4175,-0.5209,-0.5,-0.4714,1.2673,0.0,0.0,0.0,0.0,1.1519,1.2052,1.3114,1.3015,1.2764,1.2425,1.2539,0.0,0.0,0.0,0.0,0.0,0.0,1.3447,1.3865,1.5004,1.5752,1.6075,1.7081,1.7396,1.7106,1.7698,1.762,1.6963,1.7071,1.6745,1.6035,0.0,0.0,0.0,0.0,1.8663,1.9801,2.057,2.0914,2.0875,2.1223,2.0892,1.9793,1.8959,1.816,1.7422,1.7795,1.7483,1.6363,1.6051,0.0,0.0,0.0,0.0,0.0,0.0,0.0,0.0,0.0,0.0,0.0,0.0,0.0,0.0,0.0,0.0,0.0,0.0,0.0,0.496,0.4215,0.33,0.0,0.0,0.0,0.0,0.0,0.0,0.0,0.0,0.0,-0.0922,-0.0279,0.0139,0.0,0.0,-0.0367,-0.0298,-0.0075,-0.0075,-0.0536,-0.0076,0.0,-0.2032,-0.1905,-0.1734,-0.2054,-0.1994,-0.1988,-0.2614,-0.2951,-0.3239,-0.3371,-0.3403,-0.3432,-0.3456,-0.3313,-0.323,-0.3154,-0.3552,-0.4369,-0.5329,-0.53,-0.5023,1.5116,1.4227,1.3536,1.3075,1.2656,1.2531,1.2711,1.3157,1.3348,1.3212,1.2688,1.2972,1.2476,1.1455,1.1636,0.0,0.0,0.0,1.3476,1.4097,1.4608,1.5492,1.6511,1.7389,1.7812,1.7945,1.884,1.8997,1.8458,1.9208,1.9249,1.8546,0.0,0.0,1.9341,1.9456,1.989,2.0742,2.1254,2.1388,2.1254,2.1428,2.1197,2.0588,1.9789,1.8869,1.7739,1.8225,1.801,1.6991,1.649,1.5984,0.0,0.0,0.0,0.0,0.0,0.0,0.0,0.0,0.0,0.0,0.0,1.4236,1.0657,0.0,0.0,0.0,0.5969,0.5337,0.4788,0.4451,0.0,0.0,0.0,0.0,0.0,0.0,0.0,-0.0792,0.014,0.0518,-0.0155,0.0,0.0,-0.0225,-0.0451,-0.053,-0.031,0.0,-0.0471,-0.0802,-0.0563,-0.0882,-0.2466,-0.2402,-0.2218,-0.2265,-0.2537,-0.2825,-0.3026,-0.3341,-0.3599,-0.3642,-0.3658,-0.3665,-0.3677,-0.3544,-0.3438,-0.3458,-0.3869,-0.4578,-0.5396,-0.546,-0.5425,1.7698,1.7058,1.5498,1.4084,1.3037,1.3874,1.3294,1.1924,1.3475,1.3629,1.2834,1.3294,1.2973,1.2138,1.2482,0.0,1.2664,1.3318,1.3774,1.4134,1.4204,1.5317,1.7307,1.7532,1.8169,1.9195,2.0267,2.0684,2.05,2.1114,2.1652,2.2132,2.1344,2.1158,2.1655,2.2201,2.2486,2.2294,2.2332,2.2296,2.2197,2.1729,2.1558,2.1722,2.0979,1.9865,1.8452,1.8744,1.8694,1.8008,1.7506,1.6859,1.5989,0.0,0.0,0.0,0.0,0.0,0.0,0.0,0.0,0.0,0.0,0.0,0.0,0.0,0.0,0.0,0.7729,0.0,0.6684,0.6095,0.0,0.0,0.0,0.1284,0.0772,0.0726,0.0424,-0.0353,0.0,0.0,0.0898,0.0333,0.0,0.0,-0.0395,-0.0398,0.0244,-0.057,-0.1394,-0.1501,-0.2178,-0.2999,-0.3594,-0.3574,-0.3224,-0.2859,-0.3333,-0.3663,-0.3463,-0.3643,-0.3895,-0.3899,-0.3903,-0.3877,-0.3799,-0.3765,-0.3814,-0.3798,-0.4164,-0.4769,-0.5529,-0.5657,-0.5709,1.8324,1.871,1.8033,1.6703,1.5046,1.4762,1.4388,1.4029,1.3945,1.3729,1.3354,1.3491,1.344,1.3155,1.3539,1.3658,1.3682,1.4082,1.4343,1.4486,1.515,1.5764,1.6305,1.7622,1.834,1.8599,2.0042,2.0613,2.0389,2.1729,2.2444,2.25,2.2888,2.2695,2.2039,2.2959,2.3457,2.3409,2.3541,2.3108,2.2247,2.2112,2.2097,2.2143,2.0827,1.9887,1.9432,1.9183,1.8484,1.7183,1.6897,1.6457,1.5813,1.4507,0.0,0.0,0.0,0.0,0.0,0.0,0.0,0.0,0.0,1.3951,1.0704,0.0,0.7521,0.0,0.8718,0.7322,0.5841,0.5592,0.0,0.0,0.2967,0.1715,0.2414,0.1487,0.1001,0.1566,0.1628,0.1418,0.0834,0.0335,-0.0084,-0.0249,-0.0497,-0.0415,0.025,-0.0334,-0.0919,-0.1006,-0.1682,-0.2684,-0.376,-0.392,-0.3829,-0.3725,-0.387,-0.3959,-0.3829,-0.386,-0.392,-0.3981,-0.3944,-0.3922,-0.3959,-0.4023,-0.4001,-0.3885,-0.4112,-0.4815,-0.5902,-0.5815,-0.5582,1.9182,1.9577,1.9531,1.8896,1.7763,1.6566,1.5731,1.5211,1.4513,1.4185,1.4103,1.3942,1.378,1.3787,1.4114,1.4201,1.4293,1.4834,1.5057,1.5057,1.5964,1.6657,1.7209,1.8188,1.8892,1.9383,2.0642,2.1157,2.1073,2.2566,2.3352,2.3293,2.4091,2.4166,2.3561,2.4013,2.4561,2.5046,2.4912,2.4512,2.3841,2.3641,2.3347,2.3072,2.2196,2.1088,1.9775,2.0004,1.9337,1.7599,1.7562,1.7217,1.6328,1.6127,1.5353,0.0,0.0,0.0,0.0,0.0,0.0,0.0,0.0,0.0,0.0,0.0,0.8286,0.8419,0.804,0.7511,0.687,0.6772,0.6601,0.6149,0.4549,0.3417,0.3139,0.2317,0.181,0.2145,0.1783,0.1385,0.0779,0.0173,-0.0173,-0.0173,-0.0437,-0.0436,0.0171,-0.0341,-0.0942,-0.1207,-0.1815,-0.2682,-0.398,-0.412,-0.4097,-0.4097,-0.4095,-0.4097,-0.4097,-0.4089,-0.4083,-0.4091,-0.4055,-0.4022,-0.403,-0.4125,-0.4205,-0.4114,-0.4325,-0.4899,-0.581,-0.5921,-0.5904,2.0008,2.0035,2.0374,2.0521,2.0345,1.8647,1.7318,1.6162,1.538,1.508,1.5238,1.4843,1.4692,1.4684,1.4937,1.5001,1.4963,1.5756,1.6036,1.6081,1.6894,1.7879,1.8839,1.8994,1.9578,2.0644,2.1558,2.2008,2.2008,2.3568,2.4281,2.4212,2.5099,2.5584,2.5545,2.5357,2.573,2.6673,2.6327,2.6033,2.5909,2.5369,2.4779,2.416,2.3962,2.2706,2.022,2.0926,2.0526,1.8768,1.8821,1.8395,1.7217,1.8223,1.8138,0.0,1.6502,0.0,0.0,0.0,0.0,0.0,0.0,0.0,0.0,1.0166,0.8507,0.6303,0.7065,0.7965,0.8756,0.8859,0.8327,0.7021,0.6354,0.5194,0.3192,0.2769,0.2509,0.2125,0.1758,0.1351,0.09,0.018,-0.0181,-0.0091,-0.0367,-0.0366,0.0178,-0.0264,-0.097,-0.1431,-0.2058,-0.2852,-0.4009,-0.423,-0.4187,-0.4187,-0.4187,-0.41,-0.4189,-0.4242,-0.4269,-0.4206,-0.4185,-0.4161,-0.4081,-0.4316,-0.4466,-0.4541,-0.4714,-0.5071,-0.5508,-0.5877,-0.6254,2.0411,2.0411,2.0484,2.0521,2.0493,2.0107,1.9445,1.8448,1.6823,1.6659,1.7596,1.7697,1.779,1.779,1.779,1.7644,1.7391,1.7979,1.8121,1.7845,1.8545,1.8976,1.9221,1.9897,2.0366,2.0679,2.215,2.2964,2.2964,2.4592,2.5153,2.4802,2.6142,2.6924,2.7082,0.0,0.0,0.0,2.709,2.6818,2.5924,2.5794,2.5459,2.482,2.383,0.0,2.1854,2.117,2.0583,2.0195,1.9386,0.0,0.0,0.0,0.0,0.0,0.0,0.0,0.0,0.0,0.0,0.0,2.1298,1.8165,1.2437,1.0315,0.8456,0.6604,0.8526,0.9891,0.9694,1.0484,0.9797,0.6798,0.5684,0.4346,0.2045,0.1576,0.178,0.2665,0.2357,0.184,0.1381,0.0653,0.0188,0.0,-0.0378,-0.0284,0.0469,0.0184,0.0,0.0269,-0.1163,-0.2865,-0.4119,-0.4281,-0.4267,-0.4275,-0.4273,-0.4273,-0.4273,-0.4281,-0.4297,-0.4271,-0.4277,-0.436,-0.4513,-0.4631,-0.4827,-0.5087,-0.5249,-0.5372,-0.5545,-0.5771,-0.5954,2.0805,2.0824,2.1034,2.1117,0.0,2.0622,2.0438,2.0289,1.858,1.7905,1.8086,1.8259,1.844,1.844,1.8535,1.8521,1.8362,1.905,1.9288,1.9123,1.9982,2.0418,2.0409,2.0941,2.1275,2.1275,2.2574,2.3213,2.3293,2.4871,2.5597,2.5332,2.6478,2.7304,2.778,2.8512,2.8624,2.8162,2.8414,2.814,2.7353,2.7281,2.6675,2.5524,2.5127,0.0,0.0,0.0,0.0,0.0,0.0,0.0,0.0,1.9922,0.0,1.8068,1.9329,2.0907,2.2472,2.3093,2.343,2.355,2.1283,1.7705,1.2819,1.1188,0.9842,0.8503,1.0098,1.1071,1.0701,1.1462,1.0959,0.8362,0.7631,0.6189,0.3507,0.3282,0.3413,0.2912,0.2757,0.2505,0.2251,0.1136,0.0477,0.0382,0.0,-0.0096,0.0572,0.0656,0.0642,0.0539,-0.0894,-0.2597,-0.3674,-0.4214,-0.4302,-0.43,-0.4297,-0.4297,-0.4297,-0.4297,-0.4297,-0.4297,-0.4297,-0.4389,-0.4656,-0.4793,-0.502,-0.5275,-0.5454,-0.5698,-0.5954,-0.6094,-0.6301,2.1218,2.1245,2.1594,2.1731,2.1642,2.0879,2.096,2.1596,2.0227,0.0,0.0,1.8709,1.8787,1.8787,1.9073,1.9134,1.9075,1.9918,2.026,2.0198,2.1212,2.1755,2.1923,2.209,2.234,2.2589,2.3391,2.3858,2.3939,2.5599,2.634,2.6335,2.7182,2.8013,2.871,2.9324,2.9767,2.9919,2.9687,2.9352,2.8886,2.8759,2.79,2.6288,2.6596,2.5813,2.3687,2.3509,2.3065,2.2161,2.1893,2.1286,2.0476,2.2377,2.2951,2.1746,2.3995,2.5319,2.517,2.6247,2.6505,2.5531,2.1788,1.7744,1.3583,1.2242,1.1415,1.0906,1.1511,1.1745,1.149,1.1988,1.1677,0.9922,0.9786,0.84,0.5225,0.551,0.5473,0.3934,0.3498,0.3351,0.3506,0.191,0.0864,0.1156,0.0684,0.0294,0.0673,0.1128,0.1103,0.0271,-0.0629,-0.17,-0.2956,-0.3767,-0.4125,-0.4121,-0.421,-0.4297,-0.4297,-0.4297,-0.4297,-0.4297,-0.4297,-0.4478,-0.4656,-0.4919,-0.5102,-0.5371,-0.5558,-0.5832,-0.6263,-0.6623,-0.6736,2.164,2.1658,2.1713,2.1731,2.1731,2.1562,2.1562,2.1642,2.1425,2.1291,2.1203,2.1203,2.1203,2.1203,2.1203,2.1101,2.0793,2.1489,2.1636,2.1312,2.1926,2.2689,2.3448,2.3533,2.4036,2.5039,2.5859,2.6456,2.6793,2.8276,2.8922,2.865,2.9868,3.0726,3.1017,3.1124,3.1188,3.1218,3.0121,2.949,2.949,2.897,2.8307,2.7475,2.7067,2.6175,2.4844,2.4354,2.4008,2.3752,2.3307,2.2746,2.2181,2.3599,2.3532,2.1636,2.3908,2.5549,2.5746,2.8201,2.9906,3.0076,2.7012,2.2009,1.5171,1.2872,1.2348,1.3097,1.251,1.1698,1.1657,1.2035,1.1601,0.9971,0.9411,0.8471,0.6546,0.6555,0.6492,0.5922,0.5013,0.4734,0.4913,0.3367,0.2444,0.2975,0.1888,0.0698,0.0977,0.1798,0.1943,0.0734,0.0362,-0.0358,-0.1789,-0.2956,-0.3587,-0.3676,-0.4032,-0.421,-0.421,-0.4297,-0.4297,-0.4297,-0.4478,-0.4659,-0.4924,-0.5191,-0.5371,-0.5549,-0.5697,-0.586,-0.6301,-0.6724,-0.6903,2.1731,2.1731,2.1731,2.1651,2.1562,2.1374,2.1293,2.1311,2.1293,2.1463,2.1731,2.1731,2.1731,2.1731,2.1731,2.1887,2.2216,2.2503,2.2834,2.3186,2.3537,2.3887,2.4317,2.4498,2.4829,2.5348,2.6246,2.6753,2.708,2.853,2.9269,2.9416,3.0884,3.17,3.1833,3.2249,3.2328,3.1977,3.0731,3.004,3.0094,2.9504,2.889,2.8296,2.7966,2.7435,2.6519,2.5952,2.5605,2.5556,2.5006,2.4583,2.4354,2.5278,2.5445,2.4747,2.6491,2.7648,2.7657,2.9762,3.1438,3.2212,3.0377,2.7464,2.3339,1.8854,1.6043,1.5397,1.5188,1.4967,1.4379,1.3995,1.3387,1.2427,1.1423,1.0053,0.8645,0.874,0.8528,0.7296,0.6837,0.6569,0.633,0.4968,0.405,0.4382,0.2753,0.1588,0.1592,0.1848,0.1892,0.1206,0.0641,0.0,-0.0897,-0.206,-0.2869,-0.3136,-0.3585,-0.3855,-0.3944,-0.4121,-0.4297,-0.4297,-0.448,-0.4748,-0.4921,-0.5191,-0.5463,-0.5641,-0.5722,-0.5894,-0.634,-0.6789,-0.7007,2.2078,2.2176,2.2087,2.1848,2.1536,2.1105,2.1024,2.0978,2.1015,2.1177,2.1553,2.1562,2.1731,2.19,2.1731,2.2334,2.328,2.3183,2.3617,2.4498,2.4669,2.4829,2.4999,2.5263,2.5443,2.5779,2.6528,2.701,2.7244,2.8542,2.9626,3.0317,3.1489,3.216,3.2245,3.286,3.3017,3.2567,3.1513,3.0881,3.0726,3.0136,2.9588,2.9153,2.897,2.8605,2.8001,2.7495,2.7115,2.6889,2.6512,2.6315,2.637,2.6863,2.7285,2.7588,2.8739,2.9606,2.9883,3.1021,3.2429,3.3871,3.2948,3.1926,3.0697,2.5909,2.1337,1.8854,1.8117,1.7548,1.6587,1.5934,1.5374,1.5065,1.3497,1.2049,1.0979,1.1101,1.0656,0.8941,0.8527,0.8155,0.766,0.6491,0.5581,0.4977,0.3871,0.3052,0.2602,0.1988,0.1847,0.1608,0.0931,0.0184,-0.0181,-0.1347,-0.2154,-0.2599,-0.3138,-0.3406,-0.3587,-0.3944,-0.421,-0.43,-0.4567,-0.4835,-0.501,-0.528,-0.5463,-0.5641,-0.5719,-0.5885,-0.6517,-0.6874,-0.7139,2.3212,2.3551,2.3047,2.2634,2.1961,2.1338,2.1024,2.1059,2.1015,2.0997,2.1177,2.1293,2.19,2.2482,2.198,2.2677,2.4155,2.3531,2.3617,2.4488,2.4488,2.4914,2.5663,2.5746,2.6246,2.7185,2.7857,2.795,2.7869,2.9704,3.1084,3.1823,3.2042,3.2259,3.2632,3.2717,3.2889,3.3157,3.2581,3.1963,3.1401,3.0769,3.0403,3.0361,2.9799,2.9237,2.8633,2.8549,2.8134,2.7294,2.746,2.7637,2.7711,2.8083,2.8038,2.7631,2.8867,3.0264,3.1556,3.1951,3.3224,3.5661,3.486,3.4199,3.4167,3.1914,2.8514,2.4329,2.0168,1.8346,1.6944,1.6685,1.6644,1.679,1.5004,1.3898,1.4099,1.2917,1.1849,1.1682,1.0313,0.9411,0.9692,0.8015,0.6363,0.5968,0.5726,0.491,0.3501,0.2708,0.2487,0.2141,0.1517,0.0834,0.0368,-0.0907,-0.1627,-0.1891,-0.2515,-0.2973,-0.3342,-0.3514,-0.3767,-0.4146,-0.4656,-0.4921,-0.5099,-0.5371,-0.5644,-0.5733,-0.5811,-0.5977,-0.6782,-0.7051,-0.7139,2.2344,2.2129,2.2432,2.2489,2.2466,2.2008,2.1802,2.1811,2.1793,2.1784,2.1872,2.2078,2.2078,2.1784,2.2138,2.3018,2.4231,2.4553,2.5242,2.603,2.6113,2.6279,2.6622,2.661,2.6869,2.7301,2.7626,2.7962,2.8498,3.0024,3.1233,3.1776,3.1982,3.22,3.2345,3.2345,3.2561,3.2931,3.2695,3.2584,3.2497,3.1597,3.0909,3.0544,3.0277,2.9855,2.9307,2.9237,2.8926,2.8429,2.8661,2.8661,2.8326,2.8647,2.8717,2.8644,2.9754,3.1319,3.3089,3.3292,3.4024,3.5789,3.6077,3.6203,3.6163,3.4832,3.2877,3.0609,2.7346,2.5173,2.4465,2.2296,2.0752,2.0409,1.8093,1.643,1.663,1.6047,1.529,1.4426,1.3155,1.1821,1.1004,0.9446,0.8162,0.753,0.7145,0.6279,0.5198,0.3817,0.2906,0.2584,0.1751,0.1335,0.1508,0.0187,-0.0651,-0.065,-0.1394,-0.2326,-0.2598,-0.3217,-0.3655,-0.3833,-0.4428,-0.4844,-0.501,-0.528,-0.5552,-0.5641,-0.5991,-0.6337,-0.6962,-0.7139,-0.7143,2.252,2.2227,2.2432,2.2715,2.2969,2.2589,2.2394,2.2394,2.2394,2.2394,2.2403,2.2599,2.2246,2.1606,2.2394,2.3531,2.4734,2.5326,2.6185,2.7149,2.7231,2.7149,2.7231,2.7383,2.7464,2.7464,2.7696,2.8167,2.8961,3.0024,3.0947,3.1408,3.1703,3.185,3.1982,3.1982,3.2128,3.2489,3.2632,3.286,3.2961,3.2386,3.1601,3.0946,3.0802,3.0507,3.0009,3.0059,2.9931,2.9532,2.9981,3.0031,2.9504,2.9633,2.9692,2.9736,3.0294,3.146,3.3275,3.3453,3.4088,3.5496,3.6525,3.7217,3.7453,3.7226,3.6746,3.593,3.4588,3.3012,3.0129,2.7748,2.6043,2.5309,2.2377,2.0489,2.0652,1.9816,1.8502,1.7721,1.6025,1.4229,1.247,1.1043,1.0063,0.9694,0.8775,0.7547,0.679,0.5018,0.3715,0.3116,0.1792,0.1473,0.212,0.0857,0.0095,0.0,-0.076,-0.1616,-0.1717,-0.2632,-0.343,-0.3502,-0.4188,-0.4687,-0.4839,-0.5104,-0.546,-0.5727,-0.5991,-0.6432,-0.6969,-0.7054,-0.7166,2.4615,2.4775,2.3841,2.3416,2.3416,2.2755,2.2492,2.258,2.2482,2.2482,2.2482,2.2492,2.2403,2.2394,2.295,2.4241,2.6019,2.5611,2.5957,2.7056,2.7231,2.7231,2.7219,2.7869,2.8099,2.8099,2.8554,2.9172,2.9806,3.0037,3.0343,3.0986,3.1136,3.1272,3.1556,3.1629,3.1776,3.2128,3.2417,3.2704,3.2775,3.3017,3.264,3.182,3.1523,3.1254,3.0904,3.116,3.1093,3.0324,3.1208,3.1681,3.1378,3.1218,3.0951,3.0658,3.0202,3.048,3.1516,3.1905,3.3027,3.5315,3.6038,3.6802,3.8252,3.9352,3.9616,3.9192,3.9832,3.8016,3.2917,3.1717,3.1029,3.0191,2.8075,2.6814,2.6993,2.3624,2.1689,2.1121,1.8607,1.5995,1.4435,1.2893,1.2189,1.1703,1.0853,0.9216,0.7378,0.6418,0.522,0.3423,0.2213,0.1503,0.1082,0.0486,0.0096,0.0288,0.0097,-0.1054,-0.1527,-0.209,-0.254,-0.3258,-0.397,-0.4476,-0.4685,-0.5013,-0.5369,-0.5725,-0.5905,-0.6349,-0.6792,-0.6884,-0.7015,2.3927,2.409,2.3677,2.3764,2.411,2.382,2.3744,2.3744,2.3734,2.3744,2.3734,2.3734,2.3734,2.3734,2.3917,2.4337,2.4978,2.5684,2.6279,2.6798,2.7056,2.7231,2.7231,2.7464,2.7777,2.8167,2.8395,2.9028,2.996,3.0432,3.0748,3.0911,3.0986,3.1061,3.1198,3.1198,3.1421,3.1776,3.1909,3.2403,3.303,3.2775,3.2508,3.2471,3.222,3.1744,3.0908,3.1271,3.1124,3.0433,3.0976,3.1149,3.0812,3.04,3.0387,3.0563,2.9721,2.9652,3.0878,3.1485,3.2139,3.3221,3.5328,3.6726,3.7707,3.914,4.019,4.0439,4.1207,4.032,3.8963,3.7077,3.6028,3.5421,3.2766,3.0819,3.0358,2.837,2.6181,2.428,2.098,1.7806,1.6118,1.4495,1.3546,1.2918,1.1838,1.0595,0.9571,0.8407,0.6813,0.5222,0.3924,0.2816,0.1705,0.0996,0.0693,0.1286,0.1286,0.0396,-0.0197,-0.0974,-0.1542,-0.2651,-0.3561,-0.4229,-0.4523,-0.5032,-0.5384,-0.5741,-0.5922,-0.6227,-0.6435,-0.6697,-0.7031,2.3981,2.3861,2.3851,2.411,2.4464,2.455,2.455,2.455,2.455,2.455,2.455,2.455,2.455,2.455,2.455,2.4444,2.4327,2.5516,2.6196,2.6528,2.6798,2.7056,2.7219,2.7394,2.7846,2.8486,2.8949,2.9496,2.996,3.0672,3.0986,3.0986,3.0986,3.0986,3.0986,3.0986,3.1123,3.1421,3.1556,3.2042,3.2733,3.2618,3.2475,3.2478,3.2598,3.2165,3.1103,3.146,3.1392,3.0842,3.1172,3.1323,3.0978,3.0664,3.0488,3.0602,3.0185,3.0066,3.076,3.1523,3.2152,3.2647,3.4634,3.6296,3.7084,3.8794,3.9878,4.0375,4.1476,4.2316,4.2467,4.1265,4.0217,3.9697,3.7343,3.5639,3.53,3.3208,3.0269,2.7176,2.3867,2.1021,1.9041,1.7056,1.5596,1.4534,1.32,1.2145,1.0881,0.969,0.8103,0.6819,0.5522,0.4325,0.3316,0.2603,0.1402,0.1703,0.2204,0.1511,0.0805,0.0099,-0.0785,-0.2023,-0.2928,-0.3694,-0.4371,-0.4973,-0.5417,-0.5692,-0.5943,-0.619,-0.645,-0.674,-0.6993,2.4887,2.4526,2.4464,2.4475,2.455,2.455,2.455,2.455,2.455,2.455,2.455,2.455,2.455,2.455,2.455,2.454,2.47,2.5126,2.5695,2.6445,2.6528,2.6787,2.7313,2.7857,2.8486,2.9172,3.0355,3.0596,3.019,3.0672,3.0986,3.0986,3.0986,3.0986,3.0986,3.0986,3.0986,3.1136,3.1347,3.1629,3.1703,3.2561,3.2561,3.1982,3.2563,3.2415,3.1232,3.1734,3.182,3.1382,3.2091,3.2434,3.1946,3.1958,3.1806,3.1075,3.1664,3.1718,3.1105,3.1754,3.2767,3.373,3.4475,3.5486,3.6974,3.8705,3.9704,3.9764,4.1112,4.2741,4.3586,4.3577,4.3149,4.2546,4.1392,4.0933,4.0341,3.7936,3.4105,3.0117,2.718,2.5495,2.3887,2.0844,1.8117,1.6793,1.5158,1.3284,1.1536,1.0654,0.9387,0.7809,0.6915,0.6218,0.522,0.4221,0.2919,0.2017,0.2421,0.2324,0.1513,0.07,-0.0297,-0.1462,-0.2772,-0.3557,-0.4154,-0.4776,-0.5165,-0.546,-0.5808,-0.6125,-0.6494,-0.6783,-0.7064,2.542,2.5037,2.5016,2.483,2.4571,2.455,2.455,2.455,2.455,2.455,2.455,2.455,2.455,2.455,2.454,2.4861,2.5337,2.5031,2.5211,2.6041,2.6373,2.7021,2.7777,2.8099,2.8712,2.9716,3.0583,3.0898,3.0748,3.0898,3.0986,3.0986,3.0986,3.0986,3.0986,3.0986,3.0986,3.0986,3.1136,3.1468,3.2028,3.1836,3.1836,3.2101,3.1896,3.1349,3.09,3.1874,3.2164,3.1481,3.196,3.201,3.1544,3.1512,3.164,3.1738,3.0788,3.0971,3.1811,3.1759,3.2078,3.3092,3.4322,3.5347,3.6091,3.7648,3.9074,3.9898,4.1102,4.2175,4.3792,4.434,4.4242,4.4317,4.3487,4.2862,4.2333,3.9757,3.6583,3.3586,3.1583,2.9236,2.605,2.2952,2.1244,1.9141,1.7309,1.5429,1.4112,1.278,1.1536,0.9579,0.889,0.8004,0.681,0.5617,0.4422,0.2919,0.2623,0.2628,0.1917,0.1409,0.0299,-0.0984,-0.222,-0.3328,-0.3941,-0.4402,-0.4893,-0.5284,-0.5603,-0.6,-0.6573,-0.6825,-0.7106,2.5875,2.5461,2.5295,2.5068,2.4778,2.4537,2.455,2.455,2.455,2.47,2.4861,2.4625,2.47,2.4861,2.4615,2.502,2.5663,2.5189,2.5622,2.6373,2.6302,2.6857,2.7995,2.8633,2.9184,2.996,3.0672,3.0986,3.0986,3.0986,3.0986,3.0986,3.0986,3.0986,3.0986,3.0986,3.0986,3.0986,3.0986,3.1272,3.1676,3.1603,3.1529,3.1809,3.1542,3.1356,3.1267,3.1938,3.196,3.1402,3.1496,3.1489,3.1082,3.1388,3.1763,3.1969,3.1749,3.1626,3.2295,3.2414,3.2374,3.2911,3.3941,3.4916,3.5483,3.6625,3.7786,3.9143,4.0147,4.1225,4.2737,4.3633,4.4145,4.4828,4.443,4.385,4.3158,4.1397,3.933,3.6987,3.4785,3.2095,2.9471,2.6565,2.4545,2.1867,2.0052,1.8003,1.6729,1.4988,1.3358,1.1823,1.0769,0.9682,0.8297,0.7009,0.5817,0.4219,0.2719,0.2521,0.2118,0.1914,0.1201,-0.0296,-0.1648,-0.2881,-0.3607,-0.4115,-0.4524,-0.4914,-0.541,-0.5948,-0.6474,-0.6778,-0.7036,2.6341,2.5885,2.5482,2.5295,2.515,2.4702,2.4602,2.455,2.455,2.4861,2.5348,2.4775,2.4946,2.5421,2.502,2.5263,2.583,2.5746,2.6412,2.708,2.6775,2.6693,2.7959,2.9316,3.0037,3.0203,3.0748,3.0986,3.0986,3.0986,3.0986,3.0986,3.0986,3.0986,3.0986,3.0986,3.0986,3.0986,3.0986,3.1061,3.1123,3.1603,3.1663,3.1123,3.1603,3.1928,3.196,3.1856,3.1462,3.0844,3.1035,3.111,3.1172,3.1663,3.192,3.214,3.3366,3.3044,3.2722,3.2875,3.3377,3.3014,3.3239,3.3786,3.4985,3.5672,3.6535,3.7641,3.8877,4.0109,4.1261,4.2219,4.3277,4.4275,4.478,4.4533,4.3538,4.2829,4.1613,3.9915,3.7245,3.4558,3.3434,3.0454,2.7633,2.4753,2.3117,2.0961,1.8629,1.7015,1.5556,1.4136,1.2802,1.1648,1.0356,0.8689,0.7601,0.6913,0.4918,0.3522,0.2822,0.2417,0.1811,0.0396,-0.0588,-0.194,-0.2905,-0.3124,-0.4023,-0.4912,-0.5445,-0.6016,-0.6429,-0.6606,-0.6895,2.6806,2.6382,2.6258,2.5834,2.5275,2.5088,2.485,2.4571,2.455,2.4615,2.4775,2.4625,2.502,2.5746,2.5589,2.6329,2.7139,2.64,2.673,2.7891,2.694,2.7487,2.8991,3.019,3.0748,3.0748,3.0911,3.0986,3.0986,3.0986,3.0986,3.0986,3.0986,3.0986,3.0986,3.0986,3.0986,3.0986,3.0986,3.0986,3.1061,3.1198,3.1198,3.1048,3.1198,3.1589,3.2015,3.2015,3.1783,3.1369,3.1106,3.0986,3.1061,3.1185,3.1529,3.2087,3.1955,3.2331,3.2701,3.2372,3.2132,3.2423,3.2947,3.338,3.3801,3.5443,3.6689,3.7867,3.8974,4.0178,4.1605,4.2343,4.3118,4.4214,4.4903,4.4995,4.4335,4.4113,4.3412,4.1369,3.977,3.7544,3.4816,3.2894,3.05,2.7387,2.5276,2.3604,2.128,1.924,1.7795,1.6028,1.4613,1.3578,1.2323,1.0663,0.9587,0.9509,0.7713,0.5322,0.4225,0.3222,0.2314,0.1001,0.0996,0.0,-0.0793,-0.1297,-0.2796,-0.4484,-0.4906,-0.5236,-0.6039,-0.6531,-0.6722,2.7979,2.7193,2.7193,2.6769,2.6034,2.5482,2.4964,2.4602,2.455,2.47,2.4935,2.502,2.5505,2.6318,2.6318,2.7139,2.8211,2.7383,2.7799,2.8712,2.8383,2.8688,2.9716,3.0583,3.0986,3.0986,3.0986,3.0986,3.0986,3.0986,3.0986,3.0986,3.0986,3.0986,3.0986,3.0986,3.0986,3.0986,3.0986,3.0986,3.0986,3.0986,3.0986,3.0986,3.1061,3.1334,3.2015,3.2087,3.2028,3.175,3.1334,3.0986,3.0986,3.0911,3.1259,3.2015,3.1603,3.1809,3.2506,3.2362,3.2304,3.229,3.2791,3.3269,3.3739,3.4817,3.5776,3.7243,3.8339,3.9632,4.0889,4.1889,4.2887,4.3801,4.4649,4.5029,4.4803,4.4705,4.3991,4.263,4.1375,3.9761,3.6057,3.5178,3.2996,3.0157,2.7822,2.5946,2.389,2.1901,2.0017,1.8241,1.6678,1.5644,1.4613,1.316,1.1225,1.1053,0.9813,0.7419,0.5622,0.4223,0.2918,0.2212,0.2215,0.2014,0.1006,-0.0201,-0.2108,-0.341,-0.3825,-0.4533,-0.5336,-0.5536,-0.5932,2.9297,2.8006,2.8006,2.7821,2.7239,2.6083,2.5388,2.4924,2.4956,2.5263,2.5746,2.5819,2.6318,2.7221,2.7069,2.7649,2.8633,2.8371,2.8791,2.9365,2.9599,2.9896,2.9871,3.0596,3.0911,3.0986,3.0986,3.0986,3.0986,3.0986,3.0986,3.0986,3.0986,3.0986,3.0986,3.0986,3.0986,3.0986,3.0986,3.0986,3.0986,3.0986,3.0986,3.1061,3.1185,3.1468,3.1942,3.2232,3.2232,3.2087,3.1394,3.1061,3.0986,3.0773,3.1048,3.1589,3.1589,3.1663,3.2001,3.2847,3.3269,3.242,3.2791,3.3478,3.4027,3.4298,3.4934,3.6508,3.7578,3.8797,3.9849,4.1341,4.2531,4.3332,4.4177,4.4794,4.5137,4.496,4.4471,4.377,4.2571,4.0782,3.89,3.7292,3.575,3.2332,3.0144,2.7913,2.592,2.3886,2.2095,2.0326,1.8959,1.7787,1.6764,1.5644,1.3622,1.2287,1.1086,0.9213,0.7015,0.5518,0.4019,0.332,0.3721,0.3318,0.2211,0.0703,-0.0803,-0.181,-0.2011,-0.3218,-0.4327,-0.4225,-0.4423,2.8733,2.8358,2.837,2.8173,2.768,2.7363,2.6954,2.6505,2.6494,2.6494,2.6648,2.6152,2.6801,2.8131,2.7649,2.7971,2.9209,2.887,2.8633,2.887,2.9908,3.0292,3.0279,3.0609,3.0836,3.0986,3.0986,3.0986,3.0986,3.0986,3.0986,3.0986,3.0986,3.0986,3.0986,3.0986,3.0986,3.0986,3.0986,3.0986,3.0986,3.0986,3.0986,3.1061,3.1468,3.1882,3.216,3.2648,3.2648,3.2087,3.1468,3.0986,3.0836,3.0698,3.0761,3.081,3.096,3.0973,3.111,3.1616,3.1882,3.2146,3.2662,3.3492,3.4312,3.5044,3.5627,3.6585,3.7557,3.8701,4.0148,4.1323,4.2266,4.2959,4.3652,4.4224,4.4717,4.5273,4.5131,4.4424,4.3723,4.2538,4.0383,3.8558,3.6707,3.4419,3.2148,2.9897,2.7814,2.5749,2.4077,2.2436,2.1309,2.0138,1.8967,1.7687,1.5819,1.4005,1.2711,1.1487,0.928,0.7108,0.5712,0.532,0.5325,0.462,0.3915,0.3412,0.2305,0.1003,-0.0301,-0.1306,-0.211,-0.2412,-0.2917,2.9438,2.8914,2.9063,2.896,2.8467,2.7992,2.7538,2.7126,2.7139,2.7139,2.7139,2.6976,2.7626,2.8474,2.8462,2.8961,2.9456,2.9378,2.9118,2.9275,2.9831,3.0152,3.0305,3.0457,3.0672,3.0986,3.0986,3.0986,3.0986,3.0986,3.0986,3.0986,3.0986,3.0986,3.0986,3.0986,3.0986,3.0986,3.0986,3.0986,3.0986,3.0986,3.0986,3.1061,3.1394,3.175,3.2087,3.2448,3.2648,3.2448,3.1809,3.1185,3.0761,3.0609,3.0533,3.0444,3.0381,3.0546,3.0685,3.1048,3.132,3.1455,3.2101,3.2733,3.3422,3.4298,3.524,3.6087,3.6995,3.8028,3.9817,4.0949,4.1707,4.2364,4.3087,4.3615,4.4168,4.5061,4.5493,4.4883,4.4498,4.3061,4.1373,3.9778,3.7994,3.5861,3.3095,3.0877,2.958,2.7599,2.6052,2.4629,2.3624,2.2484,2.115,1.962,1.781,1.6209,1.481,1.3584,1.2012,0.9759,0.7707,0.7313,0.6822,0.6731,0.6022,0.5617,0.4712,0.2907,0.1504,0.0803,0.0,-0.0804,-0.1408,3.0468,2.9415,2.9794,2.9709,2.9253,2.8527,2.7953,2.7603,2.7476,2.773,2.7557,2.8303,2.845,2.8791,2.9209,2.9546,2.9792,2.9779,2.9624,2.9702,2.9856,3.0011,3.0152,3.0368,3.0596,3.0911,3.0986,3.0986,3.0986,3.0986,3.0986,3.0986,3.0986,3.0986,3.0986,3.0986,3.0986,3.0986,3.0986,3.0986,3.0986,3.0986,3.0986,3.1061,3.1334,3.1468,3.1809,3.2087,3.2376,3.2946,3.2376,3.1603,3.096,3.052,3.0292,3.0292,3.0152,3.0305,3.0533,3.096,3.1097,3.0761,3.1233,3.2015,3.2747,3.3297,3.4192,3.5335,3.6337,3.7203,3.8842,3.9935,4.0856,4.1656,4.2483,4.3051,4.3627,4.4646,4.5017,4.5058,4.474,4.3689,4.2384,4.0916,3.9177,3.7239,3.4475,3.2205,3.0976,2.949,2.7997,2.6569,2.5481,2.4063,2.2746,2.1034,1.924,1.8172,1.6778,1.5556,1.4423,1.2592,1.0445,0.87,0.8113,0.7925,0.763,0.7024,0.5815,0.4309,0.351,0.3012,0.201,0.0805,0.0201,2.9927,2.9683,2.9783,2.977,2.9696,2.9514,2.932,2.939,2.9209,2.9287,2.9209,2.8791,2.8949,2.9287,2.8882,2.9131,2.9702,2.9779,2.9779,2.9869,2.9946,3.0088,3.0088,3.0305,3.0533,3.0761,3.0911,3.0986,3.0986,3.0986,3.0986,3.0986,3.0986,3.0986,3.0986,3.0986,3.0986,3.0986,3.0986,3.0986,3.0986,3.0986,3.1048,3.1123,3.1542,3.1603,3.1455,3.1809,3.216,3.2304,3.2605,3.2259,3.1442,3.0646,3.0216,2.9998,3.0011,3.0164,3.0305,3.0444,3.0872,3.1233,3.1368,3.2146,3.3073,3.3575,3.3934,3.489,3.5928,3.698,3.8859,3.9373,4.015,4.1161,4.2003,4.2643,4.3353,4.4065,4.4839,4.5065,4.4802,4.453,4.3369,4.2193,4.0699,3.8992,3.6753,3.482,3.3546,3.1792,2.9984,2.8602,2.7221,2.5648,2.4063,2.2164,2.0462,1.9884,1.8792,1.7602,1.639,1.5013,1.3375,1.1327,0.9583,0.8612,0.8319,0.8024,0.7322,0.6014,0.5622,0.5231,0.4124,0.2917,0.1712,2.9779,2.9779,2.9779,2.9779,2.9779,2.9779,2.9779,2.9779,2.9779,2.9779,2.9702,2.9378,2.9378,2.9624,2.9456,2.9456,2.9702,2.9779,2.9779,2.9869,2.9869,2.9946,3.0011,3.0152,3.0381,3.0533,3.0761,3.0911,3.0986,3.0986,3.0986,3.0986,3.0986,3.0986,3.0986,3.0986,3.0986,3.0986,3.0986,3.0986,3.0986,3.0986,3.1123,3.1603,3.1809,3.1809,3.1663,3.2232,3.2376,3.2087,3.2475,3.239,3.1856,3.1057,3.0266,2.9921,2.9934,3.0011,3.0088,3.0152,3.0292,3.0659,3.0735,3.1368,3.2434,3.2946,3.3589,3.4639,3.5544,3.6569,3.7873,3.8515,3.9614,4.0827,4.1552,4.2248,4.3032,4.3545,4.4261,4.5017,4.5153,4.4961,4.4672,4.3472,4.2245,4.0627,3.8824,3.7383,3.5968,3.4053,3.2079,3.0235,2.8819,2.7128,2.5648,2.4067,2.2476,2.1813,2.0971,1.9785,1.8333,1.7137,1.5549,1.3831,1.1996,1.0266,0.9312,0.9122,0.8425,0.7829,0.7132,0.6437,0.5939,0.5035,0.3626,2.9779,2.9779,2.9779,2.9779,2.9779,2.9779,2.9779,2.9779,2.9779,2.988,2.993,2.9854,2.9867,2.9917,2.9854,2.9779,2.9779,2.9779,2.9779,2.9779,2.9792,2.9792,2.9856,2.9921,3.0152,3.0305,3.0457,3.0698,3.0911,3.0986,3.0986,3.0911,3.0986,3.0986,3.0986,3.0986,3.0986,3.0986,3.0986,3.0986,3.0986,3.1185,3.1394,3.1955,3.2087,3.2101,3.1603,3.216,3.2232,3.1942,3.2173,3.2533,3.2177,3.1549,3.0846,3.0139,2.9934,2.9934,2.9934,2.9946,2.9934,3.0152,2.9934,3.0722,3.1869,3.2733,3.3311,3.4452,3.5184,3.5913,3.6904,3.7799,3.8917,4.0051,4.092,4.17,4.2541,4.3195,4.3809,4.452,4.5195,4.5307,4.4958,4.4729,4.349,4.228,4.0535,3.9156,3.7769,3.6106,3.4142,3.1949,3.0211,2.8621,2.7209,2.6218,2.4925,2.4183,2.3461,2.2503,2.0873,1.924,1.7657,1.6168,1.4601,1.2871,1.1551,1.0015,0.9217,0.852,0.8038,0.7441,0.6639,0.5737,0.4427,2.9779,2.9779,2.9779,2.9779,2.9779,2.9779,2.9779,2.9779,2.9779,3.0093,3.0344,3.003,3.0043,3.0244,2.9942,2.9804,2.9779,2.9779,2.9779,2.9779,2.9779,2.9779,2.9779,2.9792,3.0011,3.0152,3.0228,3.0394,3.0685,3.0911,3.0911,3.0849,3.0911,3.0986,3.0986,3.0986,3.0986,3.0986,3.1061,3.1061,3.1123,3.1603,3.1603,3.169,3.2114,3.2345,3.1408,3.1809,3.1723,3.1649,3.2028,3.2376,3.2263,3.2132,3.1549,3.0833,3.0203,2.9792,2.9856,2.9934,2.9934,2.9998,2.9856,3.0659,3.1796,3.3171,3.3962,3.4549,3.4883,3.5365,3.6212,3.6919,3.7799,3.9003,4.0234,4.115,4.1997,4.3014,4.3594,4.4186,4.4917,4.5204,4.5158,4.5062,4.4786,4.3544,4.231,4.0943,3.9321,3.7535,3.603,3.3839,3.2075,3.0436,2.912,2.8004,2.7059,2.6371,2.5946,2.5041,2.3365,2.1548,2.0039,1.8553,1.7001,1.5152,1.3346,1.1716,1.0275,0.9402,0.9008,0.8223,0.7238,0.6232,0.5429,2.9779,2.9779,2.9779,2.9779,2.9779,2.9779,2.9779,2.9779,2.9792,2.993,3.0093,2.9917,2.9942,3.008,2.9854,2.9792,2.9779,2.9779,2.9779,2.9779,2.9779,2.9779,2.9779,2.9792,2.9946,3.0075,3.0152,3.0228,3.0533,3.0685,3.0761,3.0773,3.0911,3.0986,3.0986,3.0986,3.0986,3.1123,3.1394,3.1603,3.175,3.1882,3.216,3.2173,3.269,3.2417,3.2055,3.1982,3.1736,3.1502,3.1576,3.1869,3.2074,3.2146,3.1842,3.1623,3.1355,3.0722,3.0011,3.0216,3.0355,3.0279,3.0139,3.052,3.1869,3.3087,3.4221,3.5037,3.5103,3.5479,3.6134,3.6935,3.77,3.8679,3.9817,4.0745,4.1682,4.2637,4.344,4.4034,4.4578,4.4877,4.5202,4.5346,4.523,4.4583,4.3536,4.2423,4.0506,3.8421,3.7038,3.569,3.4016,3.2443,3.1235,3.0128,2.8879,2.8234,2.8381,2.7334,2.5652,2.4012,2.2495,2.1344,2.024,1.8033,1.5457,1.3611,1.2195,1.1035,0.9964,0.9091,0.8312,0.7733,0.6728,2.9779,2.9779,2.9779,2.9779,2.9779,2.9779,2.9779,2.9779,2.9779,2.988,2.998,3.0005,2.9955,2.9804,2.9792,2.9779,2.9779,2.9779,2.9779,2.9779,2.9779,2.9779,2.9779,2.9792,2.9946,3.0075,3.0075,3.0216,3.0368,3.0533,3.0609,3.0698,3.0849,3.0911,3.0986,3.0986,3.0986,3.1061,3.1468,3.1809,3.1942,3.1796,3.2232,3.2591,3.2818,3.2775,3.2403,3.2761,3.2232,3.1193,3.1355,3.1796,3.2074,3.2074,3.2218,3.2146,3.2087,3.1516,3.0859,3.0696,3.0833,3.062,3.0846,3.1158,3.2232,3.3087,3.3796,3.4957,3.527,3.5642,3.6322,3.698,3.7632,3.8547,3.9613,4.0521,4.149,4.2404,4.3142,4.3619,4.4149,4.4716,4.5079,4.5476,4.5488,4.5312,4.4604,4.3687,4.1796,3.9521,3.8199,3.7044,3.5891,3.423,3.2709,3.1612,3.0564,2.9998,3.0098,2.9242,2.7325,2.6168,2.4851,2.3961,2.2997,2.1316,1.9043,1.65,1.4118,1.2866,1.1521,1.0253,0.9383,0.881,0.773,2.9779,2.9779,2.9779,2.9779,2.9779,2.9779,2.9779,2.9779,2.9779,3.0055,3.0357,3.0482,3.0143,2.9892,2.9779,2.9779,2.9779,2.9779,2.9779,2.9779,2.9779,2.9779,2.9779,2.9792,2.9869,3.0075,3.0075,3.0216,3.0355,3.0368,3.0533,3.0698,3.0773,3.0849,3.0911,3.0986,3.0986,3.1061,3.1408,3.1736,3.1942,3.1796,3.1736,3.2087,3.239,3.2331,3.1516,3.2448,3.2362,3.1031,3.1415,3.1869,3.2001,3.2087,3.2304,3.272,3.2662,3.216,3.1723,3.1057,3.0558,3.0495,3.1009,3.2015,3.2861,3.3756,3.4332,3.4654,3.527,3.5514,3.6072,3.6631,3.7663,3.8133,3.9143,4.0234,4.1133,4.2121,4.2808,4.3213,4.3781,4.4406,4.4897,4.5274,4.5657,4.5501,4.4813,4.3881,4.2765,4.0806,3.9528,3.8368,3.7543,3.5953,3.397,3.2904,3.2317,3.1581,3.1277,3.0151,2.8652,2.7716,2.7036,2.6041,2.5061,2.3811,2.2446,1.9799,1.7242,1.4962,1.3165,1.1991,1.044,0.9383,0.8209,2.9779,2.9779,2.9779,2.9779,2.9779,2.9779,2.9779,2.9779,2.9792,2.9905,3.0118,3.0093,2.9993,2.9829,2.9779,2.9779,2.9779,2.9779,2.9779,2.9779,2.9779,2.9779,2.9779,2.9779,2.9856,2.9934,3.0011,3.0164,3.0228,3.0216,3.0368,3.0457,3.0622,3.0698,3.0849,3.0911,3.0986,3.1272,3.1836,3.2519,3.2662,3.3003,3.3017,3.3227,3.2461,3.2403,3.2114,3.2304,3.1769,3.1328,3.1328,3.1623,3.2001,3.2087,3.2519,3.3157,3.3171,3.2946,3.2146,3.1415,3.0758,3.0846,3.1502,3.2448,3.3227,3.3589,3.4206,3.4795,3.5593,3.5897,3.6197,3.7191,3.8116,3.8067,3.869,3.9851,4.0763,4.1768,4.2655,4.316,4.3689,4.4243,4.4681,4.507,4.5433,4.5662,4.49,4.4124,4.3107,4.2132,4.0814,3.9797,3.8983,3.828,3.6409,3.5217,3.4161,3.3268,3.2417,3.1341,3.0227,2.982,2.9061,2.8092,2.7059,2.5865,2.4418,2.2601,2.0266,1.752,1.5402,1.3712,1.2078,1.0449,0.9182,2.9779,2.9779,2.9779,2.9779,2.9779,2.9779,2.9779,2.9779,2.9779,2.9779,2.9779,2.9779,2.9779,2.9779,2.9779,2.9779,2.9779,2.9779,2.9779,2.9779,2.9779,2.9779,2.9779,2.9779,2.9856,2.9869,3.0011,3.0164,3.0228,3.0152,3.0228,3.0305,3.0457,3.0546,3.0685,3.0773,3.0911,3.1259,3.1823,3.2662,3.272,3.3017,3.3283,3.3367,3.296,3.2832,3.2761,3.2875,3.2577,3.1915,3.1623,3.1623,3.1928,3.2232,3.2506,3.3087,3.352,3.3451,3.2577,3.1783,3.1402,3.1769,3.206,3.2875,3.3311,3.3589,3.4221,3.4824,3.577,3.6384,3.6446,3.7445,3.8148,3.823,3.8887,3.9868,4.0477,4.134,4.2284,4.3087,4.3539,4.3967,4.4718,4.5149,4.549,4.5716,4.5269,4.4595,4.3924,4.2993,4.2045,4.12,4.0548,3.9883,3.9099,3.7754,3.6304,3.4383,3.3557,3.2834,3.2019,3.1462,3.0758,2.9641,2.8603,2.782,2.6382,2.4672,2.2379,1.9799,1.7597,1.5315,1.4262,1.2732,1.1244,2.9779,2.9779,2.9779,2.9804,2.9842,2.9792,2.9829,2.988,2.9867,2.9867,2.9867,2.9829,2.9779,2.9779,2.9779,2.9779,2.9779,2.9779,2.9779,2.9779,2.9779,2.9779,2.9779,2.9779,2.9856,3.0011,3.0075,3.0152,3.0305,3.0152,3.0152,3.0075,3.0152,3.0228,3.0368,3.0609,3.0849,3.0986,3.111,3.1676,3.2087,3.239,3.2648,3.3003,3.3171,3.3185,3.3157,3.3451,3.3157,3.2577,3.2074,3.2001,3.2087,3.2087,3.2434,3.3157,3.3297,3.3297,3.3157,3.2519,3.2506,3.2706,3.2861,3.3297,3.4045,3.4332,3.4264,3.4721,3.5593,3.6259,3.6829,3.746,3.796,3.8472,3.9135,3.968,4.0283,4.0949,4.1895,4.2846,4.3196,4.3601,4.4539,4.5278,4.5613,4.5703,4.5463,4.5012,4.4431,4.3801,4.2935,4.2185,4.1525,4.0954,4.0243,3.975,3.8324,3.6288,3.4827,3.422,3.3352,3.2464,3.1756,3.0882,3.005,2.9164,2.8048,2.6755,2.4271,2.172,1.9001,1.6937,1.6015,1.5006,1.359,2.9779,2.9779,2.9779,3.0005,3.0281,3.0327,3.0352,3.0319,3.0331,3.0319,3.0244,2.998,2.9779,2.9779,2.9779,2.9779,2.9779,2.9779,2.9779,2.9779,2.9779,2.9779,2.9779,2.9792,2.9869,2.9946,3.0011,2.9998,3.0011,3.0088,3.0011,2.9934,2.9921,3.0075,3.0381,3.0609,3.0773,3.0898,3.1394,3.2028,3.2547,3.2818,3.3241,3.3659,3.3451,3.3367,3.3283,3.3742,3.3451,3.2875,3.2304,3.2146,3.2146,3.2146,3.2434,3.3157,3.352,3.3977,3.3977,3.3687,3.3451,3.3381,3.3297,3.3659,3.4264,3.4414,3.4414,3.4601,3.5335,3.5961,3.6508,3.7147,3.7711,3.8319,3.8952,3.9454,4.0036,4.0703,4.1525,4.2501,4.3069,4.3767,4.4592,4.5272,4.569,4.5831,4.5657,4.5306,4.477,4.4386,4.3725,4.2941,4.2271,4.18,4.1243,4.0642,3.9816,3.8001,3.6638,3.5809,3.486,3.3696,3.2904,3.2177,3.1389,3.0519,2.9319,2.8012,2.6057,2.3624,2.135,1.9026,1.7669,1.6857,1.5974,2.9779,2.9779,2.9779,3.0118,3.0507,3.0416,3.0322,3.0318,3.0365,3.0331,3.0231,2.993,2.9779,2.9779,2.9779,2.9779,2.9779,2.9779,2.9779,2.9779,2.9779,2.9779,2.9779,2.9779,2.9792,2.9869,2.9934,3.0011,2.9869,2.9998,3.0011,2.9856,2.9779,3.0139,3.0432,3.0596,3.0546,3.0748,3.1259,3.1542,3.2114,3.2676,3.3381,3.352,3.3604,3.3673,3.3673,3.352,3.3367,3.2946,3.2577,3.2362,3.2218,3.2362,3.2577,3.3017,3.3451,3.4045,3.4264,3.3894,3.3659,3.3756,3.3589,3.3879,3.4385,3.4654,3.4534,3.4721,3.5219,3.5834,3.6446,3.7087,3.7594,3.8262,3.8655,3.9152,3.9851,4.0528,4.1168,4.2144,4.3014,4.3757,4.46,4.518,4.5743,4.5818,4.5838,4.5448,4.5074,4.4729,4.4315,4.3564,4.2996,4.2544,4.2026,4.1481,4.056,3.9531,3.8384,3.7227,3.612,3.4955,3.4187,3.3408,3.2478,3.1609,3.0631,2.9167,2.7415,2.6013,2.4577,2.2205,1.9753,1.8672,1.791,2.9779,2.9779,2.9779,3.0118,3.047,3.0105,2.9903,2.9878,2.9882,2.9892,2.9867,2.988,2.9779,2.9779,2.9779,2.9779,2.9779,2.9779,2.9779,2.9792,2.9869,2.9792,2.9792,2.9869,2.9856,2.9869,2.9946,2.9934,2.9856,2.9934,2.9934,2.9856,2.9779,3.0203,3.0495,3.057,3.0596,3.1048,3.1123,3.1334,3.1676,3.2187,3.2747,3.303,3.3534,3.4045,3.4196,3.4196,3.4196,3.3894,3.352,3.2804,3.2577,3.2791,3.2577,3.2648,3.3017,3.3742,3.4182,3.3811,3.3879,3.4128,3.4264,3.4346,3.4467,3.4787,3.4787,3.4905,3.527,3.5897,3.6569,3.7027,3.7535,3.796,3.8391,3.8952,3.9662,4.0334,4.092,4.1757,4.2623,4.3476,4.4537,4.524,4.5638,4.5781,4.5799,4.5605,4.5249,4.4987,4.4562,4.4023,4.3545,4.3303,4.2792,4.2149,4.1455,4.0483,3.9341,3.8188,3.7168,3.6151,3.521,3.4365,3.3547,3.2621,3.1596,3.0416,2.8885,2.7758,2.693,2.4629,2.1924,2.0558,1.972,2.9779,2.9779,2.9779,3.0118,3.0557,3.0444,3.0541,3.0896,3.0532,3.0369,3.0357,2.9955,2.9792,2.9779,2.9779,2.9779,2.9779,2.9779,2.9779,2.9856,2.9934,2.9869,2.9869,2.9934,2.9856,2.9869,2.9869,2.9946,2.9779,2.9856,2.9869,2.9792,2.9779,3.0279,3.062,3.0758,3.132,3.1582,3.1522,3.1373,3.1569,3.2214,3.2547,3.303,3.3756,3.4346,3.4414,3.4414,3.4414,3.4264,3.3589,3.2861,3.2232,3.2376,3.2304,3.3017,3.3589,3.4182,3.4346,3.4196,3.4113,3.4346,3.4414,3.4414,3.4481,3.4668,3.4854,3.5088,3.5219,3.5706,3.6399,3.7027,3.7637,3.8132,3.8448,3.8805,3.947,3.9952,4.0621,4.1654,4.251,4.3573,4.4588,4.5084,4.543,4.5656,4.5728,4.5616,4.5463,4.5227,4.49,4.4374,4.398,4.367,4.3266,4.2659,4.2103,4.1385,4.0148,3.9056,3.8109,3.7097,3.6182,3.5255,3.4365,3.3478,3.2635,3.1383,3.015,2.9827,2.9003,2.6546,2.4337,2.2775,2.1257,2.9779,2.9779,2.9779,2.9993,3.0294,3.0532,3.0712,3.0716,3.0448,3.0294,3.0256,2.993,2.9779,2.9779,2.9779,2.9779,2.9779,2.9779,2.9779,2.9856,2.9934,2.9869,2.9856,2.9934,2.9869,2.9869,2.9869,2.9934,2.9779,2.9779,2.9792,2.9792,2.9779,3.0419,3.1057,3.1502,3.2323,3.2509,3.245,3.1998,3.2071,3.2382,3.2632,3.296,3.3756,3.4278,3.4414,3.4414,3.4414,3.4414,3.3811,3.3297,3.2733,3.2577,3.2648,3.3297,3.3894,3.4264,3.4414,3.4414,3.4346,3.4414,3.4414,3.4414,3.4534,3.4721,3.5037,3.527,3.5219,3.535,3.6212,3.7011,3.7754,3.8472,3.86,3.8672,3.9115,3.961,4.0539,4.1576,4.2648,4.3695,4.4433,4.4905,4.5323,4.564,4.5833,4.5821,4.5698,4.5495,4.5228,4.4839,4.4393,4.402,4.3582,4.3087,4.2447,4.1707,4.0685,3.9664,3.8875,3.7889,3.6798,3.5882,3.5124,3.423,3.3269,3.2506,3.1576,3.1159,3.039,2.831,2.6174,2.4447,2.295,2.9779,2.9779,2.9779,2.9804,2.9867,3.0319,3.0256,2.9829,2.9842,2.9804,2.9817,2.9792,2.9779,2.9779,2.9779,2.9779,2.9779,2.9779,2.9779,2.9779,2.9856,2.9869,2.9792,2.9792,2.9869,2.9869,2.9934,2.9856,2.9779,2.9779,2.9779,2.9779,2.9779,3.0343,3.1415,3.1842,3.2794,3.4112,3.3097,3.2159,3.2361,3.2421,3.2444,3.2448,3.3395,3.4414,3.4414,3.4414,3.4414,3.4414,3.4264,3.3894,3.3367,3.3087,3.3143,3.3437,3.3962,3.4264,3.4414,3.4414,3.4414,3.4414,3.4414,3.4414,3.4534,3.4721,3.4971,3.5449,3.5514,3.6087,3.6966,3.7087,3.7562,3.8286,3.8655,3.8766,3.9023,3.968,4.0681,4.1679,4.2607,4.3656,4.4436,4.4896,4.5204,4.5584,4.5844,4.5907,4.5896,4.5735,4.5534,4.5249,4.4852,4.4398,4.3899,4.3382,4.2737,4.1967,4.1041,4.0334,3.963,3.8492,3.7294,3.6554,3.5946,3.4846,3.3905,3.3129,3.2331,3.154,3.0714,2.9608,2.7971,2.6058,2.4286,2.9779,2.9779,2.9779,2.9779,2.9804,2.9917,2.993,2.9792,2.9779,2.9779,2.9779,2.9779,2.9779,2.9779,2.9779,2.9779,2.9779,2.9779,2.9779,2.9856,2.9934,2.9856,2.9856,2.9946,2.9946,2.9869,2.9869,2.9856,2.9869,2.9792,2.9779,2.9792,2.9856,3.0495,3.1415,3.1796,3.309,3.5139,3.4337,3.3143,3.2942,3.3317,3.3459,3.3012,3.3465,3.4264,3.4414,3.4414,3.4414,3.4414,3.4414,3.3962,3.3283,3.3227,3.3227,3.3367,3.3948,3.4264,3.4414,3.4414,3.4414,3.4414,3.4414,3.4414,3.4467,3.4587,3.489,3.5514,3.6134,3.6829,3.7401,3.7326,3.7429,3.8157,3.875,3.886,3.8969,3.9902,4.0886,4.1764,4.27,4.3465,4.4271,4.4781,4.5082,4.5411,4.5751,4.593,4.6047,4.5976,4.583,4.5565,4.5239,4.4787,4.4261,4.3719,4.3083,4.2354,4.149,4.0874,4.0351,3.9053,3.7806,3.7354,3.6676,3.5469,3.4447,3.3768,3.2988,3.1857,3.0989,2.9946,2.8852,2.7126,2.5432,2.9779,2.9779,2.9779,2.9779,2.9779,2.9779,2.9779,2.9779,2.9779,2.9779,2.9779,2.9779,2.9779,2.9779,2.9779,2.9779,2.9779,2.9779,2.9779,2.9856,2.9856,2.9856,2.9856,2.9934,2.9869,2.9792,2.9792,2.9792,2.9869,3.0126,3.0266,3.0011,3.0075,3.0633,3.1341,3.2096,3.337,3.5524,3.5152,3.4677,3.3965,3.4019,3.3515,3.2999,3.3395,3.4196,3.4414,3.4414,3.4414,3.4414,3.4414,3.3962,3.352,3.3589,3.352,3.352,3.3894,3.4414,3.4414,3.4414,3.4414,3.4414,3.4414,3.4414,3.4414,3.4601,3.5154,3.5642,3.5578,3.6212,3.7401,3.7711,3.8026,3.8606,3.9028,3.9348,3.9749,4.0463,4.1429,4.2311,4.2941,4.3348,4.408,4.4701,4.4995,4.5343,4.566,4.5928,4.6049,4.6152,4.6023,4.588,4.5536,4.4998,4.4361,4.3908,4.3467,4.2704,4.1937,4.1324,4.0671,3.947,3.8374,3.7822,3.6995,3.5882,3.4912,3.4109,3.2861,3.1569,3.0849,3.0164,2.9155,2.8054,2.6351,2.9779,2.9779,2.9779,2.9779,2.9779,2.9779,2.9779,2.9779,2.9779,2.9779,2.9779,2.9779,2.9779,2.9779,2.9779,2.9779,2.9779,2.9779,2.9779,2.9779,2.9779,2.9779,2.9779,2.9779,2.9792,2.9792,2.9779,2.9792,2.9792,3.0266,3.0545,3.0216,3.0633,3.1341,3.1869,3.2523,3.3654,3.525,3.5668,3.5812,3.5293,3.4562,3.3526,3.3167,3.3381,3.4128,3.4264,3.4346,3.4346,3.4414,3.4414,3.4045,3.3894,3.3962,3.3825,3.3825,3.4045,3.4346,3.4414,3.4414,3.4414,3.4414,3.4414,3.4414,3.4414,3.4721,3.5219,3.5559,3.5559,3.618,3.7417,3.8164,3.8544,3.8865,3.9279,3.9952,4.0546,4.1082,4.1846,4.2732,4.3233,4.3566,4.3992,4.4584,4.5019,4.5341,4.5574,4.5809,4.6016,4.6113,4.6106,4.601,4.5802,4.5208,4.4581,4.4195,4.3919,4.3263,4.2552,4.1815,4.0957,3.9642,3.8652,3.8051,3.716,3.6087,3.5029,3.4148,3.2763,3.1589,3.0898,3.0305,2.9471,2.8359,2.7139,2.9779,2.9779,2.9779,2.9779,2.9779,2.9779,2.9779,2.9779,2.9779,2.9779,2.9779,2.9779,2.9779,2.9779,2.9779,2.9779,2.9779,2.9779,2.9779,2.9779,2.9779,2.9779,2.9779,2.9779,2.9779,2.9779,2.9779,2.9779,3.0152,3.062,3.0895,3.0771,3.1502,3.175,3.1522,3.2521,3.4078,3.5348,3.62,3.6432,3.552,3.4731,3.3789,3.329,3.2946,3.3297,3.3589,3.4113,3.4264,3.4414,3.4414,3.4264,3.4182,3.421,3.4239,3.4286,3.4491,3.4564,3.4661,3.4603,3.4617,3.4545,3.4516,3.4481,3.4481,3.4549,3.5148,3.5888,3.6128,3.6908,3.7897,3.8293,3.8674,3.8931,3.9295,4.0434,4.137,4.1674,4.215,4.3069,4.3889,4.4097,4.4252,4.4833,4.539,4.5588,4.5594,4.5835,4.6076,4.6144,4.6191,4.6103,4.6014,4.5677,4.5184,4.4768,4.4371,4.3758,4.303,4.2139,4.1041,3.9731,3.8799,3.8318,3.7488,3.643,3.5355,3.4351,3.3492,3.239,3.1272,3.0457,2.9679,2.8863,2.7683]},{"header":{"parameterUnit":"m.s-1","parameterCategory":1,"la1":31.0,"la2":29.5877,"lo1":-88.7671,"lo2":-86.6584,"dy":0.0162,"dx":0.0185,"nx":115,"ny":88,"refTime":"2023-07-28T18:00:00:Z","depth":0,"parameterNumber":3,"parameterNumberName":"V-component_of_WINDS"},"data":[0.0,0.0,0.0,0.0,0.0,0.0,0.0,0.0,0.0,0.0,0.0,0.0,0.0,0.0,0.0,0.0,0.0,0.0,0.0,0.0,0.0,0.0,0.0,0.0,0.0,0.0,0.0,0.0,0.0,0.0,0.0,0.0,0.0,0.0,0.0,0.0,0.0,0.0,0.0,0.0,0.0,0.0,0.0,0.0,0.0,0.0,0.0,0.0,0.0,0.0,0.0,0.0,0.0,0.0,0.0,0.0,0.0,0.0,0.0,0.0,0.0,0.0,0.0,0.0,0.0,0.0,0.0,0.0,0.0,0.0,0.0,0.0,0.0,0.0,0.0,0.0,0.0,0.0,0.0,0.0,0.0,0.0,0.0,0.0,0.0,0.0,0.0,0.0,0.0,0.0,0.0,0.0,0.0,0.0,0.0,0.0,0.0,0.0,0.0,0.0,0.0,0.0,0.0,0.0,0.0,0.0,0.0,0.0,0.0,0.0,0.0,0.0,0.0,0.0,0.0,0.0,0.0,0.0,0.0,0.0,0.0,0.0,0.0,0.0,0.0,0.0,0.0,0.0,0.0,0.0,0.0,0.0,0.0,0.0,0.0,0.0,0.0,0.0,0.0,0.0,0.0,0.0,0.0,0.0,0.0,0.0,0.0,0.0,0.0,0.0,0.0,0.0,0.0,0.0,0.0,0.0,0.0,0.0,0.0,0.0,0.0,0.0,0.0,0.0,0.0,0.0,0.0,0.0,0.0,0.0,0.0,0.0,0.0,0.0,0.0,0.0,0.0,0.0,0.0,0.0,0.0,0.0,0.0,0.0,0.0,0.0,0.0,0.0,0.0,0.0,0.0,0.0,0.0,0.0,0.0,0.0,0.0,0.0,0.0,0.0,0.0,0.0,0.0,0.0,0.0,0.0,0.0,0.0,0.0,0.0,0.0,0.0,0.0,0.0,0.0,0.0,0.0,0.0,0.0,0.0,0.0,0.0,0.0,0.0,0.0,0.0,0.0,0.0,0.0,0.0,0.0,0.0,0.0,0.0,0.0,0.0,0.0,0.0,0.0,0.0,0.0,0.0,0.0,0.0,0.0,0.0,0.0,0.0,0.0,0.0,0.0,0.0,0.0,0.0,0.0,0.0,0.0,0.0,0.0,0.0,0.0,0.0,0.0,0.0,0.0,0.0,0.0,0.0,0.0,0.0,0.0,0.0,0.0,0.0,0.0,0.0,0.0,0.0,0.0,0.0,0.0,0.0,0.0,0.0,0.0,0.0,0.0,0.0,0.0,0.0,0.0,0.0,0.0,0.0,0.0,0.0,0.0,0.0,0.0,0.0,0.0,0.0,0.0,0.0,0.0,0.0,0.0,0.0,0.0,0.0,0.0,0.0,0.0,0.0,0.0,0.0,0.0,0.0,0.0,0.0,0.0,0.0,0.0,0.0,0.0,0.0,0.0,0.0,0.0,0.0,0.0,0.0,0.0,0.0,0.0,0.0,0.0,0.0,0.0,0.0,0.0,0.0,0.0,0.0,0.0,0.0,0.0,0.0,0.0,0.0,0.0,0.0,0.0,0.0,0.0,0.0,0.0,0.0,0.0,0.0,0.0,0.0,0.0,0.0,0.0,0.0,0.0,0.0,0.0,0.0,0.0,0.0,0.0,0.0,0.0,0.0,0.0,0.0,0.0,0.0,0.0,0.0,0.0,0.0,0.0,0.0,0.0,0.0,0.0,0.0,0.0,0.0,0.0,0.0,0.0,0.0,0.0,0.0,0.0,0.0,0.0,0.0,0.0,0.0,0.0,0.0,0.0,0.0,0.0,0.0,0.0,0.0,0.0,0.0,0.0,0.0,0.0,0.0,0.0,0.0,0.0,0.0,0.0,0.0,0.0,0.0,0.0,0.0,0.0,0.0,0.0,0.0,0.0,0.0,0.0,0.0,0.0,0.0,0.0,0.0,0.0,0.0,0.0,0.0,0.0,0.0,0.0,0.0,0.0,0.0,0.0,0.0,0.0,0.0,0.0,0.0,0.0,0.0,0.0,0.0,0.0,0.0,0.0,0.0,0.0,0.0,0.0,0.0,0.0,0.0,0.0,0.0,0.0,0.0,0.0,0.0,0.0,0.0,0.0,0.0,0.0,0.0,0.0,0.0,0.0,0.0,0.0,0.0,0.0,0.0,0.0,0.0,0.0,0.0,0.0,0.0,0.0,0.0,0.0,0.0,0.0,0.0,0.0,0.0,0.0,0.0,0.0,0.0,0.0,0.0,0.0,0.0,0.0,0.0,0.0,0.0,0.0,0.0,0.0,0.0,0.0,0.0,0.0,0.0,0.0,0.0,0.0,0.0,0.0,0.0,0.0,0.0,0.0,0.0,0.0,0.0,0.0,0.0,0.0,0.0,0.0,0.0,0.0,0.0,0.0,0.0,0.0,0.0,0.0,0.0,0.0,0.0,0.0,0.0,0.0,0.0,0.0,0.0,0.0,0.0,0.0,0.0,0.0,0.0,0.0,0.0,0.0,0.0,0.0,0.0,0.0,0.0,0.0,0.0,0.0,0.0,0.0,0.0,0.0,0.0,0.0,0.0,0.0,0.0,0.0,0.0,0.0,0.0,0.0,0.0,0.0,0.0,0.0,0.0,0.0,0.0,0.0,0.0,0.0,0.0,0.0,0.0,0.0,0.0,0.0,0.0,0.0,0.0,0.0,0.0,0.0,0.0,0.0,0.0,0.0,0.0,0.0,0.0,0.0,0.0,0.0,0.0,0.0,0.0,0.0,0.0,0.0,0.0,0.0,0.0,0.0,0.0,0.0,0.0,0.0,0.0,0.0,0.0,0.0,0.0,0.0,0.0,0.0,0.0,0.0,0.0,0.0,0.0,0.0,0.0,0.0,0.0,0.0,0.0,0.0,0.0,0.0,0.0,0.0,0.0,0.0,0.0,0.0,0.0,0.0,0.0,0.0,0.0,0.0,0.0,0.0,0.0,0.0,0.0,0.0,0.0,0.0,0.0,0.0,0.0,0.0,0.0,0.0,0.0,0.0,0.0,0.0,0.0,0.0,0.0,0.0,0.0,0.0,0.0,0.0,0.0,0.0,0.0,0.0,0.0,0.0,0.0,0.0,0.0,0.0,0.0,0.0,0.0,0.0,0.0,0.0,0.0,0.0,0.0,0.0,0.0,0.0,0.0,0.0,0.0,0.0,0.0,0.0,0.0,0.0,0.0,0.0,0.0,0.0,0.0,0.0,0.0,0.0,0.0,0.0,0.0,0.0,0.0,0.0,0.0,0.0,0.0,0.0,0.0,0.0,0.0,0.0,0.0,0.0,0.0,0.0,0.0,0.0,0.0,0.0,0.0,0.0,0.0,0.0,0.0,0.0,0.0,0.0,0.0,0.0,0.0,0.0,0.0,0.0,0.0,0.0,0.0,0.0,0.0,0.0,0.0,0.0,0.0,0.0,0.0,0.0,0.0,0.0,0.0,0.0,0.0,0.0,0.0,0.0,0.0,0.0,0.0,0.0,0.0,0.0,0.0,0.0,0.0,0.0,0.0,0.0,0.0,0.0,0.0,0.0,0.0,0.0,0.0,0.0,0.0,0.0,0.0,0.0,0.0,0.0,0.0,0.0,0.0,0.0,0.0,0.0,0.0,0.0,0.0,0.0,0.0,0.0,0.0,0.0,0.0,0.0,0.0,0.0,0.0,0.0,0.0,0.0,0.0,0.0,0.0,0.0,0.0,0.0,0.0,0.0,0.0,0.0,0.0,0.0,0.0,0.0,0.0,0.0,0.0,0.0,0.0,0.0,0.0,0.0,0.0,0.0,0.0,0.0,0.0,0.0,0.0,0.0,0.0,0.0,0.0,0.0,0.0,0.0,0.0,0.0,0.0,0.0,0.0,0.0,0.0,0.0,0.0,0.0,0.0,0.0,0.0,0.0,0.0,0.0,0.0,0.0,0.0,0.0,0.0,0.0,0.0,0.0,0.0,0.0,0.0,0.0,0.0,0.0,0.0,0.0,0.0,0.0,0.0,0.0,0.0,0.0,0.0,0.0,0.0,0.0,0.0,0.0,0.0,0.0,0.0,0.0,0.0,0.0,0.0,0.0,0.0,0.0,0.0,0.0,0.0,0.0,0.0,0.0,0.0,0.0,0.0,0.0,0.0,0.0,0.0,0.0,0.0,0.0,0.0,0.0,0.0,0.0,0.0,0.0,0.0,0.0,0.0,0.0,0.0,0.0,0.0,0.0,0.0,0.0,0.0,0.0,0.0,0.0,0.0,0.0,0.0,-1.5724,0.0,0.0,0.0,0.0,0.0,0.0,0.0,0.0,0.0,0.0,0.0,0.0,0.0,0.0,0.0,0.0,0.0,0.0,0.0,0.0,0.0,0.0,0.0,0.0,0.0,0.0,0.0,0.0,0.0,0.0,0.0,0.0,0.0,0.0,0.0,0.0,0.0,0.0,0.0,0.0,0.0,0.0,0.0,0.0,0.0,0.0,0.0,0.0,0.0,0.0,0.0,0.0,0.0,0.0,0.0,0.0,0.0,0.0,0.0,0.0,0.0,0.0,0.0,0.0,0.0,0.0,0.0,0.0,0.0,0.0,0.0,0.0,0.0,0.0,0.0,0.0,0.0,0.0,0.0,0.0,0.0,0.0,0.0,0.0,0.0,0.0,0.0,0.0,0.0,0.0,0.0,0.0,0.0,0.0,0.0,0.0,0.0,0.0,0.0,0.0,0.0,0.0,0.0,0.0,0.0,0.0,0.0,0.0,0.0,0.0,-1.4876,-1.4862,-1.5692,-1.6056,-1.5902,0.0,0.0,0.0,0.0,0.0,0.0,0.0,0.0,0.0,0.0,0.0,0.0,0.0,0.0,0.0,0.0,0.0,0.0,0.0,0.0,0.0,0.0,0.0,0.0,0.0,0.0,0.0,0.0,0.0,0.0,0.0,0.0,0.0,0.0,0.0,0.0,0.0,0.0,0.0,0.0,0.0,0.0,0.0,0.0,0.0,0.0,0.0,0.0,0.0,0.0,0.0,0.0,0.0,0.0,0.0,0.0,0.0,0.0,0.0,0.0,0.0,0.0,0.0,0.0,0.0,0.0,0.0,0.0,0.0,0.0,0.0,0.0,0.0,0.0,0.0,0.0,0.0,0.0,0.0,0.0,0.0,0.0,0.0,0.0,0.0,0.0,0.0,0.0,0.0,0.0,0.0,0.0,0.0,0.0,0.0,0.0,0.0,0.0,0.0,0.0,0.0,0.0,0.0,0.0,0.0,0.0,0.0,0.0,0.0,0.0,0.0,0.0,-1.6354,-1.6959,-1.6418,0.0,0.0,0.0,0.0,0.0,0.0,0.0,0.0,0.0,0.0,0.0,0.0,0.0,0.0,0.0,0.0,0.0,0.0,0.0,0.0,0.0,0.0,0.0,0.0,0.0,0.0,0.0,0.0,0.0,0.0,0.0,0.0,0.0,0.0,0.0,0.0,0.0,0.0,0.0,0.0,0.0,0.0,0.0,0.0,0.0,0.0,0.0,0.0,0.0,0.0,0.0,0.0,0.0,0.0,0.0,0.0,0.0,0.0,0.0,0.0,0.0,0.0,0.0,0.0,0.0,0.0,0.0,0.0,0.0,0.0,0.0,0.0,0.0,0.0,0.0,0.0,0.0,0.0,0.0,0.0,0.0,0.0,0.0,0.0,0.0,0.0,0.0,0.0,0.0,0.0,0.0,0.0,0.0,0.0,0.0,0.0,0.0,0.0,0.0,0.0,0.0,0.0,0.0,0.0,0.0,0.0,0.0,0.0,0.0,0.0,-1.5151,-1.5741,-1.6638,0.0,-1.7135,0.0,0.0,0.0,0.0,0.0,0.0,0.0,0.0,0.0,0.0,0.0,0.0,0.0,0.0,0.0,0.0,0.0,0.0,0.0,0.0,0.0,0.0,0.0,0.0,0.0,0.0,0.0,0.0,0.0,0.0,0.0,0.0,0.0,0.0,0.0,0.0,0.0,0.0,0.0,0.0,0.0,0.0,0.0,0.0,0.0,0.0,0.0,0.0,0.0,0.0,0.0,0.0,0.0,0.0,0.0,0.0,0.0,0.0,0.0,0.0,0.0,0.0,0.0,0.0,0.0,0.0,0.0,0.0,0.0,0.0,0.0,0.0,0.0,0.0,0.0,0.0,0.0,0.0,0.0,0.0,0.0,0.0,0.0,0.0,0.0,0.0,0.0,0.0,0.0,0.0,0.0,0.0,0.0,0.0,0.0,0.0,0.0,0.0,0.0,0.0,0.0,0.0,0.0,0.0,0.0,0.0,0.0,0.0,0.0,0.0,-1.5549,-1.597,-1.6848,-1.7738,0.0,0.0,0.0,0.0,0.0,0.0,0.0,0.0,0.0,0.0,0.0,0.0,0.0,0.0,0.0,0.0,0.0,0.0,0.0,0.0,0.0,0.0,0.0,0.0,0.0,0.0,0.0,0.0,0.0,0.0,0.0,0.0,0.0,0.0,0.0,0.0,0.0,0.0,0.0,0.0,0.0,0.0,0.0,0.0,0.0,0.0,0.0,0.0,0.0,0.0,0.0,0.0,0.0,0.0,0.0,0.0,0.0,0.0,0.0,0.0,0.0,0.0,0.0,0.0,0.0,0.0,0.0,0.0,0.0,0.0,0.0,0.0,0.0,0.0,0.0,0.0,0.0,0.0,0.0,0.0,0.0,0.0,0.0,0.0,0.0,0.0,0.0,0.0,0.0,0.0,0.0,0.0,0.0,0.0,0.0,0.0,0.0,0.0,0.0,0.0,0.0,0.0,0.0,0.0,0.0,0.0,0.0,0.0,0.0,0.0,-1.5436,-1.631,-1.7,-1.7729,-1.8543,-1.943,0.0,0.0,0.0,0.0,0.0,0.0,0.0,0.0,0.0,0.0,0.0,0.0,0.0,0.0,0.0,0.0,0.0,0.0,0.0,0.0,0.0,0.0,0.0,0.0,0.0,0.0,0.0,0.0,0.0,0.0,0.0,0.0,0.0,0.0,0.0,0.0,0.0,0.0,0.0,0.0,0.0,0.0,0.0,0.0,0.0,0.0,0.0,0.0,0.0,0.0,0.0,0.0,0.0,0.0,0.0,0.0,0.0,0.0,0.0,0.0,0.0,0.0,0.0,0.0,0.0,0.0,0.0,0.0,0.0,0.0,0.0,0.0,0.0,0.0,0.0,0.0,0.0,0.0,0.0,0.0,0.0,0.0,0.0,0.0,0.0,0.0,0.0,0.0,0.0,0.0,0.0,0.0,0.0,0.0,0.0,0.0,0.0,0.0,0.0,0.0,0.0,0.0,0.0,0.0,0.0,0.0,0.0,0.0,-1.6255,-1.6612,-1.7655,-1.9398,-1.9639,-1.9608,0.0,0.0,0.0,0.0,0.0,0.0,0.0,0.0,0.0,0.0,0.0,0.0,0.0,0.0,0.0,0.0,0.0,0.0,0.0,0.0,0.0,0.0,0.0,0.0,0.0,0.0,0.0,0.0,0.0,0.0,0.0,0.0,0.0,0.0,0.0,0.0,0.0,0.0,0.0,0.0,0.0,0.0,0.0,0.0,0.0,0.0,0.0,0.0,0.0,0.0,0.0,0.0,0.0,0.0,0.0,0.0,0.0,0.0,0.0,0.0,0.0,0.0,0.0,0.0,0.0,0.0,0.0,0.0,0.0,0.0,0.0,0.0,0.0,0.0,0.0,0.0,0.0,0.0,0.0,0.0,0.0,0.0,0.0,0.0,0.0,0.0,0.0,0.0,0.0,0.0,0.0,0.0,0.0,0.0,0.0,0.0,0.0,0.0,0.0,0.0,0.0,0.0,0.0,0.0,0.0,0.0,0.0,0.0,0.0,-1.5101,-1.6999,-1.8677,-1.9925,-1.9918,-1.9856,0.0,0.0,0.0,0.0,0.0,0.0,0.0,0.0,0.0,0.0,0.0,0.0,0.0,0.0,0.0,0.0,0.0,0.0,0.0,0.0,0.0,0.0,0.0,0.0,0.0,0.0,0.0,0.0,0.0,0.0,0.0,0.0,0.0,0.0,0.0,0.0,0.0,0.0,0.0,0.0,0.0,0.0,0.0,0.0,0.0,0.0,0.0,0.0,0.0,0.0,0.0,0.0,0.0,0.0,0.0,0.0,0.0,0.0,0.0,0.0,0.0,0.0,0.0,0.0,0.0,0.0,0.0,0.0,0.0,0.0,0.0,0.0,0.0,0.0,0.0,0.0,0.0,0.0,0.0,0.0,0.0,0.0,0.0,0.0,0.0,0.0,0.0,0.0,0.0,0.0,0.0,0.0,0.0,0.0,0.0,0.0,0.0,0.0,0.0,0.0,0.0,0.0,0.0,0.0,0.0,0.0,0.0,0.0,0.0,-1.5814,0.0,-1.9662,-2.0274,-2.0501,-2.0388,0.0,0.0,0.0,0.0,0.0,0.0,0.0,0.0,0.0,0.0,0.0,0.0,0.0,0.0,0.0,0.0,0.0,0.0,0.0,0.0,0.0,0.0,0.0,0.0,0.0,0.0,0.0,0.0,0.0,0.0,0.0,0.0,0.0,0.0,0.0,0.0,0.0,0.0,0.0,0.0,0.0,0.0,0.0,0.0,0.0,0.0,0.0,0.0,0.0,0.0,0.0,0.0,0.0,0.0,0.0,0.0,0.0,0.0,0.0,0.0,0.0,0.0,0.0,0.0,0.0,0.0,0.0,0.0,0.0,0.0,0.0,0.0,0.0,0.0,0.0,0.0,0.0,0.0,0.0,0.0,0.0,0.0,0.0,0.0,0.0,0.0,0.0,0.0,0.0,0.0,0.0,0.0,0.0,0.0,0.0,0.0,0.0,0.0,0.0,0.0,0.0,0.0,0.0,0.0,0.0,0.0,0.0,0.0,-1.6099,-1.8849,-2.0118,-2.0683,-2.0582,-2.1498,-2.1255,0.0,0.0,0.0,0.0,0.0,0.0,0.0,0.0,0.0,0.0,0.0,0.0,0.0,0.0,0.0,0.0,0.0,0.0,0.0,0.0,0.0,0.0,0.0,0.0,0.0,0.0,0.0,0.0,0.0,0.0,0.0,0.0,0.0,0.0,0.0,0.0,0.0,0.0,0.0,0.0,0.0,0.0,0.0,0.0,0.0,0.0,0.0,0.0,0.0,0.0,0.0,0.0,0.0,0.0,0.0,0.0,0.0,0.0,0.0,0.0,0.0,0.0,0.0,0.0,0.0,0.0,0.0,0.0,0.0,0.0,0.0,0.0,0.0,0.0,0.0,0.0,0.0,0.0,0.0,0.0,0.0,0.0,0.0,0.0,0.0,0.0,0.0,0.0,0.0,0.0,0.0,0.0,0.0,0.0,0.0,0.0,0.0,0.0,0.0,0.0,0.0,0.0,0.0,0.0,0.0,0.0,0.0,0.0,0.0,-1.8721,-2.041,-2.1551,-2.2118,-2.1903,-2.1365,0.0,0.0,0.0,0.0,0.0,0.0,0.0,0.0,0.0,0.0,0.0,0.0,0.0,0.0,0.0,0.0,0.0,0.0,0.0,0.0,0.0,0.0,0.0,0.0,0.0,0.0,0.0,0.0,0.0,0.0,0.0,0.0,0.0,0.0,0.0,0.0,0.0,0.0,0.0,0.0,0.0,0.0,0.0,0.0,0.0,0.0,0.0,0.0,0.0,0.0,0.0,0.0,0.0,0.0,0.0,0.0,0.0,0.0,0.0,0.0,0.0,0.0,0.0,0.0,0.0,0.0,0.0,0.0,0.0,0.0,0.0,0.0,0.0,0.0,0.0,0.0,0.0,0.0,0.0,0.0,0.0,0.0,0.0,0.0,0.0,0.0,0.0,0.0,0.0,0.0,0.0,0.0,0.0,0.0,0.0,0.0,0.0,0.0,0.0,0.0,0.0,0.0,0.0,0.0,0.0,0.0,0.0,0.0,0.0,-1.972,-2.1202,-2.2245,-2.2784,-2.262,-2.2105,-2.1149,0.0,0.0,0.0,0.0,0.0,0.0,0.0,0.0,0.0,0.0,0.0,0.0,0.0,0.0,0.0,0.0,0.0,0.0,0.0,0.0,0.0,0.0,0.0,0.0,0.0,0.0,0.0,0.0,0.0,0.0,0.0,0.0,0.0,0.0,0.0,0.0,0.0,0.0,0.0,0.0,0.0,0.0,0.0,0.0,0.0,0.0,0.0,0.0,0.0,0.0,0.0,0.0,0.0,0.0,0.0,0.0,0.0,0.0,0.0,0.0,0.0,0.0,0.0,0.0,0.0,0.0,0.0,0.0,0.0,0.0,0.0,0.0,0.0,0.0,0.0,0.0,0.0,0.0,0.0,0.0,0.0,0.0,0.0,0.0,0.0,0.0,0.0,0.0,0.0,0.0,0.0,0.0,0.0,0.0,0.0,0.0,0.0,0.0,0.0,0.0,0.0,0.0,0.0,0.0,0.0,0.0,0.0,0.0,-2.1588,-2.2443,-2.2862,-2.2825,-2.3636,-2.3302,0.0,0.0,0.0,0.0,0.0,0.0,0.0,0.0,0.0,0.0,0.0,0.0,0.0,0.0,0.0,0.0,0.0,0.0,0.0,0.0,0.0,0.0,0.0,0.0,0.0,0.0,0.0,0.0,0.0,0.0,0.0,0.0,0.0,0.0,0.0,0.0,0.0,0.0,0.0,0.0,0.0,0.0,0.0,0.0,0.0,0.0,0.0,0.0,0.0,0.0,0.0,0.0,0.0,0.0,0.0,0.0,0.0,0.0,0.0,0.0,0.0,0.0,0.0,0.0,0.0,0.0,0.0,0.0,0.0,0.0,0.0,0.0,0.0,0.0,0.0,0.0,0.0,0.0,0.0,0.0,0.0,0.0,0.0,0.0,0.0,0.0,0.0,0.0,0.0,0.0,0.0,0.0,0.0,0.0,0.0,0.0,0.0,0.0,0.0,0.0,0.0,0.0,0.0,0.0,0.0,0.0,0.0,0.0,0.0,-2.1868,-2.3009,-2.3966,-2.4692,-2.4341,-2.3593,0.0,0.0,0.0,0.0,0.0,0.0,0.0,0.0,0.0,0.0,0.0,0.0,0.0,0.0,0.0,0.0,0.0,0.0,0.0,0.0,0.0,0.0,0.0,0.0,0.0,0.0,0.0,0.0,0.0,0.0,0.0,0.0,0.0,0.0,0.0,0.0,0.0,0.0,0.0,0.0,0.0,0.0,0.0,0.0,0.0,0.0,0.0,0.0,0.0,0.0,0.0,0.0,0.0,0.0,0.0,0.0,0.0,0.0,0.0,0.0,0.0,0.0,0.0,0.0,0.0,0.0,0.0,0.0,0.0,0.0,0.0,0.0,0.0,0.0,0.0,0.0,0.0,0.0,0.0,0.0,0.0,0.0,0.0,0.0,0.0,0.0,0.0,0.0,0.0,0.0,0.0,0.0,0.0,0.0,0.0,0.0,0.0,0.0,0.0,0.0,0.0,0.0,0.0,0.0,0.0,0.0,0.0,0.0,-2.1402,-2.2828,-2.421,-2.5258,-2.5978,-2.5103,-2.4237,0.0,0.0,0.0,0.0,0.0,0.0,0.0,0.0,0.0,0.0,0.0,0.0,0.0,0.0,0.0,0.0,0.0,0.0,0.0,0.0,0.0,0.0,0.0,0.0,0.0,0.0,0.0,0.0,0.0,0.0,0.0,0.0,0.0,0.0,0.0,0.0,0.0,0.0,0.0,0.0,0.0,0.0,0.0,0.0,0.0,0.0,0.0,0.0,0.0,0.0,0.0,0.0,0.0,0.0,0.0,0.0,0.0,0.0,0.0,0.0,0.0,0.0,0.0,0.0,0.0,0.0,0.0,0.0,0.0,0.0,0.0,0.0,0.0,0.0,0.0,0.0,0.0,0.0,0.0,0.0,0.0,0.0,0.0,0.0,0.0,0.0,0.0,0.0,0.0,0.0,0.0,0.0,0.0,0.0,0.0,0.0,0.0,0.0,0.0,0.0,0.0,0.0,0.0,0.0,0.0,0.0,0.0,0.0,-2.2693,-2.4089,-2.5466,-2.6343,-2.6573,-2.586,-2.5031,0.0,0.0,0.0,0.0,0.0,0.0,0.0,0.0,0.0,0.0,0.0,0.0,0.0,0.0,0.0,0.0,0.0,0.0,0.0,0.0,0.0,0.0,0.0,0.0,0.0,0.0,0.0,0.0,0.0,0.0,0.0,0.0,0.0,0.0,0.0,0.0,0.0,0.0,0.0,0.0,0.0,0.0,0.0,0.0,0.0,0.0,0.0,0.0,0.0,0.0,0.0,0.0,0.0,0.0,0.0,0.0,0.0,0.0,0.0,0.0,0.0,0.0,0.0,0.0,0.0,0.0,0.0,0.0,0.0,0.0,0.0,0.0,0.0,0.0,0.0,0.0,0.0,0.0,0.0,0.0,0.0,0.0,0.0,0.0,0.0,0.0,0.0,0.0,0.0,0.0,0.0,0.0,0.0,0.0,0.0,0.0,0.0,0.0,0.0,0.0,0.0,0.0,0.0,0.0,0.0,0.0,0.0,0.0,-2.2462,-2.4787,-2.5273,-2.569,-2.6041,-2.5882,-2.5243,0.0,0.0,0.0,0.0,0.0,0.0,0.0,0.0,0.0,0.0,0.0,0.0,0.0,0.0,0.0,0.0,0.0,0.0,0.0,0.0,0.0,0.0,0.0,0.0,0.0,0.0,0.0,0.0,0.0,0.0,0.0,0.0,0.0,0.0,0.0,0.0,0.0,0.0,0.0,0.0,0.0,0.0,0.0,0.0,0.0,0.0,0.0,0.0,1.9673,0.0,0.0,0.0,0.0,0.0,0.0,0.0,0.0,0.0,0.0,0.0,0.0,0.0,0.0,0.0,0.0,0.0,0.0,0.0,0.0,0.0,0.0,0.0,0.0,0.0,0.0,0.0,0.0,0.0,0.0,0.0,0.0,0.0,0.0,0.0,0.0,0.0,0.0,0.0,0.0,0.0,0.0,0.0,0.0,0.0,0.0,0.0,0.0,0.0,0.0,0.0,0.0,0.0,0.0,0.0,0.0,0.0,0.0,0.0,-2.3281,-2.5608,-2.6179,-2.6465,-2.6505,-2.634,-2.563,0.0,0.0,0.0,0.0,0.0,0.0,0.0,0.0,0.0,0.0,0.0,0.0,0.0,0.0,0.0,0.0,0.0,0.0,0.0,0.0,0.0,0.0,0.0,0.0,0.0,0.0,0.0,0.0,0.0,0.0,0.0,0.0,0.0,0.0,0.0,0.0,0.0,0.0,0.0,0.0,0.0,0.0,0.0,0.0,0.0,0.0,0.0,0.0,0.0,0.0,0.0,0.0,0.0,0.0,0.0,0.0,0.0,0.0,0.0,0.0,0.0,0.0,0.0,0.0,0.0,0.0,0.0,0.0,0.0,0.0,0.0,0.0,0.0,0.0,0.0,0.0,0.0,0.0,0.0,0.0,0.0,0.0,0.0,0.0,0.0,0.0,0.0,0.0,0.0,0.0,0.0,0.0,0.0,0.0,0.0,0.0,0.0,0.0,0.0,0.0,0.0,0.0,0.0,0.0,0.0,0.0,0.0,-2.2524,-2.4391,-2.6507,-2.7232,-2.7397,-2.7077,-2.6655,-2.5859,-2.4648,0.0,0.0,0.0,0.0,0.0,0.0,0.0,0.0,0.0,0.0,0.0,0.0,0.0,0.0,0.0,0.0,0.0,0.0,0.0,0.0,0.0,0.0,0.0,0.0,0.0,0.0,0.0,0.0,0.0,0.0,0.0,0.0,0.0,0.0,0.0,0.0,0.0,0.0,2.052,2.0777,0.0,0.0,0.0,0.0,0.0,0.0,0.0,0.0,2.0366,0.0,0.0,0.0,0.0,0.0,0.0,0.0,0.0,0.0,0.0,0.0,0.0,0.0,0.0,0.0,0.0,0.0,0.0,0.0,0.0,0.0,0.0,0.0,0.0,0.0,0.0,0.0,0.0,0.0,0.0,0.0,0.0,0.0,0.0,0.0,0.0,0.0,0.0,0.0,0.0,0.0,0.0,0.0,0.0,0.0,0.0,0.0,0.0,0.0,0.0,0.0,0.0,0.0,0.0,0.0,0.0,-2.1924,-2.2863,-2.4644,-2.731,-2.7034,-2.677,-2.6517,-2.5979,-2.5359,-2.4679,0.0,0.0,0.0,0.0,0.0,0.0,0.0,0.0,0.0,0.0,0.0,0.0,0.0,0.0,0.0,0.0,0.0,0.0,0.0,0.0,0.0,0.0,0.0,0.0,0.0,0.0,0.0,0.0,0.0,0.0,0.0,0.0,0.0,0.0,0.0,0.0,0.0,0.0,0.0,2.2784,2.2885,0.0,0.0,0.0,0.0,0.0,0.0,0.0,0.0,2.0617,0.0,0.0,0.0,0.0,0.0,0.0,0.0,0.0,0.0,0.0,0.0,0.0,0.0,0.0,0.0,0.0,0.0,0.0,0.0,0.0,0.0,0.0,0.0,0.0,0.0,0.0,0.0,0.0,0.0,0.0,0.0,0.0,0.0,0.0,0.0,0.0,0.0,0.0,0.0,0.0,0.0,0.0,0.0,0.0,0.0,0.0,0.0,0.0,0.0,0.0,0.0,0.0,0.0,0.0,0.0,-2.2442,-2.3023,-2.4501,-2.6974,-2.6808,-2.6588,-2.6478,-2.5858,-2.5419,0.0,0.0,0.0,0.0,0.0,0.0,0.0,0.0,0.0,0.0,0.0,0.0,0.0,0.0,0.0,0.0,0.0,0.0,0.0,0.0,0.0,0.0,0.0,0.0,0.0,0.0,0.0,0.0,0.0,0.0,0.0,0.0,0.0,0.0,0.0,0.0,0.0,0.0,0.0,0.0,2.2871,2.3196,2.2801,0.0,0.0,0.0,0.0,0.0,0.0,2.1021,2.1055,0.0,0.0,0.0,0.0,0.0,0.0,0.0,0.0,0.0,0.0,0.0,0.0,0.0,0.0,0.0,0.0,0.0,0.0,0.0,0.0,0.0,0.0,0.0,0.0,0.0,0.0,0.0,0.0,0.0,0.0,0.0,0.0,0.0,0.0,0.0,0.0,0.0,0.0,0.0,0.0,0.0,0.0,0.0,0.0,0.0,0.0,0.0,0.0,0.0,0.0,0.0,0.0,0.0,0.0,0.0,-2.2651,-2.3378,-2.4473,-2.6035,-2.6262,-2.6349,-2.6279,-2.5764,-2.5592,0.0,0.0,0.0,0.0,0.0,0.0,0.0,0.0,0.0,0.0,0.0,0.0,0.0,0.0,0.0,0.0,0.0,0.0,0.0,0.0,0.0,0.0,0.0,0.0,0.0,0.0,0.0,0.0,0.0,0.0,0.0,0.0,0.0,0.0,0.0,0.0,0.0,0.0,0.0,0.0,0.0,2.3454,2.326,2.2594,0.0,0.0,0.0,0.0,2.1282,2.1651,0.0,0.0,0.0,0.0,0.0,0.0,0.0,0.0,0.0,0.0,0.0,0.0,0.0,0.0,0.0,0.0,0.0,0.0,0.0,0.0,0.0,0.0,0.0,0.0,0.0,0.0,0.0,0.0,0.0,0.0,0.0,0.0,0.0,0.0,0.0,0.0,0.0,0.0,0.0,0.0,0.0,0.0,0.0,0.0,0.0,0.0,0.0,0.0,0.0,0.0,0.0,0.0,0.0,0.0,0.0,0.0,-2.2016,-2.4149,-2.4942,-2.446,-2.5147,-2.5459,-2.5287,-2.5436,-2.5576,0.0,0.0,0.0,0.0,0.0,0.0,0.0,0.0,0.0,0.0,0.0,0.0,0.0,0.0,0.0,0.0,0.0,0.0,0.0,0.0,0.0,0.0,0.0,0.0,0.0,0.0,0.0,0.0,0.0,0.0,0.0,0.0,0.0,0.0,0.0,0.0,0.0,0.0,0.0,0.0,0.0,2.4998,2.4173,2.3965,2.3652,0.0,0.0,2.316,2.3834,2.3388,0.0,0.0,0.0,0.0,0.0,0.0,0.0,0.0,0.0,0.0,0.0,0.0,0.0,0.0,0.0,0.0,0.0,0.0,0.0,0.0,0.0,0.0,0.0,0.0,0.0,0.0,0.0,0.0,0.0,0.0,0.0,0.0,0.0,0.0,0.0,0.0,0.0,0.0,0.0,0.0,0.0,0.0,0.0,0.0,0.0,0.0,0.0,0.0,0.0,0.0,0.0,0.0,0.0,0.0,0.0,-2.084,-2.2561,-2.4468,-2.5494,-2.5575,-2.5911,-2.6035,-2.6002,-2.5276,-2.4997,0.0,0.0,0.0,0.0,0.0,0.0,0.0,0.0,0.0,0.0,0.0,0.0,0.0,0.0,0.0,0.0,0.0,0.0,0.0,0.0,0.0,0.0,0.0,0.0,0.0,0.0,0.0,0.0,0.0,0.0,0.0,0.0,0.0,0.0,0.0,0.0,0.0,0.0,0.0,0.0,0.0,0.0,2.5038,2.453,0.0,0.0,0.0,2.3742,2.3679,0.0,0.0,0.0,0.0,0.0,0.0,0.0,0.0,0.0,0.0,0.0,0.0,0.0,0.0,0.0,0.0,0.0,0.0,0.0,0.0,0.0,0.0,0.0,0.0,0.0,0.0,0.0,0.0,0.0,0.0,0.0,0.0,0.0,0.0,0.0,0.0,0.0,0.0,0.0,0.0,0.0,0.0,0.0,0.0,0.0,0.0,0.0,0.0,0.0,0.0,0.0,0.0,0.0,0.0,0.0,0.0,0.0,-2.2939,-2.4551,-2.5575,-2.6002,-2.6193,-2.6315,-2.6333,-2.5113,0.0,0.0,0.0,0.0,0.0,0.0,0.0,0.0,0.0,0.0,0.0,0.0,0.0,0.0,0.0,0.0,0.0,0.0,0.0,0.0,0.0,0.0,0.0,0.0,0.0,0.0,0.0,0.9104,0.0,0.0,0.0,0.0,0.0,0.0,0.0,0.0,0.0,0.0,0.0,0.0,0.0,0.0,2.5558,2.5605,2.5191,2.4835,0.0,0.0,2.4436,2.3863,2.4309,2.4206,0.0,0.0,0.0,0.0,0.0,0.0,0.0,0.0,0.0,0.0,0.0,0.0,0.0,0.0,0.0,0.0,0.0,0.0,0.0,0.0,0.0,0.0,0.0,0.0,0.0,0.0,0.0,0.0,0.0,0.0,0.0,0.0,0.0,0.0,0.0,0.0,0.0,0.0,0.0,0.0,0.0,0.0,0.0,0.0,0.0,0.0,0.0,0.0,0.0,0.0,0.0,0.0,0.0,0.0,0.0,-2.2608,-2.4329,-2.4869,-2.4178,-2.5,-2.5459,-2.5363,-2.4789,-2.4315,0.0,0.0,0.0,0.0,0.0,0.0,0.0,0.0,0.0,0.0,0.0,0.0,0.0,0.0,0.0,0.0,0.0,0.0,0.0,0.0,0.0,0.0,0.0,0.0,0.0,0.0,0.0,0.0,0.0,0.0,0.0,0.0,0.0,0.0,0.0,0.0,0.0,0.0,0.0,0.0,0.0,2.562,2.5676,2.6283,2.6457,0.0,2.5603,2.5582,2.5544,2.5562,2.5262,2.4292,0.0,0.0,0.0,0.0,0.0,0.0,0.0,0.0,0.0,0.0,0.0,0.0,0.0,0.0,0.0,0.0,0.0,0.0,0.0,0.0,0.0,0.0,0.0,0.0,0.0,0.0,0.0,0.0,0.0,0.0,0.0,0.0,0.0,0.0,0.0,0.0,0.0,0.0,0.0,0.0,0.0,0.0,0.0,0.0,0.0,0.0,0.0,0.0,0.0,0.0,0.0,0.0,0.0,-2.1295,-2.283,-2.4742,-2.564,-2.5587,-2.5964,-2.6158,-2.6142,-2.508,-2.4344,0.0,0.0,0.0,0.0,0.0,0.0,0.0,0.0,0.0,0.0,0.0,0.0,0.0,0.0,0.0,0.0,0.0,0.0,0.0,0.0,0.0,0.0,0.0,0.0,0.0,0.0,0.0,0.0,1.9668,2.0028,1.9927,0.0,0.0,0.0,0.0,0.0,0.0,0.0,0.0,0.0,0.0,2.7223,2.7231,2.75,0.0,0.0,2.732,2.7124,2.6578,2.6517,2.5845,2.3876,2.3277,0.0,0.0,0.0,0.0,0.0,0.0,0.0,0.0,0.0,0.0,0.0,0.0,0.0,0.0,0.0,0.0,0.0,0.0,0.0,0.0,0.0,0.0,0.0,0.0,0.0,0.0,0.0,0.0,0.0,0.0,0.0,0.0,0.0,0.0,0.0,0.0,0.0,0.0,0.0,0.0,0.0,0.0,0.0,0.0,0.0,0.0,0.0,0.0,0.0,0.0,0.0,0.0,-2.1573,-2.3219,-2.4649,-2.5691,-2.6468,-2.6341,-2.6279,-2.6282,-2.508,-2.4133,0.0,0.0,0.0,0.0,0.0,0.0,0.0,0.0,0.0,0.0,0.0,0.0,0.0,0.0,0.0,0.0,0.0,0.0,0.0,0.0,0.0,0.0,0.0,0.0,0.0,0.0,0.0,0.0,2.0125,2.0406,2.024,0.0,0.0,0.0,0.0,0.0,0.0,0.0,0.0,0.0,0.0,2.8202,2.8231,2.8417,2.8515,2.8294,2.8053,2.7661,2.7056,2.7192,2.6585,2.4215,0.0,0.0,0.0,0.0,0.0,0.0,0.0,0.0,0.0,0.0,0.0,0.0,0.0,0.0,0.0,0.0,0.0,0.0,0.0,0.0,0.0,0.0,0.0,0.0,0.0,0.0,0.0,-1.6805,0.0,0.0,-1.6554,0.0,0.0,0.0,0.0,0.0,0.0,0.0,0.0,0.0,0.0,0.0,0.0,0.0,0.0,0.0,0.0,0.0,0.0,0.0,0.0,0.0,0.0,-2.0907,-2.3743,-2.3937,-2.4668,-2.615,-2.5699,-2.5497,-2.5524,-2.468,-2.356,-2.2176,0.0,0.0,0.0,0.0,0.0,0.0,0.0,0.0,0.0,0.0,0.0,0.0,0.0,0.0,0.0,0.0,0.0,0.0,0.0,0.0,0.0,0.0,0.0,0.0,0.0,0.0,2.0569,2.0358,2.022,0.0,0.0,0.0,0.0,0.0,0.0,0.0,0.0,0.0,0.0,2.7125,2.825,2.8359,2.8984,2.9238,2.8435,2.7582,2.701,2.7043,2.7705,2.7652,0.0,0.0,0.0,0.0,0.0,0.0,0.0,0.0,0.0,0.0,0.0,0.0,0.0,0.0,0.0,0.0,0.0,0.0,0.0,0.0,0.0,0.0,0.0,0.0,0.0,0.0,0.0,-1.9521,-1.889,0.0,0.0,0.0,0.0,0.0,0.0,0.0,0.0,0.0,0.0,0.0,-2.2104,-2.3275,0.0,0.0,0.0,0.0,0.0,0.0,0.0,0.0,0.0,0.0,0.0,0.0,-2.1753,-2.4772,-2.5178,-2.5774,-2.661,-2.6205,-2.5773,-2.5443,-2.4712,-2.3426,-2.1489,0.0,0.0,0.0,0.0,0.0,0.0,0.0,0.0,0.0,0.0,0.0,0.0,0.0,0.0,0.0,0.0,0.0,0.0,0.0,0.0,0.0,0.0,0.0,0.0,0.0,2.0782,0.0,0.0,0.0,0.0,0.0,0.0,0.0,0.0,0.0,0.0,0.0,2.6072,2.7285,2.8905,3.0175,3.0739,3.1074,3.1328,0.0,0.0,0.0,0.0,0.0,0.0,0.0,0.0,0.0,0.0,0.0,0.0,0.0,0.0,2.6359,2.3503,2.2755,2.2821,2.3628,0.0,0.0,0.0,0.0,0.0,0.0,0.0,0.0,0.0,0.0,0.0,0.0,0.0,0.0,-2.1626,0.0,-2.0985,0.0,0.0,0.0,0.0,0.0,0.0,0.0,0.0,-2.3054,-2.3998,-2.4809,-2.5899,-2.5863,0.0,-2.4644,-2.3305,0.0,0.0,0.0,0.0,0.0,0.0,0.0,0.0,-2.259,-2.5306,-2.5894,-2.6409,-2.6949,-2.6493,-2.5952,-2.5377,-2.4481,-2.3406,-2.207,-2.0918,-1.9949,0.0,0.0,0.0,0.0,0.0,0.0,0.0,0.0,0.0,0.0,0.0,0.0,0.0,0.0,0.0,0.0,0.0,0.0,0.0,0.0,0.0,0.0,0.0,2.1183,0.0,0.0,0.0,0.0,0.0,0.0,0.0,0.0,0.0,2.4796,2.6556,2.8281,2.9471,3.0859,3.1953,3.248,0.0,0.0,0.0,0.0,0.0,0.0,0.0,3.004,2.9195,2.8872,2.8513,2.7911,2.7804,2.7776,2.7777,0.0,0.0,2.5795,2.522,2.5473,2.6273,2.6637,2.6912,2.718,2.7393,2.7412,0.0,0.0,0.0,0.0,0.0,0.0,0.0,0.0,-2.252,-2.3271,0.0,-2.3276,0.0,0.0,0.0,0.0,-2.194,-2.3522,0.0,0.0,-2.6791,-2.7722,-2.7769,-2.8566,-2.8864,-2.8716,-2.8578,-2.7661,-2.59,-2.207,0.0,0.0,0.0,0.0,0.0,0.0,-2.3396,-2.5395,-2.6012,-2.6581,-2.7195,-2.6581,-2.5952,-2.5302,-2.4025,-2.3514,-2.3685,-2.1606,-2.0183,-1.9675,-1.847,0.0,0.0,0.0,0.0,0.0,0.0,0.0,0.0,0.0,0.0,0.0,0.0,0.0,0.0,0.0,0.0,0.0,0.0,0.0,0.0,2.1816,0.0,0.0,0.0,0.0,0.0,0.0,0.0,0.0,0.0,0.0,2.8335,2.9119,3.029,3.1911,0.0,0.0,0.0,0.0,3.3426,3.3414,3.267,3.1875,3.1067,3.1596,3.1291,2.8934,0.0,0.0,2.9955,2.9576,2.9499,2.9531,3.0263,3.0515,2.97,2.9336,2.9537,3.0296,2.9873,2.9708,3.0317,2.9877,2.935,-2.5697,0.0,0.0,0.0,0.0,-2.5722,-2.6446,-2.7805,-2.7441,-2.676,-2.5905,-2.5567,0.0,0.0,0.0,0.0,0.0,0.0,-2.6533,-2.7657,-2.7923,-2.8271,-2.8851,-2.9289,-2.924,-2.8753,-2.8323,-2.7657,-2.6755,-2.519,-2.3154,-2.0709,0.0,0.0,0.0,0.0,-2.5453,-2.7379,-2.7297,-2.7379,-2.7703,-2.7165,-2.6382,-2.5333,-2.4596,-2.4099,-2.3869,-2.2879,-2.1881,-2.085,-2.0,0.0,0.0,0.0,0.0,0.0,0.0,0.0,0.0,0.0,0.0,0.0,0.0,0.0,0.0,0.0,0.0,0.0,0.0,0.0,2.0462,2.1684,2.2415,0.0,0.0,0.0,0.0,0.0,0.0,0.0,0.0,0.0,3.2487,3.1932,3.1796,0.0,0.0,3.3611,3.4159,3.4297,3.4531,3.5074,3.4902,0.0,3.4452,3.354,3.308,3.3589,3.3808,3.3711,3.3218,3.2111,3.1474,3.2069,3.238,3.2652,3.2885,3.1525,3.0729,3.1326,3.1794,3.2106,3.2278,3.2104,3.1714,-3.0154,-2.8851,-2.7297,-2.7412,-2.8594,-2.8478,-2.906,-3.008,-2.9804,-2.9329,-2.8836,-2.8301,-2.7218,-2.5729,-2.524,0.0,0.0,0.0,-2.8735,-2.9889,-2.9621,-2.9918,-3.0728,-3.0891,-3.0852,-3.0617,-3.0005,-2.9535,-2.9254,-2.8343,-2.6862,-2.4836,0.0,0.0,-2.4868,-2.547,-2.6635,-2.8288,-2.8077,-2.8,-2.8077,-2.755,-2.6888,-2.5999,-2.5558,-2.5155,-2.4869,-2.4075,-2.3156,-2.2044,-2.1394,-2.0551,0.0,0.0,0.0,0.0,0.0,0.0,0.0,0.0,0.0,0.0,0.0,1.184,1.7476,0.0,0.0,0.0,2.015,2.1013,2.1825,2.317,0.0,0.0,0.0,0.0,0.0,0.0,0.0,3.0243,3.2148,3.3941,3.5449,3.5098,3.4609,3.4452,3.4431,3.4722,3.5545,0.0,3.5973,3.6769,3.6851,3.6728,3.6401,3.5466,3.5008,3.5749,3.5182,3.4925,3.5477,3.4703,3.4245,3.4653,3.4808,3.4866,3.4983,3.372,3.271,3.2905,3.3311,3.3635,3.3593,3.3523,3.3311,-3.4363,-3.4401,-3.0748,-2.9528,-2.9983,-3.0445,-3.0575,-3.0464,-3.0624,-3.1345,-3.2373,-3.1319,-3.0564,-3.0043,-2.9053,0.0,-3.0016,-3.0628,-3.1303,-3.1934,-3.1903,-3.2294,-3.3069,-3.2972,-3.3117,-3.3414,-3.2752,-3.2467,-3.2491,-3.1156,-3.0354,-2.9909,-2.7566,-2.6719,-2.7347,-2.6931,-2.7278,-2.8535,-2.8455,-2.8409,-2.8411,-2.7687,-2.7224,-2.6944,-2.6612,-2.6361,-2.623,-2.5102,-2.4035,-2.3257,-2.2609,-2.1676,-2.0373,0.0,0.0,0.0,0.0,0.0,0.0,0.0,0.0,0.0,0.0,0.0,0.0,0.0,0.0,0.0,2.1526,0.0,2.4515,2.5633,0.0,0.0,0.0,2.7998,2.7216,3.0265,3.238,3.2322,0.0,0.0,3.7411,3.8104,3.8008,3.6406,3.6209,3.6482,3.7284,3.732,3.7572,3.8213,3.8356,3.8105,3.7327,3.7113,3.6851,3.6333,3.5429,3.5593,3.681,3.6989,3.7061,3.71,3.7139,3.6887,3.6148,3.5818,3.5538,3.4675,3.4535,3.4476,3.4422,3.4263,3.4115,-3.4829,-3.5751,-3.4276,-3.3684,-3.3794,-3.4153,-3.4312,-3.4292,-3.4516,-3.4413,-3.412,-3.3814,-3.3266,-3.256,-3.2889,-3.3178,-3.3442,-3.4207,-3.4627,-3.4758,-3.4431,-3.4391,-3.4571,-3.3852,-3.3602,-3.3727,-3.2867,-3.2512,-3.263,-3.1469,-3.0891,-3.0826,-2.9828,-2.9311,-2.9247,-2.9254,-2.9358,-2.9695,-2.8813,-2.841,-2.8348,-2.7306,-2.6687,-2.6624,-2.6657,-2.6271,-2.5439,-2.5456,-2.4979,-2.4089,-2.3909,-2.3503,-2.2689,-2.0814,0.0,0.0,0.0,0.0,0.0,0.0,0.0,0.0,0.0,1.5769,1.892,0.0,2.2157,0.0,2.4449,2.5533,2.5051,2.6885,0.0,0.0,3.0128,3.1418,3.2488,3.405,3.5298,3.5864,3.7289,3.8216,3.8233,3.8436,3.8457,3.8026,3.7985,3.8045,3.8202,3.826,3.829,3.8424,3.8518,3.8383,3.8175,3.81,3.803,3.7825,3.7614,3.7664,3.803,3.7517,3.7294,3.7877,3.7528,3.7314,3.7664,3.6733,3.5812,3.5471,3.5406,3.5377,3.5271,3.4751,3.4275,-3.6077,-3.6818,-3.6732,-3.6689,-3.6622,-3.5935,-3.5541,-3.5406,-3.5698,-3.5556,-3.5126,-3.5169,-3.4981,-3.4558,-3.4932,-3.515,-3.5155,-3.5375,-3.5472,-3.5472,-3.503,-3.4922,-3.5089,-3.457,-3.4435,-3.461,-3.3851,-3.3532,-3.3561,-3.2529,-3.1994,-3.206,-3.1539,-3.1211,-3.0985,-3.0188,-2.9795,-2.9849,-2.8912,-2.8198,-2.7669,-2.7196,-2.6623,-2.585,-2.6452,-2.6275,-2.5198,-2.549,-2.5315,-2.456,-2.4395,-2.4137,-2.3758,-2.1499,-2.0467,0.0,0.0,0.0,0.0,0.0,0.0,0.0,0.0,0.0,0.0,0.0,2.34,2.445,2.6094,2.7083,2.7051,2.9045,3.0725,3.1634,3.3422,3.4695,3.4996,3.6567,3.7691,3.7771,3.8885,3.9663,3.966,3.9687,3.9726,3.9746,4.0056,3.9978,3.9257,3.912,3.9227,3.9493,3.9587,3.9597,3.9527,3.9198,3.8984,3.8984,3.8965,3.8984,3.8984,3.8907,3.8848,3.8926,3.8576,3.8266,3.8343,3.7665,3.691,3.6822,3.6542,3.5996,3.5188,3.4912,3.4815,-3.7629,-3.768,-3.8318,-3.8594,-3.8466,-3.6795,-3.5905,-3.5669,-3.6014,-3.6182,-3.6116,-3.628,-3.6363,-3.6345,-3.6284,-3.6215,-3.6125,-3.5808,-3.5598,-3.5492,-3.522,-3.5279,-3.5618,-3.5535,-3.5685,-3.5938,-3.5352,-3.505,-3.505,-3.3973,-3.3419,-3.3324,-3.271,-3.2308,-3.2114,-3.0353,-2.9469,-2.9493,-2.8857,-2.804,-2.6947,-2.7324,-2.6806,-2.5459,-2.615,-2.612,-2.5194,-2.5273,-2.5122,-2.457,-2.4307,-2.4191,-2.4137,-2.2009,-2.0774,0.0,-1.9579,0.0,0.0,0.0,0.0,0.0,0.0,0.0,0.0,2.4392,2.506,2.6507,2.7566,2.8721,3.0039,3.1675,3.3089,3.4129,3.6502,3.7553,3.6482,3.8396,3.9608,3.8926,4.0274,4.1267,4.124,4.1347,4.1464,4.1543,4.203,4.1912,4.0683,4.0272,4.0398,4.0971,4.0983,4.0779,4.0701,4.0247,3.9839,3.9839,3.9839,3.9848,3.9858,4.0364,4.0616,4.0014,3.982,3.9587,3.8829,3.8627,3.8452,3.8365,3.7714,3.6663,3.5276,3.5117,3.5468,-3.8387,-3.8387,-3.8525,-3.8594,-3.8543,-3.8217,-3.8164,-3.8461,-3.9156,-3.9247,-3.8836,-3.8833,-3.8812,-3.8812,-3.8812,-3.8493,-3.7942,-3.8337,-3.8205,-3.7623,-3.8023,-3.8268,-3.8342,-3.8018,-3.7902,-3.7888,-3.7047,-3.6572,-3.6572,-3.5449,-3.462,-3.3981,-3.3012,-3.1945,-3.0881,0.0,0.0,0.0,-2.8924,-2.8509,-2.8167,-2.73,-2.6945,-2.7086,-2.635,0.0,-2.4919,-2.4787,-2.4313,-2.3334,-2.3834,0.0,0.0,0.0,0.0,0.0,0.0,0.0,0.0,0.0,0.0,0.0,0.9594,1.3442,2.389,2.815,2.9983,2.9484,3.1544,3.3125,3.3529,3.4292,3.5327,3.668,3.8035,3.8899,3.9028,4.0106,4.0762,4.0655,4.1515,4.2147,4.2184,4.2749,4.3164,4.3144,4.3338,4.3319,4.2966,4.2246,4.166,4.1171,4.098,4.0974,4.0906,4.0733,4.0597,4.0674,4.0655,4.0655,4.0655,4.0733,4.0888,4.0635,4.0694,4.0626,4.0393,3.9869,3.9314,3.9301,3.857,3.7626,3.6554,3.5926,3.5579,-3.9129,-3.9163,-3.956,-3.9715,0.0,-4.004,-4.0113,-4.0035,-3.9846,-3.9747,-3.9686,-3.9607,-3.9545,-3.9545,-3.9522,-3.927,-3.8934,-3.9059,-3.8898,-3.8566,-3.859,-3.8605,-3.8587,-3.8368,-3.8184,-3.8184,-3.7385,-3.6969,-3.6918,-3.5851,-3.507,-3.4707,-3.3891,-3.2976,-3.1957,-3.1252,-3.0296,-2.9035,-2.8788,-2.851,-2.8078,-2.752,-2.6909,-2.6315,-2.602,0.0,0.0,0.0,0.0,0.0,0.0,0.0,0.0,-2.2717,0.0,-2.2613,-2.1467,-1.9074,-1.5372,-1.1766,-0.5034,0.5654,1.3042,1.9749,2.5995,3.0326,3.2446,3.1732,3.3552,3.4846,3.5002,3.5541,3.6414,3.7717,3.8807,3.9637,4.0081,4.057,4.1069,4.1637,4.2058,4.2485,4.2949,4.3383,4.3689,4.3729,4.4082,4.4179,4.3707,4.2964,4.2065,4.1168,4.0986,4.0992,4.0968,4.0956,4.0927,4.0907,4.0888,4.0888,4.0888,4.0888,4.0888,4.0888,4.0888,4.0898,4.0868,4.0498,4.0156,4.0064,3.9429,3.8704,3.8132,3.7417,3.667,-3.9905,-3.9957,-4.0612,-4.0871,-4.0918,-4.1422,-4.1359,-4.0832,-3.9913,0.0,0.0,-3.9893,-3.9835,-3.9835,-3.9764,-3.9669,-3.9546,-3.9303,-3.9128,-3.9007,-3.8665,-3.8452,-3.8357,-3.8261,-3.8115,-3.7968,-3.7433,-3.7091,-3.7039,-3.5888,-3.5274,-3.5107,-3.448,-3.3682,-3.2882,-3.2283,-3.096,-2.9018,-2.892,-2.8593,-2.7895,-2.7773,-2.706,-2.5608,-2.5796,-2.5367,-2.4315,-2.4133,-2.3884,-2.3558,-2.287,-2.2826,-2.3452,-2.2672,-2.2456,-2.3117,-2.218,-2.0686,-1.8455,-1.1686,-0.4674,0.1953,1.6196,2.5818,2.8317,3.1891,3.387,3.3566,3.4909,3.588,3.6168,3.6623,3.7317,3.8367,3.9248,3.9947,4.0366,4.0486,4.0885,4.1807,4.2101,4.2583,4.3335,4.3747,4.3976,4.4164,4.4799,4.4921,4.4038,4.3071,4.2114,4.1464,4.1167,4.098,4.0987,4.0999,4.0965,4.0926,4.0917,4.0888,4.0888,4.0888,4.0888,4.0888,4.0888,4.0888,4.0868,4.0798,4.0815,4.08,4.0184,3.9612,3.9546,3.9052,3.82,-4.0698,-4.0733,-4.0836,-4.0871,-4.0871,-4.0982,-4.0982,-4.0918,-4.0723,-4.0683,-4.073,-4.073,-4.073,-4.073,-4.073,-4.032,-3.9732,-4.0203,-4.0057,-3.9456,-3.9966,-3.9898,-3.9412,-3.936,-3.9032,-3.8374,-3.7802,-3.7435,-3.7218,-3.603,-3.5085,-3.4448,-3.3318,-3.2097,-3.0882,-3.0719,-3.0515,-3.0147,-3.0121,-2.9619,-2.8478,-2.7976,-2.7817,-2.7959,-2.6599,-2.5835,-2.5614,-2.5001,-2.4218,-2.3341,-2.3511,-2.3865,-2.4312,-2.319,-2.2331,-2.2113,-2.1812,-1.9961,-1.6402,-1.4603,-0.8294,0.4361,1.5282,2.4231,3.0933,3.3532,3.487,3.5264,3.6592,3.7965,3.8733,3.876,3.8852,3.9261,3.958,3.9852,4.0193,4.0251,4.0419,4.0842,4.1574,4.2373,4.3119,4.4012,4.4757,4.5391,4.5527,4.5717,4.4794,4.3361,4.2377,4.2044,4.1483,4.1053,4.0976,4.0987,4.0996,4.0988,4.0935,4.0917,4.0917,4.0888,4.0888,4.0888,4.0888,4.0888,4.0837,4.0804,4.08,4.0776,4.0539,4.0417,4.0351,4.0183,3.9657,-4.0871,-4.0871,-4.0871,-4.0935,-4.0982,-4.1059,-4.1123,-4.1157,-4.1123,-4.1012,-4.0871,-4.0871,-4.0871,-4.0871,-4.0871,-4.0521,-3.9873,-4.0182,-3.9951,-3.9362,-3.9563,-3.9558,-3.9295,-3.9206,-3.8974,-3.8662,-3.801,-3.7679,-3.7445,-3.6352,-3.5507,-3.4902,-3.3557,-3.2541,-3.1972,-3.1553,-3.1219,-3.088,-3.0199,-2.9649,-2.9062,-2.8492,-2.8143,-2.8051,-2.7244,-2.6726,-2.6403,-2.5727,-2.5161,-2.4679,-2.4573,-2.4583,-2.4783,-2.4517,-2.4146,-2.369,-2.3438,-2.259,-2.0936,-1.6244,-0.7766,0.5246,1.2196,1.9141,2.6967,3.1849,3.48,3.5623,3.6666,3.7515,3.8204,3.845,3.8604,3.8821,3.9189,3.9583,3.9814,3.9834,4.0119,4.0857,4.1412,4.2068,4.2994,4.3605,4.4072,4.4492,4.5013,4.546,4.5578,4.4551,4.3338,4.2502,4.1968,4.1543,4.1123,4.1022,4.1033,4.0993,4.0976,4.0971,4.0963,4.0926,4.0888,4.0888,4.0908,4.0877,4.0818,4.0804,4.0808,4.0784,4.0713,4.0649,4.0602,4.0569,4.0254,-4.0662,-4.0631,-4.068,-4.0875,-4.1151,-4.1198,-4.1261,-4.1394,-4.1244,-4.1117,-4.0965,-4.0982,-4.0871,-4.0758,-4.0871,-4.05,-3.9919,-3.9952,-3.9697,-3.9206,-3.9098,-3.8974,-3.8865,-3.8717,-3.8623,-3.8399,-3.7886,-3.7519,-3.7326,-3.6368,-3.5464,-3.4876,-3.3768,-3.3157,-3.3101,-3.2574,-3.2024,-3.145,-3.0432,-2.9821,-2.9672,-2.9102,-2.8573,-2.8153,-2.7976,-2.7623,-2.704,-2.6552,-2.6299,-2.6194,-2.5714,-2.5412,-2.5354,-2.5716,-2.5668,-2.5169,-2.4873,-2.4514,-2.377,-1.791,-0.8917,0.2517,0.6554,1.2096,2.0608,2.6947,3.1783,3.4189,3.5749,3.6791,3.7255,3.7539,3.7814,3.8002,3.8649,3.9104,3.9255,3.9363,3.9769,4.0749,4.0997,4.1471,4.236,4.2792,4.3117,4.3682,4.4245,4.5053,4.5825,4.5523,4.4532,4.3349,4.2646,4.2128,4.1406,4.115,4.1096,4.1031,4.1013,4.0991,4.0996,4.0963,4.0917,4.0907,4.0878,4.0848,4.0807,4.0792,4.0808,4.0784,4.0694,4.0591,4.0574,4.0534,4.0489,-4.0003,-3.9782,-4.0121,-4.0624,-4.1302,-4.1209,-4.1261,-4.1331,-4.1244,-4.1209,-4.1117,-4.1123,-4.0758,-4.0351,-4.0693,-4.0286,-3.9418,-3.9749,-3.9697,-3.9189,-3.9189,-3.892,-3.8407,-3.8351,-3.801,-3.7417,-3.6968,-3.6923,-3.6984,-3.54,-3.4221,-3.3534,-3.3325,-3.3115,-3.2775,-3.2717,-3.2461,-3.216,-3.1463,-3.0866,-3.0323,-2.9713,-2.936,-2.9319,-2.8777,-2.8234,-2.7651,-2.7569,-2.7407,-2.7175,-2.6868,-2.6573,-2.6412,-2.6188,-2.5805,-2.5208,-2.4874,-2.3538,-2.1185,-1.9965,-1.5404,-0.6932,-0.3127,0.3067,1.3287,1.7599,2.2885,2.9252,3.4068,3.6006,3.6966,3.704,3.7166,3.7272,3.8089,3.8444,3.8475,3.8887,3.9369,3.9439,3.9879,4.0363,4.1159,4.1717,4.2574,4.3853,4.424,4.483,4.5765,4.5916,4.5557,4.4577,4.343,4.2492,4.2205,4.1572,4.1413,4.1246,4.1114,4.1221,4.131,4.1198,4.0999,4.1178,4.0868,4.0818,4.0796,4.08,4.0803,4.079,4.07,4.0597,4.053,4.0504,4.0489,-4.0517,-4.0546,-4.0468,-4.0571,-4.0739,-4.0745,-4.0789,-4.0806,-4.0772,-4.0754,-4.0707,-4.0662,-4.0662,-4.0754,-4.0563,-4.007,-3.9348,-3.9102,-3.8684,-3.823,-3.8173,-3.8059,-3.7844,-3.7828,-3.7669,-3.7405,-3.7165,-3.6938,-3.6476,-3.5154,-3.4085,-3.3632,-3.3409,-3.3199,-3.3058,-3.3058,-3.2846,-3.2503,-3.2269,-3.1881,-3.1382,-3.0513,-2.9849,-2.9496,-2.9238,-2.8831,-2.8302,-2.8234,-2.8302,-2.8305,-2.8042,-2.8042,-2.8326,-2.8029,-2.7732,-2.7301,-2.644,-2.4249,-2.0576,-2.0803,-1.9348,-1.5008,-0.9414,-0.277,0.42,0.8685,1.3871,2.0068,2.6873,3.1086,3.1597,3.4007,3.5763,3.6072,3.7721,3.8942,3.8941,3.8741,3.8816,3.9103,3.9034,3.9275,4.0018,4.0916,4.1987,4.3256,4.3875,4.4678,4.5623,4.5935,4.5865,4.5513,4.4575,4.371,4.3196,4.289,4.2612,4.2573,4.2594,4.2612,4.2479,4.2045,4.1774,4.1719,4.1267,4.0925,4.0807,4.0792,4.0796,4.0784,4.0694,4.0582,4.0519,4.0489,4.0508,-4.0419,-4.0514,-4.0468,-4.0355,-4.0188,-4.0336,-4.04,-4.04,-4.04,-4.04,-4.0417,-4.0353,-4.0549,-4.0849,-4.04,-3.9749,-3.9011,-3.8629,-3.81,-3.7539,-3.748,-3.7539,-3.748,-3.7345,-3.7285,-3.7285,-3.7089,-3.6708,-3.6085,-3.5154,-3.437,-3.3977,-3.3701,-3.3563,-3.3409,-3.3409,-3.3269,-3.2917,-3.2775,-3.2574,-3.2249,-3.1412,-3.065,-3.0147,-2.9875,-2.959,-2.9234,-2.9154,-2.9285,-2.9661,-2.9206,-2.9127,-2.9633,-2.9504,-2.9306,-2.8842,-2.7881,-2.5704,-2.2129,-2.2564,-2.2563,-2.1013,-1.5223,-0.9452,-0.4433,0.0081,0.443,0.9125,1.6405,2.1747,2.7367,3.0548,3.2741,3.3434,3.581,3.7346,3.7257,3.7465,3.7935,3.822,3.8687,3.9093,3.9852,4.0858,4.1914,4.2843,4.3618,4.4501,4.5433,4.582,4.5924,4.6008,4.5609,4.4995,4.4129,4.3644,4.373,4.3652,4.3548,4.3544,4.3697,4.3025,4.24,4.214,4.1586,4.114,4.0886,4.0834,4.0788,4.0752,4.0694,4.0607,4.0558,4.0523,4.0642,-3.9202,-3.9077,-3.9677,-3.9952,-3.9952,-4.022,-4.0368,-4.0319,-4.0351,-4.0351,-4.0351,-4.0368,-4.0417,-4.04,-4.0154,-3.9365,-3.8214,-3.8511,-3.8303,-3.7583,-3.748,-3.748,-3.7464,-3.6984,-3.6785,-3.6785,-3.6383,-3.5864,-3.5365,-3.5169,-3.4905,-3.4414,-3.4278,-3.4128,-3.3839,-3.377,-3.3632,-3.3269,-3.2988,-3.2704,-3.2632,-3.2304,-3.1935,-3.1543,-3.0842,-3.0446,-3.0636,-3.0487,-3.0555,-3.1264,-3.0269,-2.9803,-3.0038,-3.0147,-2.9889,-2.9094,-2.8411,-2.7445,-2.6096,-2.5836,-2.5457,-2.4271,-2.144,-1.7751,-1.1695,-0.8096,-0.4601,-0.1454,0.366,1.1261,2.2623,2.5914,2.8061,2.9411,3.1043,3.224,3.26,3.5024,3.6276,3.6768,3.8362,3.9839,4.0762,4.1521,4.216,4.2925,4.3531,4.4306,4.5301,4.5664,4.5817,4.6064,4.608,4.5913,4.5065,4.4587,4.4062,4.4042,4.4238,4.3913,4.3723,4.3504,4.307,4.259,4.2196,4.1714,4.1121,4.0826,4.0781,4.0732,4.0726,4.066,4.0588,4.0592,4.0827,-3.9625,-3.9504,-3.9798,-3.9746,-3.9537,-3.9644,-3.9713,-3.9713,-3.9696,-3.9713,-3.9696,-3.9696,-3.9696,-3.9696,-3.9609,-3.9329,-3.8832,-3.8439,-3.8059,-3.7743,-3.7583,-3.748,-3.748,-3.7285,-3.7029,-3.6708,-3.6507,-3.6006,-3.5234,-3.4854,-3.4601,-3.4481,-3.4414,-3.4346,-3.4196,-3.4196,-3.3991,-3.3632,-3.3479,-3.2974,-3.2318,-3.2632,-3.265,-3.2189,-3.1387,-3.0923,-3.0908,-3.0597,-3.0719,-3.1377,-3.0841,-3.061,-3.0812,-3.0533,-2.9602,-2.8252,-2.8576,-2.8139,-2.6489,-2.6891,-2.7208,-2.6663,-2.3941,-2.1311,-1.8391,-1.5319,-1.1335,-0.6495,-0.4059,0.2025,0.9715,1.6314,2.0801,2.3556,2.7251,2.9632,3.0491,3.235,3.412,3.5,3.6893,3.8848,4.0399,4.1507,4.2318,4.2922,4.3799,4.4558,4.5029,4.536,4.5587,4.5836,4.6005,4.6047,4.5945,4.5634,4.5366,4.5314,4.5333,4.535,4.5234,4.4618,4.4153,4.3337,4.286,4.1995,4.1296,4.0981,4.0897,4.0848,4.0842,4.1054,4.0626,4.1118,4.1459,-3.9912,-3.9711,-3.9694,-3.9537,-3.9342,-3.9288,-3.9288,-3.9288,-3.9288,-3.9288,-3.9288,-3.9288,-3.9288,-3.9288,-3.9288,-3.9309,-3.9312,-3.8551,-3.8116,-3.7886,-3.7743,-3.7583,-3.7464,-3.7361,-3.6952,-3.6461,-3.607,-3.5623,-3.5234,-3.4668,-3.4414,-3.4414,-3.4414,-3.4414,-3.4414,-3.4414,-3.4264,-3.3991,-3.3839,-3.3325,-3.2591,-3.2761,-3.2903,-3.2763,-3.2034,-3.1471,-3.1376,-3.1323,-3.1392,-3.166,-3.1582,-3.1598,-3.18,-3.1068,-3.0223,-2.9295,-2.9277,-2.8781,-2.7455,-2.789,-2.8446,-2.8505,-2.6217,-2.4252,-2.3286,-2.0519,-1.6518,-1.2827,-1.0534,-0.7461,-0.1669,0.4064,0.9934,1.624,2.1997,2.5071,2.5647,2.8363,3.1345,3.3861,3.6059,3.7923,3.9476,4.1178,4.2273,4.2815,4.3857,4.4546,4.4891,4.5104,4.5376,4.5626,4.5801,4.5969,4.5974,4.5844,4.5877,4.5886,4.5884,4.6147,4.6126,4.5566,4.4954,4.4133,4.3221,4.2221,4.1587,4.1244,4.1149,4.1151,4.1629,4.2047,4.1909,4.1962,4.2356,-4.0022,-3.9441,-3.9342,-3.9358,-3.9288,-3.9288,-3.9288,-3.9288,-3.9288,-3.9288,-3.9288,-3.9288,-3.9288,-3.9288,-3.9288,-3.9272,-3.9148,-3.8876,-3.8455,-3.7943,-3.7886,-3.7727,-3.7421,-3.6968,-3.6461,-3.5864,-3.492,-3.4735,-3.5037,-3.4668,-3.4414,-3.4414,-3.4414,-3.4414,-3.4414,-3.4414,-3.4414,-3.4278,-3.4059,-3.377,-3.3701,-3.2846,-3.2846,-3.3409,-3.2706,-3.2274,-3.2342,-3.2862,-3.2807,-3.2497,-3.2514,-3.2861,-3.2793,-3.1819,-3.1529,-3.176,-3.0444,-2.9449,-2.9389,-2.9353,-2.9633,-2.958,-2.88,-2.7353,-2.5889,-2.3487,-2.1222,-1.9609,-1.7663,-1.4509,-0.9862,-0.739,-0.2167,0.8753,1.476,1.7586,1.8811,2.2794,2.8114,3.2723,3.5422,3.727,3.8413,4.0255,4.1916,4.2632,4.3406,4.4138,4.4607,4.4805,4.5128,4.5447,4.5592,4.5692,4.5817,4.5939,4.6079,4.6186,4.6187,4.627,4.6225,4.5834,4.5409,4.4663,4.376,4.2802,4.2179,4.1916,4.2067,4.2187,4.2673,4.2905,4.2811,4.2825,4.3374,-4.068,-4.0067,-4.0034,-3.9736,-3.9322,-3.9288,-3.9288,-3.9288,-3.9288,-3.9288,-3.9288,-3.9288,-3.9288,-3.9288,-3.9272,-3.9023,-3.8645,-3.8914,-3.8821,-3.8246,-3.8017,-3.7535,-3.7029,-3.6785,-3.6258,-3.5415,-3.4721,-3.4467,-3.4601,-3.4467,-3.4414,-3.4414,-3.4414,-3.4414,-3.4414,-3.4414,-3.4414,-3.4414,-3.4278,-3.3894,-3.3311,-3.3548,-3.3548,-3.3241,-3.3465,-3.3471,-3.2848,-3.2863,-3.3017,-3.332,-3.3241,-3.3003,-3.2665,-3.2207,-3.1502,-3.0649,-3.1193,-3.0568,-2.9406,-3.0402,-3.1113,-3.0724,-2.9704,-2.8879,-2.8198,-2.6117,-2.3594,-2.1438,-1.9715,-1.7147,-1.2661,-0.9526,-0.5236,0.1838,0.757,1.1185,1.264,1.8539,2.4908,2.9714,3.2,3.408,3.686,3.916,4.0377,4.176,4.2573,4.3269,4.3757,4.4205,4.4607,4.5067,4.5208,4.5393,4.5568,4.575,4.592,4.6079,4.6195,4.6273,4.623,4.6131,4.5702,4.5087,4.4202,4.3506,4.2886,4.2782,4.2945,4.3036,4.3291,4.3376,4.3332,4.3709,4.4238,-4.1409,-4.0746,-4.0481,-4.0117,-3.9653,-3.9458,-3.9288,-3.9288,-3.9288,-3.9148,-3.9023,-3.9218,-3.9148,-3.9023,-3.9202,-3.8898,-3.8407,-3.8788,-3.8528,-3.8017,-3.8091,-3.7653,-3.6815,-3.6321,-3.5879,-3.5234,-3.4668,-3.4414,-3.4414,-3.4414,-3.4414,-3.4414,-3.4414,-3.4414,-3.4414,-3.4414,-3.4414,-3.4414,-3.4414,-3.4128,-3.3673,-3.3742,-3.3811,-3.352,-3.3825,-3.3625,-3.3093,-3.3073,-3.3241,-3.3528,-3.3628,-3.3474,-3.3186,-3.2788,-3.2041,-3.128,-3.1336,-3.1488,-3.0915,-3.1439,-3.1676,-3.1231,-3.0695,-2.9821,-2.8991,-2.7599,-2.5848,-2.3288,-2.1798,-1.9774,-1.6085,-1.3132,-0.9686,-0.5902,0.0582,0.5384,0.8487,1.4863,2.0802,2.5183,2.8548,3.1402,3.3903,3.6564,3.8159,4.0065,4.1113,4.2157,4.2741,4.3527,4.4034,4.4511,4.4858,4.5065,4.5321,4.5538,4.5725,4.592,4.6111,4.6181,4.6201,4.6152,4.5883,4.5214,4.4403,4.3949,4.3405,4.3733,4.3967,4.3984,4.4064,4.4428,4.465,4.4684,4.5059,-4.2154,-4.1425,-4.0779,-4.0481,-4.0249,-3.9723,-3.9371,-3.9288,-3.9288,-3.9023,-3.8662,-3.9077,-3.8969,-3.859,-3.8898,-3.8717,-3.8294,-3.8351,-3.7895,-3.7445,-3.7711,-3.777,-3.6768,-3.5721,-3.5169,-3.5052,-3.4601,-3.4414,-3.4414,-3.4414,-3.4414,-3.4414,-3.4414,-3.4414,-3.4414,-3.4414,-3.4414,-3.4414,-3.4414,-3.4346,-3.4264,-3.3742,-3.3659,-3.4264,-3.3742,-3.3353,-3.3241,-3.3422,-3.3445,-3.3221,-3.3869,-3.4249,-3.4167,-3.3659,-3.3199,-3.2849,-3.1802,-3.2331,-3.3153,-3.2448,-3.1535,-3.1604,-3.168,-3.1095,-2.9226,-2.8758,-2.7782,-2.5749,-2.4176,-2.2233,-1.9791,-1.7704,-1.5113,-1.2174,-0.5003,0.1263,0.7384,1.1978,1.6182,2.0779,2.5359,2.9126,3.0236,3.3235,3.5689,3.8117,3.9244,4.0481,4.1841,4.2649,4.3327,4.3831,4.428,4.4638,4.4855,4.5227,4.5423,4.5572,4.5831,4.6037,4.6144,4.6128,4.6097,4.5428,4.4898,4.443,4.4319,4.4676,4.4859,4.4849,4.5161,4.5699,4.5742,4.5559,4.5457,-4.2899,-4.222,-4.2021,-4.1342,-4.0448,-4.015,-3.9769,-3.9322,-3.9288,-3.9202,-3.9077,-3.9218,-3.8898,-3.8351,-3.8479,-3.7953,-3.7354,-3.7879,-3.7648,-3.6845,-3.7594,-3.7147,-3.5961,-3.5037,-3.4601,-3.4601,-3.4481,-3.4414,-3.4414,-3.4414,-3.4414,-3.4414,-3.4414,-3.4414,-3.4414,-3.4414,-3.4414,-3.4414,-3.4414,-3.4414,-3.4346,-3.4196,-3.4196,-3.4332,-3.4196,-3.3728,-3.3297,-3.3297,-3.3492,-3.3639,-3.4095,-3.4414,-3.4346,-3.4182,-3.3811,-3.3227,-3.3381,-3.3044,-3.2844,-3.3086,-3.3129,-3.2707,-3.2236,-3.1815,-3.1109,-2.9347,-2.7773,-2.5903,-2.4353,-2.2271,-1.929,-1.7864,-1.6014,-1.2678,-0.7514,-0.1473,0.4171,0.7382,1.0924,1.756,2.0593,2.4381,2.8572,3.1079,3.3431,3.6344,3.8007,3.909,4.0447,4.1735,4.2436,4.3155,4.3675,4.4069,4.4436,4.4843,4.5105,4.5222,4.5483,4.5825,4.5978,4.6079,4.6075,4.5868,4.5634,4.5234,4.5403,4.5724,4.5715,4.5522,4.5714,4.5953,4.5874,4.5747,4.566,-4.2472,-4.2075,-4.2075,-4.1419,-4.0475,-4.0387,-3.9951,-3.9371,-3.9288,-3.9148,-3.8952,-3.8898,-3.8535,-3.7937,-3.7937,-3.7354,-3.66,-3.7175,-3.689,-3.6258,-3.6492,-3.6228,-3.5415,-3.4721,-3.4414,-3.4414,-3.4414,-3.4414,-3.4414,-3.4414,-3.4414,-3.4414,-3.4414,-3.4414,-3.4414,-3.4414,-3.4414,-3.4414,-3.4414,-3.4414,-3.4414,-3.4414,-3.4414,-3.4414,-3.4346,-3.4045,-3.3297,-3.3227,-3.3311,-3.3604,-3.4045,-3.4414,-3.4414,-3.4481,-3.4113,-3.3297,-3.3742,-3.352,-3.2791,-3.2932,-3.3017,-3.3003,-3.2506,-3.1988,-3.1462,-3.0266,-2.8971,-2.7059,-2.5376,-2.3113,-2.0722,-1.876,-1.6678,-1.4232,-1.0206,-0.523,0.0391,0.3518,0.7856,1.3339,1.799,2.1814,2.7668,2.887,3.1312,3.4237,3.6259,3.7576,3.8985,4.0336,4.1499,4.2203,4.2887,4.3275,4.3675,4.4073,4.4605,4.4749,4.5197,4.5552,4.5789,4.5959,4.606,4.606,4.6119,4.6128,4.6102,4.6074,4.5987,4.5889,4.6033,4.6027,4.5941,4.5917,4.5829,-4.1263,-4.1326,-4.1326,-4.0861,-4.0194,-4.0164,-3.966,-3.9122,-3.8985,-3.8717,-3.8351,-3.8278,-3.7937,-3.7294,-3.7429,-3.7027,-3.6321,-3.6477,-3.6196,-3.5782,-3.5589,-3.5314,-3.5285,-3.4735,-3.4481,-3.4414,-3.4414,-3.4414,-3.4414,-3.4414,-3.4414,-3.4414,-3.4414,-3.4414,-3.4414,-3.4414,-3.4414,-3.4414,-3.4414,-3.4414,-3.4414,-3.4414,-3.4414,-3.4346,-3.4182,-3.3894,-3.3367,-3.3087,-3.3087,-3.3227,-3.3962,-3.4346,-3.4414,-3.4631,-3.4332,-3.3728,-3.3728,-3.3659,-3.3283,-3.242,-3.1988,-3.2847,-3.2506,-3.1769,-3.118,-3.0882,-3.0101,-2.8267,-2.6558,-2.4598,-2.2776,-1.994,-1.7617,-1.5772,-1.3086,-0.9828,-0.5642,-0.0294,0.4772,0.9104,1.5917,2.123,2.4544,2.6723,2.8692,3.2191,3.4222,3.6213,3.7713,3.917,4.0275,4.1218,4.1843,4.2418,4.2832,4.3275,4.3871,4.4304,4.4881,4.5283,4.5576,4.5762,4.5938,4.6033,4.6002,4.6013,4.6041,4.603,4.6009,4.6058,4.605,4.602,4.5988,4.5978,4.594,-3.9913,-3.9941,-3.9957,-3.9497,-3.8985,-3.8898,-3.8494,-3.7854,-3.7838,-3.7838,-3.7706,-3.8051,-3.7573,-3.6662,-3.7027,-3.6784,-3.591,-3.6133,-3.6321,-3.6133,-3.5329,-3.5001,-3.4986,-3.475,-3.4549,-3.4414,-3.4414,-3.4414,-3.4414,-3.4414,-3.4414,-3.4414,-3.4414,-3.4414,-3.4414,-3.4414,-3.4414,-3.4414,-3.4414,-3.4414,-3.4414,-3.4414,-3.4414,-3.4346,-3.3894,-3.3451,-3.3157,-3.2648,-3.2648,-3.3227,-3.3894,-3.4414,-3.4549,-3.4698,-3.4616,-3.452,-3.4385,-3.4399,-3.4249,-3.3756,-3.3451,-3.3143,-3.2662,-3.1783,-3.0895,-3.0063,-2.9369,-2.8199,-2.6789,-2.4893,-2.2484,-2.0378,-1.8488,-1.6814,-1.4924,-1.2785,-0.9811,-0.5659,-0.0689,0.5356,1.1206,1.7186,2.1359,2.4682,2.7162,2.992,3.243,3.4697,3.6412,3.7995,3.9099,4.0063,4.0718,4.1288,4.1861,4.2438,4.3169,4.3751,4.4327,4.4821,4.511,4.5522,4.5699,4.5805,4.5844,4.5881,4.5907,4.5908,4.5899,4.5966,4.6054,4.6036,4.6026,4.603,4.604,-3.8539,-3.8544,-3.892,-3.8607,-3.8122,-3.8351,-3.8078,-3.7508,-3.7354,-3.7354,-3.7354,-3.7472,-3.6995,-3.6445,-3.643,-3.6085,-3.5733,-3.5797,-3.5958,-3.5831,-3.5394,-3.5148,-3.5016,-3.4883,-3.4668,-3.4414,-3.4414,-3.4414,-3.4414,-3.4414,-3.4414,-3.4414,-3.4414,-3.4414,-3.4414,-3.4414,-3.4414,-3.4414,-3.4414,-3.4414,-3.4414,-3.4414,-3.4414,-3.4346,-3.3962,-3.3604,-3.3227,-3.2875,-3.2648,-3.2875,-3.352,-3.4182,-3.4616,-3.475,-3.4817,-3.4868,-3.4949,-3.4831,-3.4683,-3.4332,-3.4031,-3.3879,-3.3241,-3.2591,-3.1856,-3.0882,-2.9833,-2.8834,-2.7626,-2.6014,-2.3104,-2.1203,-1.967,-1.8311,-1.6539,-1.4912,-1.2978,-0.9887,-0.438,0.1862,0.6155,1.2449,1.7349,2.1823,2.5507,2.827,3.1406,3.3696,3.5096,3.6625,3.7906,3.8846,3.9511,4.0148,4.0845,4.1601,4.2472,4.3066,4.3629,4.4087,4.444,4.4949,4.5445,4.553,4.5645,4.5718,4.5738,4.575,4.5793,4.5884,4.5952,4.6009,4.6055,4.6067,4.6092,-3.7126,-3.7146,-3.7793,-3.7686,-3.7274,-3.7686,-3.7604,-3.7134,-3.7131,-3.6966,-3.7071,-3.6554,-3.6415,-3.6196,-3.591,-3.5683,-3.5504,-3.5489,-3.5619,-3.5554,-3.5424,-3.5294,-3.5148,-3.4935,-3.4735,-3.4481,-3.4414,-3.4414,-3.4414,-3.4414,-3.4414,-3.4414,-3.4414,-3.4414,-3.4414,-3.4414,-3.4414,-3.4414,-3.4414,-3.4414,-3.4414,-3.4414,-3.4414,-3.4346,-3.4045,-3.3894,-3.352,-3.3227,-3.2946,-3.2376,-3.2946,-3.3742,-3.4385,-3.4802,-3.5001,-3.5001,-3.5148,-3.5016,-3.4817,-3.4385,-3.4235,-3.4616,-3.4085,-3.3297,-3.2605,-3.2015,-3.1057,-2.9781,-2.8518,-2.7279,-2.4745,-2.294,-2.1382,-1.9869,-1.8033,-1.6633,-1.5235,-1.3013,-0.6929,-0.0197,0.3325,0.8097,1.4284,1.9516,2.3077,2.6563,2.9706,3.2346,3.3657,3.5145,3.6322,3.7594,3.8316,3.9268,4.0,4.0839,4.1735,4.2297,4.2869,4.3327,4.3738,4.4279,4.4794,4.5285,4.5433,4.5526,4.5596,4.5634,4.5706,4.5794,4.5881,4.5956,4.603,4.6106,4.6132,-3.5824,-3.5849,-3.5969,-3.5954,-3.5864,-3.5963,-3.6046,-3.5812,-3.591,-3.5846,-3.591,-3.6196,-3.607,-3.5846,-3.6148,-3.5973,-3.5554,-3.5489,-3.5489,-3.5439,-3.5374,-3.5228,-3.5228,-3.5016,-3.4817,-3.4616,-3.4481,-3.4414,-3.4414,-3.4414,-3.4414,-3.4414,-3.4414,-3.4414,-3.4414,-3.4414,-3.4414,-3.4414,-3.4414,-3.4414,-3.4414,-3.4414,-3.4332,-3.4264,-3.3825,-3.3742,-3.3879,-3.352,-3.3157,-3.3017,-3.2747,-3.3115,-3.3865,-3.4639,-3.5067,-3.5279,-3.5294,-3.5162,-3.5016,-3.4868,-3.4438,-3.4085,-3.3934,-3.3143,-3.2218,-3.1723,-3.1368,-3.033,-2.9094,-2.7614,-2.4756,-2.3892,-2.26,-2.0747,-1.9031,-1.7446,-1.5886,-1.3788,-1.0765,-0.4538,-0.0489,0.419,1.0612,1.6197,1.9741,2.3083,2.6337,2.9088,3.101,3.2779,3.4493,3.5797,3.7125,3.8205,3.9268,4.0192,4.1041,4.1454,4.1961,4.2495,4.2977,4.3601,4.409,4.46,4.5086,4.5361,4.5436,4.5509,4.5587,4.568,4.5789,4.5914,4.5987,4.604,4.614,-3.5489,-3.5489,-3.5489,-3.5489,-3.5489,-3.5489,-3.5489,-3.5489,-3.5489,-3.5489,-3.5554,-3.5797,-3.5797,-3.5619,-3.5733,-3.5733,-3.5554,-3.5489,-3.5489,-3.5439,-3.5439,-3.5374,-3.5294,-3.5148,-3.4949,-3.4817,-3.4616,-3.4481,-3.4414,-3.4414,-3.4414,-3.4414,-3.4414,-3.4414,-3.4414,-3.4414,-3.4414,-3.4414,-3.4414,-3.4414,-3.4414,-3.4414,-3.4264,-3.3742,-3.352,-3.352,-3.3659,-3.3087,-3.2946,-3.3227,-3.2903,-3.296,-3.3422,-3.4192,-3.4971,-3.5344,-3.5359,-3.5294,-3.5228,-3.5148,-3.5001,-3.4654,-3.4587,-3.3934,-3.2861,-3.2376,-3.1736,-3.0646,-2.9561,-2.8187,-2.6273,-2.5251,-2.3451,-2.148,-2.0042,-1.848,-1.6734,-1.5527,-1.2587,-0.875,-0.3554,0.1865,0.7475,1.2363,1.6005,1.9487,2.2869,2.5573,2.8102,3.0394,3.2361,3.4325,3.5748,3.7168,3.8205,3.9082,3.9929,4.0384,4.0937,4.148,4.2163,4.2684,4.3309,4.3867,4.4384,4.4916,4.5263,4.5341,4.5456,4.5563,4.5677,4.58,4.5887,4.5975,4.6068,-3.5489,-3.5489,-3.5489,-3.5489,-3.5489,-3.5489,-3.5489,-3.5489,-3.5489,-3.5609,-3.5669,-3.5579,-3.5594,-3.5654,-3.5579,-3.5489,-3.5489,-3.5489,-3.5489,-3.5489,-3.5504,-3.5504,-3.5424,-3.5344,-3.5148,-3.5016,-3.4883,-3.4698,-3.4481,-3.4414,-3.4414,-3.4481,-3.4414,-3.4414,-3.4414,-3.4414,-3.4414,-3.4414,-3.4414,-3.4414,-3.4414,-3.4182,-3.3962,-3.3381,-3.3227,-3.3241,-3.3742,-3.3157,-3.3087,-3.3367,-3.3171,-3.2818,-3.3031,-3.3685,-3.4409,-3.5133,-3.5359,-3.5359,-3.5359,-3.5374,-3.5359,-3.5148,-3.5359,-3.4572,-3.3437,-3.2591,-3.2028,-3.0885,-3.005,-2.9081,-2.7683,-2.6345,-2.4555,-2.2775,-2.1302,-1.9778,-1.7948,-1.6365,-1.4765,-1.0586,-0.5649,-0.0692,0.4626,0.8694,1.2368,1.5913,1.9226,2.2493,2.4999,2.7956,3.0206,3.2654,3.4449,3.5982,3.7109,3.7792,3.8564,3.908,3.9631,4.0182,4.0965,4.1735,4.2366,4.2957,4.3638,4.4158,4.4663,4.5173,4.5302,4.5419,4.5586,4.5687,4.5791,4.5893,4.5979,-3.5489,-3.5489,-3.5489,-3.5489,-3.5489,-3.5489,-3.5489,-3.5489,-3.5489,-3.5863,-3.6163,-3.5789,-3.5804,-3.6043,-3.5684,-3.5519,-3.5489,-3.5489,-3.5489,-3.5489,-3.5489,-3.5489,-3.5489,-3.5504,-3.5294,-3.5148,-3.5082,-3.4964,-3.4683,-3.4481,-3.4481,-3.4563,-3.4481,-3.4414,-3.4414,-3.4414,-3.4414,-3.4414,-3.4346,-3.4346,-3.4264,-3.3742,-3.3742,-3.3687,-3.3255,-3.3058,-3.3977,-3.352,-3.3575,-3.3644,-3.3311,-3.2946,-3.2975,-3.3129,-3.3685,-3.4394,-3.5052,-3.5504,-3.5424,-3.5359,-3.5359,-3.5279,-3.5424,-3.4654,-3.3506,-3.2173,-3.1394,-3.0836,-3.0457,-2.9806,-2.8676,-2.7695,-2.6345,-2.449,-2.2532,-2.0854,-1.9139,-1.6943,-1.533,-1.2984,-0.8224,-0.3657,0.1281,0.4935,0.8604,1.2178,1.5609,1.8767,2.236,2.5557,2.815,3.0603,3.2639,3.4251,3.5326,3.6168,3.7074,3.7662,3.8286,3.8931,3.9665,4.0526,4.1315,4.1917,4.2613,4.3387,4.3997,4.4499,4.4954,4.5204,4.5285,4.5473,4.57,4.5789,4.5871,-3.5489,-3.5489,-3.5489,-3.5489,-3.5489,-3.5489,-3.5489,-3.5489,-3.5504,-3.5669,-3.5863,-3.5654,-3.5684,-3.5848,-3.5579,-3.5504,-3.5489,-3.5489,-3.5489,-3.5489,-3.5489,-3.5489,-3.5489,-3.5504,-3.5374,-3.5213,-3.5148,-3.5082,-3.4817,-3.4683,-3.4616,-3.4631,-3.4481,-3.4414,-3.4414,-3.4414,-3.4414,-3.4264,-3.3962,-3.3742,-3.3604,-3.3451,-3.3157,-3.3171,-3.269,-3.2988,-3.3339,-3.3409,-3.3589,-3.3782,-3.3713,-3.3437,-3.3213,-3.3143,-3.3408,-3.3616,-3.3919,-3.4572,-3.5294,-3.5067,-3.492,-3.4986,-3.5133,-3.4802,-3.3437,-3.2232,-3.1084,-3.019,-3.0114,-2.9639,-2.8743,-2.7706,-2.6521,-2.4999,-2.3221,-2.1551,-1.977,-1.777,-1.5704,-1.3358,-1.1011,-0.6807,-0.2864,0.0693,0.4256,0.7761,1.1462,1.5127,1.9647,2.4242,2.6541,2.8517,3.0494,3.2301,3.3203,3.4054,3.5347,3.6138,3.6987,3.7622,3.839,3.9185,3.9963,4.0568,4.1042,4.1974,4.3051,4.3834,4.435,4.4673,4.4944,4.5188,4.5398,4.5599,4.5699,-3.5489,-3.5489,-3.5489,-3.5489,-3.5489,-3.5489,-3.5489,-3.5489,-3.5489,-3.5609,-3.5729,-3.5759,-3.5699,-3.5519,-3.5504,-3.5489,-3.5489,-3.5489,-3.5489,-3.5489,-3.5489,-3.5489,-3.5489,-3.5504,-3.5374,-3.5213,-3.5213,-3.5067,-3.4935,-3.4817,-3.475,-3.4698,-3.4563,-3.4481,-3.4414,-3.4414,-3.4414,-3.4346,-3.3894,-3.352,-3.3367,-3.3506,-3.3087,-3.2733,-3.2533,-3.2632,-3.2974,-3.2618,-3.3087,-3.4041,-3.3919,-3.3506,-3.3213,-3.3213,-3.3073,-3.3143,-3.3227,-3.3796,-3.4423,-3.4543,-3.4394,-3.461,-3.4409,-3.4153,-3.3087,-3.2232,-3.1516,-3.0254,-2.9858,-2.9381,-2.8505,-2.7614,-2.6719,-2.5273,-2.3567,-2.1887,-2.0124,-1.8218,-1.6669,-1.5019,-1.2973,-1.0942,-0.7039,-0.3679,-0.0198,0.3268,0.7164,1.1502,1.6675,2.2246,2.4807,2.6668,2.8294,3.0284,3.1864,3.2736,3.3796,3.4661,3.5553,3.6435,3.7266,3.7898,3.8635,3.9101,3.9631,4.0516,4.1547,4.2704,4.3776,4.414,4.455,4.4859,4.5109,4.5323,4.558,-3.5489,-3.5489,-3.5489,-3.5489,-3.5489,-3.5489,-3.5489,-3.5489,-3.5489,-3.5818,-3.6178,-3.6327,-3.5923,-3.5624,-3.5489,-3.5489,-3.5489,-3.5489,-3.5489,-3.5489,-3.5489,-3.5489,-3.5489,-3.5504,-3.5439,-3.5213,-3.5213,-3.5067,-3.492,-3.4935,-3.4817,-3.4698,-3.4631,-3.4563,-3.4481,-3.4414,-3.4414,-3.4346,-3.3977,-3.3589,-3.3367,-3.3506,-3.3589,-3.3227,-3.296,-3.3044,-3.3796,-3.2875,-3.2932,-3.4163,-3.3837,-3.3437,-3.3283,-3.3227,-3.3017,-3.2577,-3.2662,-3.3157,-3.3575,-3.4192,-3.4691,-3.4773,-3.4288,-3.3297,-3.2434,-3.1616,-3.1048,-3.0659,-2.9858,-2.9537,-2.8821,-2.8108,-2.6741,-2.5964,-2.4341,-2.2532,-2.0845,-1.8864,-1.7404,-1.6372,-1.4543,-1.2211,-1.0262,-0.6665,-0.2792,0.0794,0.6298,1.0738,1.5039,2.0013,2.2707,2.4797,2.6166,2.8216,3.0721,3.1775,3.2317,3.3279,3.4283,3.5302,3.6182,3.6781,3.7212,3.789,3.8406,3.9239,4.008,4.1278,4.241,4.3453,4.4092,4.4365,4.4775,4.5109,4.5396,-3.5489,-3.5489,-3.5489,-3.5489,-3.5489,-3.5489,-3.5489,-3.5489,-3.5504,-3.5639,-3.5893,-3.5863,-3.5744,-3.5549,-3.5489,-3.5489,-3.5489,-3.5489,-3.5489,-3.5489,-3.5489,-3.5489,-3.5489,-3.5489,-3.5424,-3.5359,-3.5294,-3.5162,-3.5082,-3.5067,-3.4935,-3.4883,-3.4765,-3.4698,-3.4563,-3.4481,-3.4414,-3.4128,-3.3548,-3.2804,-3.2662,-3.229,-3.2304,-3.2087,-3.2889,-3.2974,-3.3255,-3.3017,-3.3478,-3.3891,-3.3891,-3.3616,-3.3283,-3.3227,-3.2804,-3.216,-3.2173,-3.2376,-3.3143,-3.3837,-3.4461,-3.4409,-3.3782,-3.2875,-3.2087,-3.1736,-3.1071,-3.038,-2.9471,-2.9069,-2.8664,-2.7395,-2.6196,-2.6163,-2.5126,-2.324,-2.156,-1.9588,-1.7777,-1.6567,-1.4937,-1.3,-1.1244,-0.9375,-0.5478,-0.1395,0.4422,0.9782,1.3902,1.7559,2.0349,2.2631,2.4006,2.5217,2.7561,2.916,3.0624,3.1847,3.2988,3.3905,3.4773,3.5225,3.5728,3.6445,3.7243,3.7988,3.8887,3.9948,4.1095,4.2296,4.3195,4.3823,4.4301,4.4813,4.513,-3.5489,-3.5489,-3.5489,-3.5489,-3.5489,-3.5489,-3.5489,-3.5489,-3.5489,-3.5489,-3.5489,-3.5489,-3.5489,-3.5489,-3.5489,-3.5489,-3.5489,-3.5489,-3.5489,-3.5489,-3.5489,-3.5489,-3.5489,-3.5489,-3.5424,-3.5439,-3.5294,-3.5162,-3.5082,-3.5148,-3.5082,-3.5016,-3.4883,-3.4831,-3.4683,-3.4631,-3.4481,-3.4113,-3.3534,-3.2662,-3.2577,-3.2304,-3.2001,-3.1942,-3.239,-3.2547,-3.2618,-3.2448,-3.272,-3.3339,-3.3616,-3.3616,-3.3353,-3.3087,-3.2791,-3.2232,-3.1809,-3.1882,-3.272,-3.3492,-3.3822,-3.3478,-3.3199,-3.2448,-3.2028,-3.1736,-3.1084,-3.0406,-2.9225,-2.8426,-2.8347,-2.708,-2.6218,-2.603,-2.4893,-2.325,-2.2092,-2.0387,-1.8495,-1.6756,-1.5311,-1.3968,-1.0427,-0.8368,-0.4982,-0.0798,0.4259,0.887,1.1975,1.533,1.8064,2.0095,2.1673,2.2795,2.4077,2.5826,2.7731,3.0286,3.1429,3.2407,3.3157,3.3739,3.4461,3.5325,3.612,3.6751,3.7678,3.8727,3.9961,4.1278,4.2222,4.3247,4.3893,4.4402,4.4681,-3.5489,-3.5489,-3.5489,-3.5519,-3.5564,-3.5504,-3.5549,-3.5609,-3.5594,-3.5594,-3.5594,-3.5549,-3.5489,-3.5489,-3.5489,-3.5489,-3.5489,-3.5489,-3.5489,-3.5489,-3.5489,-3.5489,-3.5489,-3.5489,-3.5424,-3.5294,-3.5213,-3.5148,-3.5016,-3.5148,-3.5148,-3.5213,-3.5148,-3.5082,-3.4935,-3.475,-3.4563,-3.4414,-3.4249,-3.3673,-3.3227,-3.296,-3.2648,-3.229,-3.2173,-3.2187,-3.216,-3.1882,-3.216,-3.272,-3.3213,-3.3283,-3.3227,-3.3227,-3.2861,-3.216,-3.2015,-3.2015,-3.216,-3.2804,-3.2791,-3.2563,-3.2434,-3.2015,-3.1334,-3.1048,-3.1123,-3.0583,-2.9471,-2.8585,-2.7879,-2.7092,-2.6456,-2.5706,-2.4573,-2.3607,-2.2444,-2.1203,-1.9314,-1.7311,-1.6473,-1.5013,-1.059,-0.6767,-0.369,0.0199,0.4678,0.814,1.0872,1.3183,1.5946,1.8233,1.9918,2.098,2.2193,2.3065,2.5007,2.7719,2.9745,3.0677,3.1788,3.2749,3.3463,3.4298,3.5029,3.5695,3.6553,3.751,3.8841,4.0212,4.1695,4.2722,4.341,4.3892,4.4106,-3.5489,-3.5489,-3.5489,-3.5759,-3.6088,-3.5666,-3.5695,-3.6133,-3.6148,-3.6133,-3.6043,-3.5729,-3.5489,-3.5489,-3.5489,-3.5489,-3.5489,-3.5489,-3.5489,-3.5489,-3.5489,-3.5489,-3.5489,-3.5504,-3.5439,-3.5374,-3.5294,-3.5279,-3.5294,-3.5228,-3.5294,-3.5359,-3.5344,-3.5213,-3.4949,-3.475,-3.4631,-3.4467,-3.3962,-3.3311,-3.2832,-3.2533,-3.2101,-3.1663,-3.1882,-3.1942,-3.2001,-3.1603,-3.1882,-3.2448,-3.3017,-3.3143,-3.3143,-3.3143,-3.2861,-3.216,-3.1809,-3.1408,-3.1408,-3.169,-3.1882,-3.1955,-3.2015,-3.1663,-3.1123,-3.0986,-3.0986,-3.0748,-2.9781,-2.8991,-2.8267,-2.7487,-2.6775,-2.5968,-2.4935,-2.4059,-2.2999,-2.1756,-2.0141,-1.8041,-1.6749,-1.4644,-1.1118,-0.7069,-0.3696,-0.09,0.3093,0.6973,1.0028,1.1686,1.3891,1.6483,1.838,1.9381,2.0451,2.1496,2.2872,2.5391,2.7484,2.8868,3.0037,3.1422,3.2335,3.3031,3.3808,3.4647,3.5567,3.6507,3.7737,3.9124,4.0366,4.1748,4.2657,4.3069,4.33,-3.5489,-3.5489,-3.5489,-3.5893,-3.6357,-3.577,-3.5977,-3.6616,-3.6349,-3.6148,-3.6028,-3.5669,-3.5489,-3.5489,-3.5489,-3.5489,-3.5489,-3.5489,-3.5489,-3.5489,-3.5489,-3.5489,-3.5489,-3.5489,-3.5504,-3.5439,-3.5359,-3.5294,-3.5439,-3.5279,-3.5294,-3.5424,-3.5489,-3.5133,-3.4854,-3.4735,-3.4831,-3.4601,-3.4113,-3.3825,-3.3255,-3.2676,-3.1955,-3.1809,-3.175,-3.1676,-3.1676,-3.1809,-3.1942,-3.2376,-3.272,-3.2932,-3.3073,-3.2932,-3.272,-3.2304,-3.1882,-3.1334,-3.1123,-3.1468,-3.1663,-3.1616,-3.1736,-3.1455,-3.096,-3.0659,-3.0823,-3.0583,-2.9947,-2.9147,-2.8347,-2.7568,-2.694,-2.6052,-2.5464,-2.4584,-2.3357,-2.212,-2.0863,-1.8764,-1.6727,-1.4429,-1.1638,-0.7865,-0.4002,-0.14,0.14,0.5178,0.8864,1.0635,1.2394,1.5,1.6828,1.784,1.8932,2.0008,2.1566,2.3285,2.5166,2.7047,2.8603,2.9986,3.0917,3.1842,3.2763,3.3602,3.447,3.554,3.6714,3.7673,3.8578,4.0058,4.1647,4.2185,4.2451,-3.5489,-3.5489,-3.5489,-3.5893,-3.6312,-3.5878,-3.6275,-3.7227,-3.609,-3.5624,-3.5594,-3.5609,-3.5489,-3.5489,-3.5489,-3.5489,-3.5489,-3.5489,-3.5489,-3.5504,-3.5439,-3.5504,-3.5504,-3.5439,-3.5424,-3.5439,-3.5374,-3.5359,-3.5424,-3.5359,-3.5359,-3.5424,-3.5489,-3.5052,-3.4773,-3.4706,-3.4735,-3.4332,-3.4264,-3.4045,-3.3673,-3.3185,-3.2605,-3.2318,-3.1823,-3.1334,-3.1198,-3.1198,-3.1198,-3.1468,-3.1809,-3.2519,-3.272,-3.2506,-3.272,-3.2648,-3.2304,-3.1603,-3.1185,-3.1529,-3.1455,-3.1272,-3.1123,-3.1061,-3.0898,-3.0508,-3.0508,-3.0343,-2.9858,-2.9069,-2.8187,-2.7649,-2.7021,-2.6456,-2.5895,-2.4935,-2.3714,-2.2473,-2.1302,-1.9472,-1.7546,-1.5076,-1.1726,-0.7977,-0.5402,-0.3001,-0.04,0.2989,0.6561,0.9768,1.1628,1.3986,1.5527,1.619,1.7289,1.8656,2.0107,2.1752,2.3755,2.5637,2.7128,2.8627,2.9807,3.0807,3.1696,3.2621,3.3587,3.453,3.567,3.6504,3.7408,3.8846,4.059,4.1233,4.1576,-3.5489,-3.5489,-3.5489,-3.5893,-3.6417,-3.6282,-3.6558,-3.6821,-3.6387,-3.6193,-3.6178,-3.5699,-3.5504,-3.5489,-3.5489,-3.5489,-3.5489,-3.5489,-3.5489,-3.5424,-3.5359,-3.5439,-3.5439,-3.5359,-3.5424,-3.5439,-3.5439,-3.5374,-3.5489,-3.5424,-3.5439,-3.5504,-3.5489,-3.4986,-3.461,-3.4461,-3.4031,-3.3868,-3.3951,-3.4088,-3.3854,-3.3213,-3.2832,-3.2318,-3.1616,-3.1061,-3.0986,-3.0986,-3.0986,-3.1123,-3.1736,-3.2434,-3.3087,-3.2946,-3.3017,-3.2304,-3.1736,-3.1185,-3.1061,-3.1198,-3.1259,-3.1061,-3.0986,-3.0986,-3.0911,-3.0672,-3.0432,-3.0101,-2.9947,-2.9303,-2.8438,-2.7649,-2.6846,-2.6207,-2.5812,-2.52,-2.4069,-2.3183,-2.1826,-1.9645,-1.7717,-1.4791,-1.1531,-0.9686,-0.7195,-0.4899,-0.2196,0.0896,0.4278,0.7467,1.0676,1.3039,1.4184,1.493,1.6177,1.7561,1.8856,2.0296,2.2484,2.4405,2.5826,2.7325,2.8652,2.9845,3.0807,3.1769,3.2635,3.3654,3.4684,3.5704,3.6626,3.8088,3.9329,4.0051,4.0834,-3.5489,-3.5489,-3.5489,-3.5744,-3.6103,-3.6387,-3.644,-3.6283,-3.6126,-3.6103,-3.6058,-3.5669,-3.5489,-3.5489,-3.5489,-3.5489,-3.5489,-3.5489,-3.5489,-3.5424,-3.5359,-3.5439,-3.5424,-3.5359,-3.5439,-3.5439,-3.5439,-3.5359,-3.5489,-3.5489,-3.5504,-3.5504,-3.5489,-3.4839,-3.4192,-3.3782,-3.3325,-3.3226,-3.3311,-3.3718,-3.3649,-3.3241,-3.2775,-3.239,-3.1616,-3.1136,-3.0986,-3.0986,-3.0986,-3.0986,-3.1529,-3.2015,-3.2591,-3.272,-3.2648,-3.2015,-3.1468,-3.1123,-3.0986,-3.0986,-3.1061,-3.0986,-3.0986,-3.0986,-3.0823,-3.0583,-3.019,-2.9858,-2.9947,-2.9793,-2.8676,-2.7637,-2.6682,-2.5706,-2.5549,-2.5475,-2.468,-2.38,-2.1896,-1.972,-1.7123,-1.4303,-1.2114,-1.0574,-0.881,-0.6313,-0.4312,-0.2301,0.1496,0.5284,0.8791,1.1805,1.2834,1.3669,1.5007,1.6539,1.8018,1.967,2.1747,2.3481,2.4766,2.6284,2.7855,2.9057,2.9999,3.0957,3.1988,3.2791,3.3713,3.4758,3.574,3.6894,3.8084,3.9123,3.9952,-3.5489,-3.5489,-3.5489,-3.5519,-3.5594,-3.6133,-3.6058,-3.5549,-3.5564,-3.5519,-3.5534,-3.5504,-3.5489,-3.5489,-3.5489,-3.5489,-3.5489,-3.5489,-3.5489,-3.5489,-3.5424,-3.5439,-3.5504,-3.5504,-3.5439,-3.5439,-3.5359,-3.5424,-3.5489,-3.5489,-3.5489,-3.5489,-3.5489,-3.4905,-3.3837,-3.3408,-3.3082,-3.2942,-3.3387,-3.3889,-3.4101,-3.372,-3.3016,-3.2875,-3.1969,-3.0986,-3.0986,-3.0986,-3.0986,-3.0986,-3.1123,-3.1468,-3.1942,-3.2232,-3.2146,-3.1869,-3.1394,-3.1123,-3.0986,-3.0986,-3.0986,-3.0986,-3.0986,-3.0986,-3.0823,-3.0583,-3.0266,-2.9614,-2.9537,-2.8834,-2.773,-2.7568,-2.6917,-2.5946,-2.5464,-2.5295,-2.4861,-2.3607,-2.163,-1.9546,-1.7431,-1.4607,-1.2323,-1.0779,-0.9402,-0.722,-0.5325,-0.3915,-0.1402,0.2797,0.6501,1.0031,1.1287,1.2313,1.4052,1.5576,1.7267,1.9015,2.1025,2.2473,2.3577,2.5357,2.7221,2.8176,2.8978,3.0291,3.1341,3.2132,3.3044,3.412,3.5022,3.5759,3.6784,3.8092,3.9246,-3.5489,-3.5489,-3.5489,-3.5489,-3.5519,-3.5654,-3.5669,-3.5504,-3.5489,-3.5489,-3.5489,-3.5489,-3.5489,-3.5489,-3.5489,-3.5489,-3.5489,-3.5489,-3.5489,-3.5424,-3.5359,-3.5424,-3.5424,-3.5374,-3.5374,-3.5439,-3.5439,-3.5424,-3.5439,-3.5504,-3.5489,-3.5504,-3.5424,-3.4773,-3.3837,-3.3506,-3.309,-3.2911,-3.3159,-3.3726,-3.4112,-3.3609,-3.3024,-3.2726,-3.1896,-3.1123,-3.0986,-3.0986,-3.0986,-3.0986,-3.0986,-3.1394,-3.2001,-3.2087,-3.2087,-3.1942,-3.1381,-3.1123,-3.0986,-3.0986,-3.0986,-3.0986,-3.0986,-3.0986,-3.0898,-3.0735,-3.033,-2.9537,-2.8743,-2.7879,-2.7174,-2.7244,-2.7069,-2.6102,-2.5285,-2.5115,-2.4946,-2.3153,-2.1284,-1.9364,-1.736,-1.5285,-1.2904,-1.1165,-0.9788,-0.7905,-0.5922,-0.4321,-0.3119,0.0,0.3909,0.7217,0.9616,1.1063,1.2796,1.4417,1.6108,1.8087,2.0124,2.1391,2.2482,2.4522,2.6472,2.7139,2.8016,2.9499,3.0745,3.1489,3.2417,3.3717,3.4569,3.5374,3.6272,3.7508,3.8606,-3.5489,-3.5489,-3.5489,-3.5489,-3.5489,-3.5489,-3.5489,-3.5489,-3.5489,-3.5489,-3.5489,-3.5489,-3.5489,-3.5489,-3.5489,-3.5489,-3.5489,-3.5489,-3.5489,-3.5424,-3.5424,-3.5424,-3.5424,-3.5359,-3.5439,-3.5504,-3.5504,-3.5504,-3.5439,-3.5118,-3.4971,-3.5294,-3.5213,-3.4624,-3.3905,-3.3382,-3.3225,-3.3272,-3.3068,-3.3341,-3.3817,-3.343,-3.3079,-3.2712,-3.1969,-3.1198,-3.0986,-3.0986,-3.0986,-3.0986,-3.0986,-3.1394,-3.1809,-3.1736,-3.1809,-3.1809,-3.1468,-3.0986,-3.0986,-3.0986,-3.0986,-3.0986,-3.0986,-3.0986,-3.0986,-3.0748,-3.0024,-2.9381,-2.9459,-2.8676,-2.7174,-2.6775,-2.6257,-2.5432,-2.4744,-2.4231,-2.3531,-2.2199,-2.0206,-1.8288,-1.6807,-1.567,-1.3476,-1.156,-1.0181,-0.8711,-0.6722,-0.4929,-0.3624,-0.1914,0.1708,0.4822,0.7518,1.0079,1.2302,1.3634,1.4861,1.6929,1.9222,2.0942,2.2428,2.4069,2.5641,2.6483,2.7626,2.9057,3.0215,3.1119,3.2434,3.3854,3.4563,3.5162,3.6004,3.6893,3.7985,-3.5489,-3.5489,-3.5489,-3.5489,-3.5489,-3.5489,-3.5489,-3.5489,-3.5489,-3.5489,-3.5489,-3.5489,-3.5489,-3.5489,-3.5489,-3.5489,-3.5489,-3.5489,-3.5489,-3.5489,-3.5489,-3.5489,-3.5489,-3.5489,-3.5504,-3.5504,-3.5489,-3.5504,-3.5504,-3.4971,-3.4677,-3.5067,-3.4624,-3.3905,-3.3437,-3.324,-3.3216,-3.3306,-3.3261,-3.3249,-3.3346,-3.3376,-3.3234,-3.2736,-3.1955,-3.1272,-3.1123,-3.1061,-3.1061,-3.0986,-3.0986,-3.1334,-3.1468,-3.1394,-3.1542,-3.1542,-3.1334,-3.1061,-3.0986,-3.0986,-3.0986,-3.0986,-3.0986,-3.0986,-3.0986,-3.0583,-2.9947,-2.9574,-2.9574,-2.8779,-2.7185,-2.6229,-2.5633,-2.4999,-2.4307,-2.3183,-2.2129,-2.1159,-1.9513,-1.7591,-1.6595,-1.5642,-1.4082,-1.2155,-1.06,-0.9225,-0.7524,-0.5929,-0.4026,-0.1913,0.0805,0.3621,0.6132,0.8788,1.1322,1.2673,1.3532,1.5961,1.8172,2.0394,2.2354,2.3937,2.5221,2.6152,2.7371,2.8834,3.005,3.1018,3.2478,3.3728,3.4467,3.5016,3.5593,3.6461,3.7354,-3.5489,-3.5489,-3.5489,-3.5489,-3.5489,-3.5489,-3.5489,-3.5489,-3.5489,-3.5489,-3.5489,-3.5489,-3.5489,-3.5489,-3.5489,-3.5489,-3.5489,-3.5489,-3.5489,-3.5489,-3.5489,-3.5489,-3.5489,-3.5489,-3.5489,-3.5489,-3.5489,-3.5489,-3.5148,-3.461,-3.4312,-3.4476,-3.3782,-3.3604,-3.3951,-3.3677,-3.3342,-3.3544,-3.3463,-3.3384,-3.356,-3.3539,-3.3496,-3.3001,-3.2376,-3.2015,-3.1736,-3.1259,-3.1123,-3.0986,-3.0986,-3.1123,-3.1185,-3.1211,-3.1237,-3.1418,-3.1192,-3.1258,-3.1209,-3.1156,-3.1169,-3.1104,-3.1078,-3.0911,-3.0911,-3.0836,-3.0152,-2.9452,-2.9126,-2.8066,-2.6783,-2.6318,-2.5719,-2.5041,-2.4317,-2.2413,-2.0852,-2.0326,-1.932,-1.795,-1.6847,-1.5724,-1.4485,-1.2644,-1.0897,-0.9379,-0.7528,-0.5729,-0.3525,-0.1611,0.0202,0.2517,0.5039,0.7132,0.9501,1.1058,1.241,1.4854,1.7167,1.9204,2.1365,2.3637,2.4957,2.5724,2.6987,2.8462,2.9666,3.0794,3.1783,3.296,3.4128,3.4883,3.537,3.5963,3.6904]}]]